Wetterdaten: Donnerstag, 09.05.2019
Datum Zeit Temp. A. Pool Temp. Temp. 5cm Feuchte A. Luftdruck Regen Wind Richtung Richtung Sonnenschein ET UV Solar Taupunkt Windchill Windben Empfang
09.05.2019 00:00 14,2 C 13,9 C 13,3 C 60 % 1000,5 hPa 0,0 l/m 5,5 km/h (1 Bft) S-SO 164 0 min 0,000 mm 0,0 UV-I 0 W/m 6,5 C 14,2 C 6,4 km/h (2 Bft) 95,83 %
09.05.2019 00:02 14,1 C 13,9 C 12,8 C 61 % 1000,5 hPa 0,0 l/m 4,6 km/h (1 Bft) S-SO 155 0 min 0,000 mm 0,0 UV-I 0 W/m 6,7 C 14,1 C 8,0 km/h (2 Bft) 94,12 %
09.05.2019 00:04 14,0 C 13,9 C 12,8 C 61 % 1000,5 hPa 0,0 l/m 5,5 km/h (1 Bft) S-SO 165 0 min 0,000 mm 0,0 UV-I 0 W/m 6,6 C 14,0 C 8,0 km/h (2 Bft) 98,11 %
09.05.2019 00:06 13,9 C 13,9 C 12,8 C 61 % 1000,5 hPa 0,0 l/m 5,7 km/h (1 Bft) S-SO 161 0 min 0,000 mm 0,0 UV-I 0 W/m 6,5 C 13,9 C 9,7 km/h (2 Bft) 100,00 %
09.05.2019 00:08 13,9 C 13,9 C 12,8 C 61 % 1000,5 hPa 0,0 l/m 4,8 km/h (1 Bft) S 182 0 min 0,000 mm 0,0 UV-I 0 W/m 6,5 C 13,9 C 8,0 km/h (2 Bft) 98,11 %
09.05.2019 00:10 13,9 C 13,9 C 12,8 C 61 % 1000,6 hPa 0,0 l/m 4,4 km/h (1 Bft) S 181 0 min 0,000 mm 0,0 UV-I 0 W/m 6,5 C 13,9 C 6,4 km/h (2 Bft) 97,37 %
09.05.2019 00:12 13,9 C 13,9 C 12,8 C 61 % 1000,6 hPa 0,0 l/m 4,5 km/h (1 Bft) S 179 0 min 0,000 mm 0,0 UV-I 0 W/m 6,5 C 13,9 C 6,4 km/h (2 Bft) 100,00 %
09.05.2019 00:14 13,9 C 13,9 C 12,8 C 61 % 1000,5 hPa 0,0 l/m 4,8 km/h (1 Bft) S 175 0 min 0,000 mm 0,0 UV-I 0 W/m 6,5 C 13,9 C 6,4 km/h (2 Bft) 100,00 %
09.05.2019 00:16 13,9 C 13,9 C 12,8 C 61 % 1000,5 hPa 0,0 l/m 4,5 km/h (1 Bft) S 176 0 min 0,000 mm 0,0 UV-I 0 W/m 6,5 C 13,9 C 6,4 km/h (2 Bft) 100,00 %
09.05.2019 00:18 13,8 C 13,9 C 12,8 C 61 % 1000,5 hPa 0,0 l/m 5,1 km/h (1 Bft) S 171 0 min 0,000 mm 0,0 UV-I 0 W/m 6,4 C 13,8 C 8,0 km/h (2 Bft) 97,87 %
09.05.2019 00:20 13,8 C 13,9 C 12,8 C 61 % 1000,5 hPa 0,0 l/m 4,3 km/h (1 Bft) S 177 0 min 0,000 mm 0,0 UV-I 0 W/m 6,4 C 13,8 C 8,0 km/h (2 Bft) 97,37 %
09.05.2019 00:22 13,8 C 13,9 C 12,8 C 61 % 1000,4 hPa 0,0 l/m 3,6 km/h (1 Bft) S-SO 158 0 min 0,000 mm 0,0 UV-I 0 W/m 6,4 C 13,8 C 4,8 km/h (1 Bft) 100,00 %
09.05.2019 00:24 13,7 C 13,9 C 12,2 C 63 % 1000,4 hPa 0,0 l/m 4,9 km/h (1 Bft) S-SO 159 0 min 0,000 mm 0,0 UV-I 0 W/m 6,8 C 13,7 C 8,0 km/h (2 Bft) 98,00 %
09.05.2019 00:26 13,6 C 13,9 C 12,2 C 63 % 1000,4 hPa 0,0 l/m 6,5 km/h (2 Bft) S-SO 153 0 min 0,000 mm 0,0 UV-I 0 W/m 6,7 C 13,6 C 8,0 km/h (2 Bft) 100,00 %
09.05.2019 00:28 13,6 C 13,9 C 12,8 C 63 % 1000,4 hPa 0,0 l/m 5,5 km/h (1 Bft) S 173 0 min 0,000 mm 0,0 UV-I 0 W/m 6,7 C 13,6 C 9,7 km/h (2 Bft) 98,08 %
09.05.2019 00:30 13,7 C 13,9 C 12,8 C 63 % 1000,5 hPa 0,0 l/m 5,4 km/h (1 Bft) S 178 0 min 0,000 mm 0,0 UV-I 0 W/m 6,8 C 13,7 C 9,7 km/h (2 Bft) 100,00 %
09.05.2019 00:32 13,8 C 13,9 C 12,8 C 61 % 1000,5 hPa 0,0 l/m 5,9 km/h (2 Bft) S-SW 192 0 min 0,000 mm 0,0 UV-I 0 W/m 6,4 C 13,8 C 8,0 km/h (2 Bft) 100,00 %
09.05.2019 00:34 13,8 C 13,9 C 12,8 C 61 % 1000,5 hPa 0,0 l/m 4,3 km/h (1 Bft) S-SW 206 0 min 0,000 mm 0,0 UV-I 0 W/m 6,4 C 13,8 C 6,4 km/h (2 Bft) 100,00 %
09.05.2019 00:36 13,7 C 13,9 C 12,8 C 63 % 1000,5 hPa 0,0 l/m 4,0 km/h (1 Bft) S-SW 207 0 min 0,000 mm 0,0 UV-I 0 W/m 6,8 C 13,7 C 6,4 km/h (2 Bft) 100,00 %
09.05.2019 00:38 13,6 C 13,9 C 12,2 C 63 % 1000,5 hPa 0,0 l/m 3,1 km/h (1 Bft) S-SW 207 0 min 0,000 mm 0,0 UV-I 0 W/m 6,7 C 13,6 C 4,8 km/h (1 Bft) 98,21 %
09.05.2019 00:40 13,4 C 13,9 C 12,2 C 64 % 1000,5 hPa 0,0 l/m 4,1 km/h (1 Bft) S-SW 206 0 min 0,000 mm 0,0 UV-I 0 W/m 6,7 C 13,4 C 4,8 km/h (1 Bft) 100,00 %
09.05.2019 00:42 13,4 C 13,9 C 12,2 C 64 % 1000,5 hPa 0,0 l/m 3,3 km/h (1 Bft) S-SW 205 0 min 0,000 mm 0,0 UV-I 0 W/m 6,7 C 13,4 C 6,4 km/h (2 Bft) 100,00 %
09.05.2019 00:44 13,4 C 13,9 C 12,2 C 64 % 1000,5 hPa 0,0 l/m 3,9 km/h (1 Bft) S-SW 204 0 min 0,000 mm 0,0 UV-I 0 W/m 6,7 C 13,4 C 4,8 km/h (1 Bft) 94,92 %
09.05.2019 00:46 13,4 C 13,9 C 12,2 C 64 % 1000,5 hPa 0,0 l/m 3,3 km/h (1 Bft) S-SW 203 0 min 0,000 mm 0,0 UV-I 0 W/m 6,7 C 13,4 C 4,8 km/h (1 Bft) 100,00 %
09.05.2019 00:48 13,4 C 13,9 C 11,7 C 65 % 1000,5 hPa 0,0 l/m 2,4 km/h (1 Bft) S-SW 204 0 min 0,000 mm 0,0 UV-I 0 W/m 7,0 C 13,4 C 3,2 km/h (1 Bft) 96,77 %
09.05.2019 00:50 13,3 C 13,9 C 11,7 C 65 % 1000,6 hPa 0,0 l/m 1,4 km/h (1 Bft) S-SW 204 0 min 0,000 mm 0,0 UV-I 0 W/m 6,9 C 13,3 C 3,2 km/h (1 Bft) 96,23 %
09.05.2019 00:52 13,3 C 13,9 C 11,7 C 65 % 1000,6 hPa 0,0 l/m 0,9 km/h (0 Bft) S-SW 204 0 min 0,000 mm 0,0 UV-I 0 W/m 6,9 C 13,3 C 1,6 km/h (1 Bft) 97,56 %
09.05.2019 00:54 13,2 C 13,9 C 11,7 C 66 % 1000,5 hPa 0,0 l/m 0,2 km/h (0 Bft) S-SW 204 0 min 0,000 mm 0,0 UV-I 0 W/m 7,0 C 13,2 C 1,6 km/h (1 Bft) 97,56 %
09.05.2019 00:56 13,1 C 13,9 C 11,7 C 66 % 1000,5 hPa 0,0 l/m 0,0 km/h (0 Bft) S-SW 204 0 min 0,000 mm 0,0 UV-I 0 W/m 6,9 C 13,1 C 0,0 km/h (0 Bft) 98,39 %
09.05.2019 00:58 12,8 C 13,9 C 11,7 C 69 % 1000,5 hPa 0,0 l/m 0,9 km/h (0 Bft) S-SW 204 0 min 0,000 mm 0,0 UV-I 0 W/m 7,3 C 12,8 C 3,2 km/h (1 Bft) 97,37 %
09.05.2019 01:00 12,7 C 13,9 C 11,1 C 69 % 1000,5 hPa 0,0 l/m 2,6 km/h (1 Bft) S-SW 203 0 min 0,025 mm 0,0 UV-I 0 W/m 7,2 C 12,7 C 4,8 km/h (1 Bft) 98,00 %
09.05.2019 01:02 12,6 C 13,9 C 11,1 C 71 % 1000,6 hPa 0,0 l/m 3,9 km/h (1 Bft) S-SW 202 0 min 0,000 mm 0,0 UV-I 0 W/m 7,5 C 12,6 C 4,8 km/h (1 Bft) 95,74 %
09.05.2019 01:04 12,4 C 13,9 C 11,1 C 72 % 1000,6 hPa 0,0 l/m 3,2 km/h (1 Bft) S-SW 207 0 min 0,000 mm 0,0 UV-I 0 W/m 7,5 C 12,4 C 4,8 km/h (1 Bft) 98,00 %
09.05.2019 01:06 12,2 C 13,9 C 11,1 C 73 % 1000,6 hPa 0,0 l/m 3,3 km/h (1 Bft) N 5 0 min 0,000 mm 0,0 UV-I 0 W/m 7,5 C 12,2 C 4,8 km/h (1 Bft) 94,87 %
09.05.2019 01:08 12,2 C 13,9 C 11,1 C 74 % 1000,6 hPa 0,0 l/m 3,9 km/h (1 Bft) N 5 0 min 0,000 mm 0,0 UV-I 0 W/m 7,7 C 12,2 C 4,8 km/h (1 Bft) 96,00 %
09.05.2019 01:10 12,1 C 13,9 C 11,1 C 74 % 1000,6 hPa 0,0 l/m 3,3 km/h (1 Bft) N 5 0 min 0,000 mm 0,0 UV-I 0 W/m 7,6 C 12,1 C 4,8 km/h (1 Bft) 95,74 %
09.05.2019 01:12 12,2 C 13,9 C 11,1 C 73 % 1000,6 hPa 0,0 l/m 2,6 km/h (1 Bft) N 5 0 min 0,000 mm 0,0 UV-I 0 W/m 7,5 C 12,2 C 3,2 km/h (1 Bft) 92,68 %
09.05.2019 01:14 12,3 C 13,9 C 11,1 C 72 % 1000,7 hPa 0,0 l/m 1,2 km/h (1 Bft) N 5 0 min 0,000 mm 0,0 UV-I 0 W/m 7,4 C 12,3 C 3,2 km/h (1 Bft) 96,00 %
09.05.2019 01:16 12,4 C 13,9 C 11,1 C 71 % 1000,7 hPa 0,0 l/m 1,0 km/h (0 Bft) N 5 0 min 0,000 mm 0,0 UV-I 0 W/m 7,3 C 12,4 C 1,6 km/h (1 Bft) 96,23 %
09.05.2019 01:18 12,6 C 13,9 C 11,1 C 71 % 1000,7 hPa 0,0 l/m 1,6 km/h (1 Bft) N 5 0 min 0,000 mm 0,0 UV-I 0 W/m 7,5 C 12,6 C 3,2 km/h (1 Bft) 95,74 %
09.05.2019 01:20 12,6 C 13,9 C 11,1 C 70 % 1000,7 hPa 0,0 l/m 2,9 km/h (1 Bft) N 5 0 min 0,000 mm 0,0 UV-I 0 W/m 7,3 C 12,6 C 3,2 km/h (1 Bft) 95,45 %
09.05.2019 01:22 12,6 C 13,9 C 11,1 C 70 % 1000,8 hPa 0,0 l/m 3,1 km/h (1 Bft) W-NW 285 0 min 0,000 mm 0,0 UV-I 0 W/m 7,3 C 12,6 C 4,8 km/h (1 Bft) 98,00 %
09.05.2019 01:24 12,6 C 13,9 C 11,1 C 72 % 1000,8 hPa 0,0 l/m 3,2 km/h (1 Bft) W-NW 285 0 min 0,000 mm 0,0 UV-I 0 W/m 7,7 C 12,6 C 4,8 km/h (1 Bft) 97,14 %
09.05.2019 01:26 12,5 C 13,9 C 11,1 C 71 % 1000,8 hPa 0,0 l/m 3,0 km/h (1 Bft) W-NW 285 0 min 0,000 mm 0,0 UV-I 0 W/m 7,4 C 12,5 C 4,8 km/h (1 Bft) 98,31 %
09.05.2019 01:28 12,5 C 13,9 C 11,1 C 72 % 1000,9 hPa 0,0 l/m 2,4 km/h (1 Bft) W-NW 288 0 min 0,000 mm 0,0 UV-I 0 W/m 7,6 C 12,5 C 4,8 km/h (1 Bft) 100,00 %
09.05.2019 01:30 12,4 C 13,9 C 11,1 C 72 % 1000,9 hPa 0,0 l/m 1,0 km/h (0 Bft) W-NW 288 0 min 0,000 mm 0,0 UV-I 0 W/m 7,5 C 12,4 C 3,2 km/h (1 Bft) 95,74 %
09.05.2019 01:32 12,4 C 13,9 C 11,1 C 72 % 1000,9 hPa 0,0 l/m 2,6 km/h (1 Bft) W-NW 287 0 min 0,000 mm 0,0 UV-I 0 W/m 7,5 C 12,4 C 3,2 km/h (1 Bft) 97,37 %
09.05.2019 01:34 12,4 C 13,9 C 11,1 C 73 % 1000,9 hPa 0,0 l/m 0,8 km/h (0 Bft) W-NW 288 0 min 0,000 mm 0,0 UV-I 0 W/m 7,7 C 12,4 C 3,2 km/h (1 Bft) 100,00 %
09.05.2019 01:36 12,4 C 13,9 C 11,1 C 73 % 1001,1 hPa 0,0 l/m 5,3 km/h (1 Bft) W-SW 252 0 min 0,000 mm 0,0 UV-I 0 W/m 7,7 C 12,4 C 9,7 km/h (2 Bft) 100,00 %
09.05.2019 01:38 12,3 C 13,9 C 11,1 C 73 % 1000,9 hPa 0,0 l/m 2,2 km/h (1 Bft) W-SW 252 0 min 0,000 mm 0,0 UV-I 0 W/m 7,6 C 12,3 C 6,4 km/h (2 Bft) 100,00 %
09.05.2019 01:40 12,3 C 13,9 C 11,1 C 73 % 1001,0 hPa 0,0 l/m 3,4 km/h (1 Bft) W-SW 256 0 min 0,000 mm 0,0 UV-I 0 W/m 7,6 C 12,3 C 6,4 km/h (2 Bft) 100,00 %
09.05.2019 01:42 12,3 C 13,9 C 11,1 C 73 % 1001,0 hPa 0,0 l/m 3,6 km/h (1 Bft) W 267 0 min 0,000 mm 0,0 UV-I 0 W/m 7,6 C 12,3 C 9,7 km/h (2 Bft) 100,00 %
09.05.2019 01:44 12,4 C 13,9 C 11,1 C 73 % 1001,1 hPa 0,0 l/m 3,2 km/h (1 Bft) SW 217 0 min 0,000 mm 0,0 UV-I 0 W/m 7,7 C 12,4 C 6,4 km/h (2 Bft) 100,00 %
09.05.2019 01:46 12,4 C 13,9 C 11,1 C 73 % 1001,1 hPa 0,0 l/m 7,4 km/h (2 Bft) SW 222 0 min 0,000 mm 0,0 UV-I 0 W/m 7,7 C 11,7 C 12,9 km/h (3 Bft) 100,00 %
09.05.2019 01:48 12,6 C 13,9 C 11,7 C 72 % 1001,2 hPa 0,0 l/m 8,5 km/h (2 Bft) SW 235 0 min 0,000 mm 0,0 UV-I 0 W/m 7,7 C 11,3 C 17,7 km/h (3 Bft) 100,00 %
09.05.2019 01:50 12,6 C 13,9 C 11,7 C 72 % 1001,1 hPa 0,0 l/m 11,2 km/h (2 Bft) SW 216 0 min 0,000 mm 0,0 UV-I 0 W/m 7,7 C 9,9 C 17,7 km/h (3 Bft) 100,00 %
09.05.2019 01:52 12,7 C 13,9 C 11,7 C 72 % 1001,2 hPa 0,0 l/m 11,8 km/h (2 Bft) W-SW 240 0 min 0,000 mm 0,0 UV-I 0 W/m 7,8 C 9,7 C 19,3 km/h (3 Bft) 97,37 %
09.05.2019 01:54 12,8 C 13,9 C 11,7 C 71 % 1001,3 hPa 0,0 l/m 10,3 km/h (2 Bft) SW 227 0 min 0,000 mm 0,0 UV-I 0 W/m 7,7 C 10,5 C 16,1 km/h (3 Bft) 97,73 %
09.05.2019 01:56 12,8 C 13,9 C 11,7 C 72 % 1001,2 hPa 0,0 l/m 10,5 km/h (2 Bft) SW 231 0 min 0,000 mm 0,0 UV-I 0 W/m 7,9 C 10,4 C 19,3 km/h (3 Bft) 100,00 %
09.05.2019 01:58 12,7 C 13,9 C 11,7 C 72 % 1001,2 hPa 0,0 l/m 9,8 km/h (2 Bft) W-SW 240 0 min 0,000 mm 0,0 UV-I 0 W/m 7,8 C 10,7 C 14,5 km/h (3 Bft) 96,00 %
09.05.2019 02:00 12,7 C 13,3 C 11,7 C 73 % 1001,3 hPa 0,0 l/m 10,5 km/h (2 Bft) W-SW 243 0 min 0,026 mm 0,0 UV-I 0 W/m 8,0 C 10,3 C 14,5 km/h (3 Bft) 100,00 %
09.05.2019 02:02 12,6 C 13,9 C 11,7 C 74 % 1001,4 hPa 0,0 l/m 12,8 km/h (3 Bft) W-SW 257 0 min 0,000 mm 0,0 UV-I 0 W/m 8,1 C 9,2 C 17,7 km/h (3 Bft) 100,00 %
09.05.2019 02:04 12,6 C 13,3 C 11,7 C 74 % 1001,4 hPa 0,0 l/m 10,8 km/h (2 Bft) W 277 0 min 0,000 mm 0,0 UV-I 0 W/m 8,1 C 10,1 C 20,9 km/h (4 Bft) 100,00 %
09.05.2019 02:06 12,5 C 13,3 C 11,7 C 75 % 1001,4 hPa 0,0 l/m 12,5 km/h (3 Bft) W-SW 255 0 min 0,000 mm 0,0 UV-I 0 W/m 8,2 C 9,2 C 19,3 km/h (3 Bft) 100,00 %
09.05.2019 02:08 12,5 C 13,3 C 11,7 C 75 % 1001,5 hPa 0,0 l/m 11,8 km/h (2 Bft) W-SW 246 0 min 0,000 mm 0,0 UV-I 0 W/m 8,2 C 9,5 C 16,1 km/h (3 Bft) 100,00 %
09.05.2019 02:10 12,4 C 13,3 C 11,7 C 76 % 1001,4 hPa 0,0 l/m 12,2 km/h (2 Bft) SW 224 0 min 0,000 mm 0,0 UV-I 0 W/m 8,3 C 9,2 C 17,7 km/h (3 Bft) 97,37 %
09.05.2019 02:12 12,4 C 13,3 C 11,7 C 77 % 1001,5 hPa 0,0 l/m 10,6 km/h (2 Bft) W 261 0 min 0,000 mm 0,0 UV-I 0 W/m 8,5 C 9,9 C 16,1 km/h (3 Bft) 100,00 %
09.05.2019 02:14 12,3 C 13,3 C 11,7 C 77 % 1001,5 hPa 0,0 l/m 11,4 km/h (2 Bft) W 262 0 min 0,000 mm 0,0 UV-I 0 W/m 8,4 C 9,4 C 17,7 km/h (3 Bft) 97,87 %
09.05.2019 02:16 12,3 C 13,3 C 11,7 C 77 % 1001,6 hPa 0,0 l/m 13,5 km/h (3 Bft) W 263 0 min 0,000 mm 0,0 UV-I 0 W/m 8,4 C 8,5 C 19,3 km/h (3 Bft) 100,00 %
09.05.2019 02:18 12,3 C 13,9 C 11,7 C 77 % 1001,7 hPa 0,0 l/m 12,2 km/h (2 Bft) W 269 0 min 0,000 mm 0,0 UV-I 0 W/m 8,4 C 9,1 C 20,9 km/h (4 Bft) 98,11 %
09.05.2019 02:20 12,3 C 13,9 C 11,7 C 78 % 1001,8 hPa 0,0 l/m 15,1 km/h (3 Bft) W 267 0 min 0,000 mm 0,0 UV-I 0 W/m 8,6 C 7,9 C 22,5 km/h (4 Bft) 100,00 %
09.05.2019 02:22 12,3 C 13,3 C 11,7 C 78 % 1001,9 hPa 0,0 l/m 16,9 km/h (3 Bft) W 268 0 min 0,000 mm 0,0 UV-I 0 W/m 8,6 C 7,2 C 24,1 km/h (4 Bft) 100,00 %
09.05.2019 02:24 12,3 C 13,3 C 11,7 C 79 % 1001,9 hPa 0,0 l/m 12,8 km/h (3 Bft) W 261 0 min 0,000 mm 0,0 UV-I 0 W/m 8,8 C 8,8 C 20,9 km/h (4 Bft) 100,00 %
09.05.2019 02:26 12,4 C 13,3 C 11,7 C 78 % 1001,9 hPa 0,0 l/m 17,7 km/h (3 Bft) W-NW 286 0 min 0,000 mm 0,0 UV-I 0 W/m 8,7 C 7,1 C 27,4 km/h (4 Bft) 100,00 %
09.05.2019 02:28 12,4 C 13,3 C 12,2 C 76 % 1001,9 hPa 0,0 l/m 23,6 km/h (4 Bft) W-NW 286 0 min 0,000 mm 0,0 UV-I 0 W/m 8,3 C 5,4 C 35,4 km/h (5 Bft) 97,87 %
09.05.2019 02:30 12,5 C 13,3 C 12,2 C 76 % 1001,9 hPa 0,0 l/m 22,4 km/h (4 Bft) W 259 0 min 0,000 mm 0,0 UV-I 0 W/m 8,4 C 5,9 C 30,6 km/h (5 Bft) 98,00 %
09.05.2019 02:32 12,6 C 13,3 C 12,2 C 75 % 1002,0 hPa 0,0 l/m 22,4 km/h (4 Bft) W 267 0 min 0,000 mm 0,0 UV-I 0 W/m 8,3 C 6,0 C 33,8 km/h (5 Bft) 97,37 %
09.05.2019 02:34 12,6 C 13,3 C 12,2 C 73 % 1001,9 hPa 0,0 l/m 24,8 km/h (4 Bft) W-SW 244 0 min 0,000 mm 0,0 UV-I 0 W/m 7,9 C 5,4 C 40,2 km/h (6 Bft) 98,00 %
09.05.2019 02:36 12,7 C 13,3 C 12,2 C 73 % 1001,9 hPa 0,0 l/m 25,2 km/h (4 Bft) W-SW 240 0 min 0,000 mm 0,0 UV-I 0 W/m 8,0 C 5,4 C 45,1 km/h (6 Bft) 96,43 %
09.05.2019 02:38 12,7 C 13,3 C 12,2 C 73 % 1002,1 hPa 0,0 l/m 21,1 km/h (4 Bft) W 263 0 min 0,000 mm 0,0 UV-I 0 W/m 8,0 C 6,5 C 27,4 km/h (4 Bft) 97,56 %
09.05.2019 02:40 12,6 C 13,3 C 12,2 C 74 % 1002,1 hPa 0,0 l/m 19,7 km/h (3 Bft) W-SW 255 0 min 0,000 mm 0,0 UV-I 0 W/m 8,1 C 6,7 C 33,8 km/h (5 Bft) 98,11 %
09.05.2019 02:42 12,6 C 13,3 C 12,2 C 74 % 1002,1 hPa 0,0 l/m 21,5 km/h (4 Bft) W 277 0 min 0,000 mm 0,0 UV-I 0 W/m 8,1 C 6,2 C 32,2 km/h (5 Bft) 94,74 %
09.05.2019 02:44 12,6 C 13,3 C 12,2 C 74 % 1002,1 hPa 0,0 l/m 18,0 km/h (3 Bft) W 274 0 min 0,000 mm 0,0 UV-I 0 W/m 8,1 C 7,3 C 30,6 km/h (5 Bft) 98,00 %
09.05.2019 02:46 12,5 C 13,3 C 12,2 C 74 % 1002,2 hPa 0,0 l/m 26,8 km/h (4 Bft) W 270 0 min 0,000 mm 0,0 UV-I 0 W/m 8,0 C 4,8 C 41,8 km/h (6 Bft) 94,00 %
09.05.2019 02:48 12,4 C 13,3 C 12,2 C 74 % 1002,3 hPa 0,0 l/m 20,4 km/h (4 Bft) W 273 0 min 0,000 mm 0,0 UV-I 0 W/m 7,9 C 6,3 C 30,6 km/h (5 Bft) 95,74 %
09.05.2019 02:50 12,4 C 13,3 C 12,2 C 74 % 1002,2 hPa 0,0 l/m 20,3 km/h (4 Bft) W 280 0 min 0,000 mm 0,0 UV-I 0 W/m 7,9 C 6,3 C 37,0 km/h (5 Bft) 95,74 %
09.05.2019 02:52 12,3 C 13,3 C 12,2 C 75 % 1002,4 hPa 0,0 l/m 28,2 km/h (4 Bft) W 271 0 min 0,000 mm 0,0 UV-I 0 W/m 8,0 C 4,2 C 48,3 km/h (6 Bft) 95,24 %
09.05.2019 02:54 12,3 C 13,3 C 11,7 C 75 % 1002,3 hPa 0,0 l/m 23,3 km/h (4 Bft) W-NW 282 0 min 0,000 mm 0,0 UV-I 0 W/m 8,0 C 5,4 C 30,6 km/h (5 Bft) 98,11 %
09.05.2019 02:56 12,2 C 13,3 C 11,7 C 75 % 1002,3 hPa 0,0 l/m 18,2 km/h (3 Bft) W-SW 250 0 min 0,000 mm 0,0 UV-I 0 W/m 7,9 C 6,7 C 24,1 km/h (4 Bft) 97,37 %
09.05.2019 02:58 12,2 C 13,3 C 11,7 C 76 % 1002,3 hPa 0,0 l/m 21,8 km/h (4 Bft) W-SW 257 0 min 0,000 mm 0,0 UV-I 0 W/m 8,1 C 5,6 C 33,8 km/h (5 Bft) 97,22 %
09.05.2019 03:00 12,1 C 13,3 C 11,7 C 77 % 1002,4 hPa 0,0 l/m 21,0 km/h (4 Bft) W 269 0 min 0,051 mm 0,0 UV-I 0 W/m 8,2 C 5,7 C 32,2 km/h (5 Bft) 96,72 %
09.05.2019 03:02 12,0 C 13,3 C 11,7 C 77 % 1002,4 hPa 0,0 l/m 18,9 km/h (3 Bft) W-SW 248 0 min 0,000 mm 0,0 UV-I 0 W/m 8,1 C 6,2 C 32,2 km/h (5 Bft) 97,92 %
09.05.2019 03:04 11,9 C 13,3 C 11,1 C 78 % 1002,4 hPa 0,0 l/m 17,9 km/h (3 Bft) W 260 0 min 0,000 mm 0,0 UV-I 0 W/m 8,2 C 6,4 C 33,8 km/h (5 Bft) 91,49 %
09.05.2019 03:06 11,8 C 13,3 C 11,1 C 78 % 1002,4 hPa 0,0 l/m 21,7 km/h (4 Bft) W 263 0 min 0,000 mm 0,0 UV-I 0 W/m 8,1 C 5,1 C 35,4 km/h (5 Bft) 96,00 %
09.05.2019 03:08 11,8 C 13,3 C 10,6 C 79 % 1002,5 hPa 0,0 l/m 20,5 km/h (4 Bft) W 273 0 min 0,000 mm 0,0 UV-I 0 W/m 8,3 C 5,5 C 25,7 km/h (4 Bft) 92,11 %
09.05.2019 03:10 11,7 C 13,3 C 10,6 C 80 % 1002,6 hPa 0,0 l/m 15,0 km/h (3 Bft) W 261 0 min 0,000 mm 0,0 UV-I 0 W/m 8,4 C 7,2 C 22,5 km/h (4 Bft) 96,43 %
09.05.2019 03:12 11,5 C 13,3 C 10,0 C 81 % 1002,5 hPa 0,0 l/m 15,0 km/h (3 Bft) W-SW 256 0 min 0,000 mm 0,0 UV-I 0 W/m 8,4 C 7,0 C 25,7 km/h (4 Bft) 91,43 %
09.05.2019 03:14 11,4 C 13,3 C 10,0 C 81 % 1002,6 hPa 0,0 l/m 17,3 km/h (3 Bft) W 275 0 min 0,000 mm 0,0 UV-I 0 W/m 8,3 C 6,0 C 25,7 km/h (4 Bft) 96,23 %
09.05.2019 03:16 11,3 C 13,3 C 10,0 C 82 % 1002,6 hPa 0,0 l/m 17,0 km/h (3 Bft) W 267 0 min 0,000 mm 0,0 UV-I 0 W/m 8,3 C 6,0 C 30,6 km/h (5 Bft) 95,74 %
09.05.2019 03:18 11,2 C 13,3 C 10,0 C 83 % 1002,6 hPa 0,0 l/m 14,7 km/h (3 Bft) W-SW 248 0 min 0,000 mm 0,0 UV-I 0 W/m 8,4 C 6,7 C 24,1 km/h (4 Bft) 93,62 %
09.05.2019 03:20 11,2 C 13,3 C 10,0 C 84 % 1002,6 hPa 0,0 l/m 15,8 km/h (3 Bft) W 264 0 min 0,000 mm 0,0 UV-I 0 W/m 8,6 C 6,3 C 22,5 km/h (4 Bft) 97,87 %
09.05.2019 03:22 11,1 C 13,3 C 10,0 C 84 % 1002,6 hPa 0,0 l/m 13,3 km/h (3 Bft) W-SW 257 0 min 0,000 mm 0,0 UV-I 0 W/m 8,5 C 7,2 C 22,5 km/h (4 Bft) 98,11 %
09.05.2019 03:24 11,1 C 13,3 C 10,0 C 85 % 1002,6 hPa 0,0 l/m 8,9 km/h (2 Bft) W-SW 245 0 min 0,000 mm 0,0 UV-I 0 W/m 8,7 C 9,4 C 12,9 km/h (3 Bft) 92,11 %
09.05.2019 03:26 11,0 C 13,3 C 10,0 C 85 % 1002,6 hPa 0,0 l/m 12,4 km/h (3 Bft) W 261 0 min 0,000 mm 0,0 UV-I 0 W/m 8,6 C 7,5 C 19,3 km/h (3 Bft) 94,34 %
09.05.2019 03:28 10,9 C 13,3 C 10,0 C 85 % 1002,7 hPa 0,0 l/m 12,6 km/h (3 Bft) W-SW 238 0 min 0,000 mm 0,0 UV-I 0 W/m 8,5 C 7,3 C 24,1 km/h (4 Bft) 100,00 %
09.05.2019 03:30 10,9 C 13,3 C 10,0 C 86 % 1002,7 hPa 0,0 l/m 11,2 km/h (2 Bft) W 271 0 min 0,000 mm 0,0 UV-I 0 W/m 8,7 C 7,9 C 16,1 km/h (3 Bft) 93,75 %
09.05.2019 03:32 10,8 C 13,3 C 10,0 C 86 % 1002,7 hPa 0,0 l/m 8,9 km/h (2 Bft) W 271 0 min 0,000 mm 0,0 UV-I 0 W/m 8,6 C 9,1 C 12,9 km/h (3 Bft) 97,44 %
09.05.2019 03:34 10,8 C 13,3 C 10,0 C 86 % 1002,7 hPa 0,0 l/m 9,3 km/h (2 Bft) W 265 0 min 0,000 mm 0,0 UV-I 0 W/m 8,6 C 8,9 C 14,5 km/h (3 Bft) 97,87 %
09.05.2019 03:36 10,8 C 13,3 C 10,0 C 87 % 1002,7 hPa 0,0 l/m 11,5 km/h (2 Bft) W-SW 243 0 min 0,000 mm 0,0 UV-I 0 W/m 8,7 C 7,7 C 17,7 km/h (3 Bft) 98,11 %
09.05.2019 03:38 10,7 C 13,3 C 10,0 C 87 % 1002,8 hPa 0,0 l/m 12,2 km/h (2 Bft) W 266 0 min 0,000 mm 0,0 UV-I 0 W/m 8,6 C 7,2 C 14,5 km/h (3 Bft) 93,18 %
09.05.2019 03:40 10,7 C 13,3 C 10,0 C 87 % 1002,8 hPa 0,0 l/m 8,2 km/h (2 Bft) W-SW 257 0 min 0,000 mm 0,0 UV-I 0 W/m 8,6 C 9,5 C 14,5 km/h (3 Bft) 96,23 %
09.05.2019 03:42 10,6 C 13,3 C 10,0 C 88 % 1002,8 hPa 0,0 l/m 12,6 km/h (3 Bft) SW 227 0 min 0,000 mm 0,0 UV-I 0 W/m 8,7 C 6,9 C 16,1 km/h (3 Bft) 96,55 %
09.05.2019 03:44 10,6 C 13,3 C 10,0 C 88 % 1002,8 hPa 0,0 l/m 12,1 km/h (2 Bft) W-NW 286 0 min 0,000 mm 0,0 UV-I 0 W/m 8,7 C 7,2 C 22,5 km/h (4 Bft) 96,77 %
09.05.2019 03:46 10,5 C 13,3 C 10,0 C 88 % 1002,8 hPa 0,2 l/m 13,4 km/h (3 Bft) W-SW 242 0 min 0,000 mm 0,0 UV-I 0 W/m 8,6 C 6,4 C 19,3 km/h (3 Bft) 96,23 %
09.05.2019 03:48 10,5 C 13,3 C 10,0 C 88 % 1002,8 hPa 0,0 l/m 11,4 km/h (2 Bft) W 259 0 min 0,000 mm 0,0 UV-I 0 W/m 8,6 C 7,4 C 16,1 km/h (3 Bft) 95,45 %
09.05.2019 03:50 10,4 C 13,3 C 10,0 C 89 % 1002,9 hPa 0,0 l/m 10,9 km/h (2 Bft) W 277 0 min 0,000 mm 0,0 UV-I 0 W/m 8,7 C 7,5 C 16,1 km/h (3 Bft) 100,00 %
09.05.2019 03:52 10,4 C 13,3 C 10,0 C 89 % 1002,8 hPa 0,0 l/m 11,1 km/h (2 Bft) W-SW 246 0 min 0,000 mm 0,0 UV-I 0 W/m 8,7 C 7,4 C 14,5 km/h (3 Bft) 96,00 %
09.05.2019 03:54 10,3 C 13,3 C 9,4 C 89 % 1002,8 hPa 0,0 l/m 8,4 km/h (2 Bft) W-SW 258 0 min 0,000 mm 0,0 UV-I 0 W/m 8,6 C 8,9 C 12,9 km/h (3 Bft) 96,00 %
09.05.2019 03:56 10,3 C 13,3 C 9,4 C 89 % 1002,9 hPa 0,0 l/m 10,2 km/h (2 Bft) W-SW 247 0 min 0,000 mm 0,0 UV-I 0 W/m 8,6 C 7,8 C 16,1 km/h (3 Bft) 93,62 %
09.05.2019 03:58 10,3 C 13,3 C 9,4 C 89 % 1002,9 hPa 0,2 l/m 10,1 km/h (2 Bft) W 267 0 min 0,000 mm 0,0 UV-I 0 W/m 8,6 C 7,9 C 14,5 km/h (3 Bft) 92,11 %
09.05.2019 04:00 10,3 C 13,3 C 9,4 C 90 % 1002,9 hPa 0,0 l/m 13,7 km/h (3 Bft) W 260 0 min 0,025 mm 0,0 UV-I 0 W/m 8,7 C 6,1 C 19,3 km/h (3 Bft) 94,00 %
09.05.2019 04:02 10,2 C 13,3 C 9,4 C 90 % 1002,9 hPa 0,0 l/m 10,2 km/h (2 Bft) W-SW 257 0 min 0,000 mm 0,0 UV-I 0 W/m 8,6 C 7,7 C 17,7 km/h (3 Bft) 97,14 %
09.05.2019 04:04 10,2 C 13,3 C 9,4 C 90 % 1002,9 hPa 0,0 l/m 12,4 km/h (3 Bft) W 275 0 min 0,000 mm 0,0 UV-I 0 W/m 8,6 C 6,5 C 20,9 km/h (4 Bft) 96,00 %
09.05.2019 04:06 10,2 C 13,3 C 9,4 C 90 % 1002,9 hPa 0,0 l/m 13,9 km/h (3 Bft) W-SW 250 0 min 0,000 mm 0,0 UV-I 0 W/m 8,6 C 5,8 C 22,5 km/h (4 Bft) 94,74 %
09.05.2019 04:08 10,2 C 13,3 C 9,4 C 90 % 1002,9 hPa 0,2 l/m 15,3 km/h (3 Bft) W-SW 238 0 min 0,000 mm 0,0 UV-I 0 W/m 8,6 C 5,3 C 22,5 km/h (4 Bft) 100,00 %
09.05.2019 04:10 10,2 C 13,3 C 9,4 C 90 % 1002,9 hPa 0,0 l/m 14,5 km/h (3 Bft) SW 229 0 min 0,000 mm 0,0 UV-I 0 W/m 8,6 C 5,6 C 20,9 km/h (4 Bft) 97,14 %
09.05.2019 04:12 10,2 C 13,3 C 9,4 C 90 % 1002,9 hPa 0,0 l/m 15,3 km/h (3 Bft) W 263 0 min 0,000 mm 0,0 UV-I 0 W/m 8,6 C 5,3 C 22,5 km/h (4 Bft) 96,00 %
09.05.2019 04:14 10,2 C 13,3 C 9,4 C 90 % 1002,9 hPa 0,2 l/m 12,1 km/h (2 Bft) W 278 0 min 0,000 mm 0,0 UV-I 0 W/m 8,6 C 6,7 C 16,1 km/h (3 Bft) 97,87 %
09.05.2019 04:16 10,1 C 13,3 C 9,4 C 90 % 1002,9 hPa 0,0 l/m 15,9 km/h (3 Bft) W 267 0 min 0,000 mm 0,0 UV-I 0 W/m 8,5 C 4,9 C 27,4 km/h (4 Bft) 100,00 %
09.05.2019 04:18 10,1 C 13,3 C 9,4 C 91 % 1003,0 hPa 0,0 l/m 14,0 km/h (3 Bft) W-SW 242 0 min 0,000 mm 0,0 UV-I 0 W/m 8,7 C 5,7 C 19,3 km/h (3 Bft) 100,00 %
09.05.2019 04:20 10,1 C 13,3 C 9,4 C 91 % 1003,0 hPa 0,0 l/m 13,6 km/h (3 Bft) W 278 0 min 0,000 mm 0,0 UV-I 0 W/m 8,7 C 5,9 C 17,7 km/h (3 Bft) 100,00 %
09.05.2019 04:22 10,1 C 13,3 C 9,4 C 91 % 1003,0 hPa 0,2 l/m 16,7 km/h (3 Bft) W 274 0 min 0,000 mm 0,0 UV-I 0 W/m 8,7 C 4,6 C 24,1 km/h (4 Bft) 100,00 %
09.05.2019 04:24 10,0 C 13,3 C 9,4 C 91 % 1003,0 hPa 0,0 l/m 13,5 km/h (3 Bft) W-SW 247 0 min 0,000 mm 0,0 UV-I 0 W/m 8,6 C 5,8 C 20,9 km/h (4 Bft) 100,00 %
09.05.2019 04:26 9,9 C 13,3 C 9,4 C 91 % 1003,0 hPa 0,2 l/m 13,3 km/h (3 Bft) W 265 0 min 0,000 mm 0,0 UV-I 0 W/m 8,5 C 5,8 C 19,3 km/h (3 Bft) 97,87 %
09.05.2019 04:28 9,9 C 13,3 C 9,4 C 91 % 1002,9 hPa 0,0 l/m 15,1 km/h (3 Bft) SW 232 0 min 0,000 mm 0,0 UV-I 0 W/m 8,5 C 5,0 C 20,9 km/h (4 Bft) 100,00 %
09.05.2019 04:30 9,9 C 13,3 C 9,4 C 91 % 1002,9 hPa 0,0 l/m 16,5 km/h (3 Bft) W 273 0 min 0,000 mm 0,0 UV-I 0 W/m 8,5 C 4,4 C 22,5 km/h (4 Bft) 100,00 %
09.05.2019 04:32 9,8 C 13,3 C 9,4 C 91 % 1003,0 hPa 0,2 l/m 13,9 km/h (3 Bft) W-SW 253 0 min 0,000 mm 0,0 UV-I 0 W/m 8,4 C 5,4 C 19,3 km/h (3 Bft) 100,00 %
09.05.2019 04:34 9,8 C 13,3 C 9,4 C 91 % 1003,0 hPa 0,0 l/m 12,7 km/h (3 Bft) W-SW 246 0 min 0,000 mm 0,0 UV-I 0 W/m 8,4 C 5,9 C 17,7 km/h (3 Bft) 100,00 %
09.05.2019 04:36 9,8 C 13,3 C 9,4 C 91 % 1003,0 hPa 0,0 l/m 13,7 km/h (3 Bft) W-SW 257 0 min 0,000 mm 0,0 UV-I 0 W/m 8,4 C 5,5 C 17,7 km/h (3 Bft) 100,00 %
09.05.2019 04:38 9,7 C 13,3 C 9,4 C 92 % 1002,9 hPa 0,2 l/m 15,2 km/h (3 Bft) W 268 0 min 0,000 mm 0,0 UV-I 0 W/m 8,5 C 4,7 C 19,3 km/h (3 Bft) 100,00 %
09.05.2019 04:40 9,7 C 13,3 C 9,4 C 92 % 1003,0 hPa 0,0 l/m 11,2 km/h (2 Bft) W 265 0 min 0,000 mm 0,0 UV-I 0 W/m 8,5 C 6,6 C 17,7 km/h (3 Bft) 100,00 %
09.05.2019 04:42 9,7 C 13,3 C 9,4 C 92 % 1002,9 hPa 0,0 l/m 11,0 km/h (2 Bft) W 267 0 min 0,000 mm 0,0 UV-I 0 W/m 8,5 C 6,7 C 14,5 km/h (3 Bft) 100,00 %
09.05.2019 04:44 9,7 C 13,3 C 9,4 C 92 % 1002,9 hPa 0,2 l/m 12,4 km/h (3 Bft) W-SW 254 0 min 0,000 mm 0,0 UV-I 0 W/m 8,5 C 6,0 C 19,3 km/h (3 Bft) 98,11 %
09.05.2019 04:46 9,6 C 13,3 C 9,4 C 92 % 1002,9 hPa 0,0 l/m 13,2 km/h (3 Bft) W 275 0 min 0,000 mm 0,0 UV-I 0 W/m 8,4 C 5,5 C 17,7 km/h (3 Bft) 100,00 %
09.05.2019 04:48 9,6 C 13,3 C 9,4 C 92 % 1002,9 hPa 0,2 l/m 9,4 km/h (2 Bft) W 275 0 min 0,000 mm 0,0 UV-I 0 W/m 8,4 C 7,5 C 12,9 km/h (3 Bft) 96,23 %
09.05.2019 04:50 9,6 C 13,3 C 9,4 C 92 % 1002,9 hPa 0,0 l/m 13,0 km/h (3 Bft) W 268 0 min 0,000 mm 0,0 UV-I 0 W/m 8,4 C 5,6 C 20,9 km/h (4 Bft) 95,24 %
09.05.2019 04:52 9,5 C 13,3 C 8,9 C 92 % 1002,9 hPa 0,0 l/m 13,0 km/h (3 Bft) S-SW 200 0 min 0,000 mm 0,0 UV-I 0 W/m 8,3 C 5,4 C 19,3 km/h (3 Bft) 96,36 %
09.05.2019 04:54 9,4 C 13,3 C 8,9 C 92 % 1003,0 hPa 0,0 l/m 12,5 km/h (3 Bft) W-SW 241 0 min 0,000 mm 0,0 UV-I 0 W/m 8,2 C 5,6 C 19,3 km/h (3 Bft) 97,78 %
09.05.2019 04:56 9,4 C 13,3 C 8,9 C 92 % 1003,0 hPa 0,2 l/m 10,9 km/h (2 Bft) W 261 0 min 0,000 mm 0,0 UV-I 0 W/m 8,2 C 6,4 C 19,3 km/h (3 Bft) 97,37 %
09.05.2019 04:58 9,4 C 13,3 C 8,9 C 92 % 1003,1 hPa 0,0 l/m 12,7 km/h (3 Bft) W-SW 258 0 min 0,000 mm 0,0 UV-I 0 W/m 8,2 C 5,5 C 17,7 km/h (3 Bft) 95,74 %
09.05.2019 05:00 9,4 C 13,3 C 8,9 C 92 % 1003,2 hPa 0,2 l/m 11,8 km/h (2 Bft) W 259 0 min 0,025 mm 0,0 UV-I 0 W/m 8,2 C 5,9 C 16,1 km/h (3 Bft) 98,21 %
09.05.2019 05:02 9,4 C 13,3 C 8,9 C 92 % 1003,2 hPa 0,0 l/m 11,6 km/h (2 Bft) W-SW 241 0 min 0,000 mm 0,0 UV-I 0 W/m 8,2 C 6,0 C 17,7 km/h (3 Bft) 94,74 %
09.05.2019 05:04 9,4 C 13,3 C 8,9 C 92 % 1003,2 hPa 0,0 l/m 9,2 km/h (2 Bft) W 269 0 min 0,000 mm 0,0 UV-I 0 W/m 8,2 C 7,4 C 14,5 km/h (3 Bft) 96,43 %
09.05.2019 05:06 9,3 C 13,3 C 8,9 C 92 % 1003,1 hPa 0,2 l/m 11,3 km/h (2 Bft) W 265 0 min 0,000 mm 0,0 UV-I 0 W/m 8,1 C 6,1 C 16,1 km/h (3 Bft) 97,56 %
09.05.2019 05:08 9,3 C 13,3 C 8,9 C 92 % 1003,2 hPa 0,0 l/m 13,0 km/h (3 Bft) SW 217 0 min 0,000 mm 0,0 UV-I 0 W/m 8,1 C 5,2 C 19,3 km/h (3 Bft) 96,23 %
09.05.2019 05:10 9,3 C 13,3 C 8,9 C 92 % 1003,2 hPa 0,2 l/m 11,0 km/h (2 Bft) W 277 0 min 0,000 mm 0,0 UV-I 0 W/m 8,1 C 6,2 C 16,1 km/h (3 Bft) 95,74 %
09.05.2019 05:12 9,3 C 13,3 C 8,9 C 92 % 1003,1 hPa 0,0 l/m 8,8 km/h (2 Bft) W-SW 244 0 min 0,000 mm 0,0 UV-I 0 W/m 8,1 C 7,6 C 14,5 km/h (3 Bft) 97,87 %
09.05.2019 05:14 9,2 C 13,3 C 8,9 C 93 % 1003,1 hPa 0,0 l/m 8,8 km/h (2 Bft) W 277 0 min 0,000 mm 0,0 UV-I 0 W/m 8,1 C 7,5 C 12,9 km/h (3 Bft) 97,37 %
09.05.2019 05:16 9,2 C 13,3 C 8,9 C 93 % 1003,1 hPa 0,2 l/m 9,1 km/h (2 Bft) W-SW 238 0 min 0,000 mm 0,0 UV-I 0 W/m 8,1 C 7,3 C 12,9 km/h (3 Bft) 96,23 %
09.05.2019 05:18 9,2 C 13,3 C 8,9 C 93 % 1003,1 hPa 0,0 l/m 7,6 km/h (2 Bft) W-SW 240 0 min 0,000 mm 0,0 UV-I 0 W/m 8,1 C 8,3 C 12,9 km/h (3 Bft) 94,00 %
09.05.2019 05:20 9,2 C 13,3 C 8,9 C 93 % 1003,2 hPa 0,2 l/m 7,2 km/h (2 Bft) SW 231 0 min 0,000 mm 0,0 UV-I 0 W/m 8,1 C 8,6 C 12,9 km/h (3 Bft) 95,12 %
09.05.2019 05:22 9,2 C 13,3 C 8,9 C 93 % 1003,2 hPa 0,0 l/m 5,7 km/h (1 Bft) W-SW 254 0 min 0,000 mm 0,0 UV-I 0 W/m 8,1 C 9,2 C 6,4 km/h (2 Bft) 91,49 %
09.05.2019 05:24 9,2 C 13,3 C 8,9 C 93 % 1003,1 hPa 0,0 l/m 7,8 km/h (2 Bft) W-SW 249 0 min 0,000 mm 0,0 UV-I 0 W/m 8,1 C 8,2 C 12,9 km/h (3 Bft) 95,74 %
09.05.2019 05:26 9,2 C 13,3 C 8,9 C 93 % 1003,1 hPa 0,2 l/m 6,3 km/h (2 Bft) W-SW 240 0 min 0,000 mm 0,0 UV-I 0 W/m 8,1 C 9,2 C 9,7 km/h (2 Bft) 97,87 %
09.05.2019 05:28 9,2 C 13,3 C 8,9 C 93 % 1003,2 hPa 0,0 l/m 7,1 km/h (2 Bft) SW 229 0 min 0,000 mm 0,0 UV-I 0 W/m 8,1 C 8,7 C 12,9 km/h (3 Bft) 94,87 %
09.05.2019 05:30 9,2 C 13,3 C 8,9 C 93 % 1003,2 hPa 0,2 l/m 6,9 km/h (2 Bft) W-SW 254 0 min 0,000 mm 0,0 UV-I 0 W/m 8,1 C 8,8 C 12,9 km/h (3 Bft) 96,00 %
09.05.2019 05:32 9,2 C 13,3 C 8,9 C 94 % 1003,3 hPa 0,0 l/m 5,5 km/h (1 Bft) W-SW 242 0 min 0,000 mm 0,0 UV-I 0 W/m 8,3 C 9,2 C 8,0 km/h (2 Bft) 96,00 %
09.05.2019 05:34 9,2 C 13,3 C 8,9 C 94 % 1003,3 hPa 0,0 l/m 7,0 km/h (2 Bft) SW 227 0 min 0,000 mm 0,0 UV-I 0 W/m 8,3 C 8,8 C 9,7 km/h (2 Bft) 98,11 %
09.05.2019 05:36 9,2 C 13,3 C 8,9 C 94 % 1003,4 hPa 0,0 l/m 8,4 km/h (2 Bft) W-SW 244 0 min 0,000 mm 0,0 UV-I 0 W/m 8,3 C 7,7 C 14,5 km/h (3 Bft) 97,37 %
09.05.2019 05:38 9,2 C 13,3 C 8,9 C 94 % 1003,3 hPa 0,0 l/m 6,9 km/h (2 Bft) W-SW 244 0 min 0,000 mm 0,0 UV-I 0 W/m 8,3 C 8,8 C 11,3 km/h (2 Bft) 100,00 %
09.05.2019 05:40 9,2 C 13,3 C 8,9 C 94 % 1003,4 hPa 0,0 l/m 7,1 km/h (2 Bft) SW 232 0 min 0,000 mm 0,0 UV-I 0 W/m 8,3 C 8,7 C 12,9 km/h (3 Bft) 97,87 %
09.05.2019 05:42 9,2 C 13,3 C 8,9 C 94 % 1003,3 hPa 0,2 l/m 8,4 km/h (2 Bft) S-SW 210 0 min 0,000 mm 0,0 UV-I 0 W/m 8,3 C 7,7 C 12,9 km/h (3 Bft) 100,00 %
09.05.2019 05:44 9,2 C 13,3 C 8,9 C 94 % 1003,3 hPa 0,0 l/m 8,8 km/h (2 Bft) W-SW 238 0 min 0,000 mm 0,0 UV-I 0 W/m 8,3 C 7,5 C 12,9 km/h (3 Bft) 100,00 %
09.05.2019 05:46 9,2 C 13,3 C 8,9 C 94 % 1003,3 hPa 0,0 l/m 8,5 km/h (2 Bft) S-SW 209 0 min 0,000 mm 0,0 UV-I 0 W/m 8,3 C 7,7 C 12,9 km/h (3 Bft) 100,00 %
09.05.2019 05:48 9,2 C 13,3 C 8,9 C 94 % 1003,3 hPa 0,2 l/m 9,6 km/h (2 Bft) SW 236 0 min 0,000 mm 0,0 UV-I 2 W/m 8,3 C 7,0 C 14,5 km/h (3 Bft) 98,11 %
09.05.2019 05:50 9,2 C 13,3 C 8,9 C 94 % 1003,3 hPa 0,0 l/m 8,9 km/h (2 Bft) SW 234 0 min 0,000 mm 0,0 UV-I 3 W/m 8,3 C 7,4 C 12,9 km/h (3 Bft) 100,00 %
09.05.2019 05:52 9,2 C 13,3 C 8,9 C 94 % 1003,3 hPa 0,0 l/m 7,7 km/h (2 Bft) SW 231 0 min 0,000 mm 0,0 UV-I 5 W/m 8,3 C 8,2 C 12,9 km/h (3 Bft) 100,00 %
09.05.2019 05:54 9,2 C 13,3 C 8,9 C 94 % 1003,3 hPa 0,2 l/m 12,2 km/h (2 Bft) S-SW 212 0 min 0,000 mm 0,0 UV-I 5 W/m 8,3 C 5,5 C 17,7 km/h (3 Bft) 100,00 %
09.05.2019 05:56 9,2 C 13,3 C 8,9 C 94 % 1003,3 hPa 0,0 l/m 9,1 km/h (2 Bft) S-SW 196 0 min 0,000 mm 0,0 UV-I 5 W/m 8,3 C 7,3 C 12,9 km/h (3 Bft) 100,00 %
09.05.2019 05:58 9,2 C 13,3 C 8,9 C 94 % 1003,4 hPa 0,0 l/m 11,9 km/h (2 Bft) S-SW 201 0 min 0,000 mm 0,0 UV-I 5 W/m 8,3 C 5,6 C 24,1 km/h (4 Bft) 100,00 %
09.05.2019 06:00 9,2 C 13,3 C 8,9 C 94 % 1003,4 hPa 0,2 l/m 12,9 km/h (3 Bft) W-SW 242 0 min 0,000 mm 0,0 UV-I 7 W/m 8,3 C 5,1 C 22,5 km/h (4 Bft) 98,00 %
09.05.2019 06:02 9,2 C 13,3 C 8,9 C 94 % 1003,4 hPa 0,0 l/m 10,3 km/h (2 Bft) SW 216 0 min 0,000 mm 0,0 UV-I 7 W/m 8,3 C 6,5 C 14,5 km/h (3 Bft) 100,00 %
09.05.2019 06:04 9,1 C 13,3 C 8,9 C 94 % 1003,4 hPa 0,0 l/m 14,2 km/h (3 Bft) SW 217 0 min 0,000 mm 0,0 UV-I 7 W/m 8,2 C 4,4 C 20,9 km/h (4 Bft) 100,00 %
09.05.2019 06:06 9,1 C 13,3 C 8,9 C 94 % 1003,4 hPa 0,0 l/m 13,1 km/h (3 Bft) S-SW 211 0 min 0,000 mm 0,0 UV-I 7 W/m 8,2 C 4,9 C 19,3 km/h (3 Bft) 100,00 %
09.05.2019 06:08 9,1 C 13,3 C 8,9 C 94 % 1003,4 hPa 0,2 l/m 12,3 km/h (3 Bft) W 262 0 min 0,000 mm 0,0 UV-I 7 W/m 8,2 C 5,3 C 19,3 km/h (3 Bft) 100,00 %
09.05.2019 06:10 9,1 C 13,3 C 8,9 C 94 % 1003,5 hPa 0,0 l/m 11,3 km/h (2 Bft) SW 233 0 min 0,000 mm 0,0 UV-I 7 W/m 8,2 C 5,9 C 16,1 km/h (3 Bft) 100,00 %
09.05.2019 06:12 9,1 C 13,3 C 8,9 C 94 % 1003,4 hPa 0,2 l/m 11,7 km/h (2 Bft) W 269 0 min 0,000 mm 0,0 UV-I 7 W/m 8,2 C 5,6 C 17,7 km/h (3 Bft) 100,00 %
09.05.2019 06:14 9,1 C 13,3 C 8,9 C 94 % 1003,4 hPa 0,0 l/m 12,0 km/h (2 Bft) SW 217 0 min 0,000 mm 0,0 UV-I 7 W/m 8,2 C 5,5 C 20,9 km/h (4 Bft) 100,00 %
09.05.2019 06:16 9,1 C 13,3 C 8,9 C 94 % 1003,4 hPa 0,0 l/m 9,8 km/h (2 Bft) W-SW 247 0 min 0,000 mm 0,0 UV-I 8 W/m 8,2 C 6,7 C 16,1 km/h (3 Bft) 100,00 %
09.05.2019 06:18 9,0 C 13,3 C 8,9 C 94 % 1003,5 hPa 0,0 l/m 10,6 km/h (2 Bft) S-SW 211 0 min 0,000 mm 0,0 UV-I 9 W/m 8,1 C 6,1 C 16,1 km/h (3 Bft) 100,00 %
09.05.2019 06:20 9,0 C 13,3 C 8,9 C 94 % 1003,5 hPa 0,2 l/m 11,4 km/h (2 Bft) S-SW 208 0 min 0,000 mm 0,0 UV-I 9 W/m 8,1 C 5,7 C 17,7 km/h (3 Bft) 100,00 %
09.05.2019 06:22 8,9 C 13,3 C 8,9 C 94 % 1003,5 hPa 0,0 l/m 8,0 km/h (2 Bft) S-SW 194 0 min 0,000 mm 0,0 UV-I 11 W/m 8,0 C 7,7 C 11,3 km/h (2 Bft) 97,87 %
09.05.2019 06:24 8,9 C 13,3 C 8,3 C 93 % 1003,5 hPa 0,0 l/m 9,7 km/h (2 Bft) S-SW 203 0 min 0,000 mm 0,0 UV-I 11 W/m 7,8 C 6,6 C 17,7 km/h (3 Bft) 100,00 %
09.05.2019 06:26 8,9 C 13,3 C 8,3 C 93 % 1003,5 hPa 0,2 l/m 11,2 km/h (2 Bft) SW 236 0 min 0,000 mm 0,0 UV-I 11 W/m 7,8 C 5,7 C 16,1 km/h (3 Bft) 100,00 %
09.05.2019 06:28 8,9 C 13,3 C 8,3 C 93 % 1003,5 hPa 0,0 l/m 10,0 km/h (2 Bft) SW 223 0 min 0,000 mm 0,0 UV-I 11 W/m 7,8 C 6,4 C 14,5 km/h (3 Bft) 100,00 %
09.05.2019 06:30 8,8 C 13,3 C 8,3 C 93 % 1003,5 hPa 0,0 l/m 10,5 km/h (2 Bft) SW 226 0 min 0,000 mm 0,0 UV-I 11 W/m 7,7 C 6,0 C 17,7 km/h (3 Bft) 98,11 %
09.05.2019 06:32 8,8 C 13,3 C 8,3 C 93 % 1003,5 hPa 0,0 l/m 9,9 km/h (2 Bft) W-SW 243 0 min 0,000 mm 0,0 UV-I 12 W/m 7,7 C 6,3 C 17,7 km/h (3 Bft) 100,00 %
09.05.2019 06:34 8,8 C 13,3 C 8,3 C 93 % 1003,5 hPa 0,2 l/m 7,6 km/h (2 Bft) W-SW 238 0 min 0,000 mm 0,0 UV-I 12 W/m 7,7 C 7,9 C 14,5 km/h (3 Bft) 100,00 %
09.05.2019 06:36 8,8 C 13,3 C 8,3 C 93 % 1003,5 hPa 0,0 l/m 8,3 km/h (2 Bft) W-SW 240 0 min 0,000 mm 0,0 UV-I 12 W/m 7,7 C 7,4 C 17,7 km/h (3 Bft) 100,00 %
09.05.2019 06:38 8,8 C 13,3 C 8,3 C 93 % 1003,5 hPa 0,0 l/m 8,3 km/h (2 Bft) SW 225 0 min 0,000 mm 0,0 UV-I 12 W/m 7,7 C 7,4 C 14,5 km/h (3 Bft) 100,00 %
09.05.2019 06:40 8,8 C 13,3 C 8,3 C 93 % 1003,5 hPa 0,2 l/m 8,6 km/h (2 Bft) W-SW 256 0 min 0,000 mm 0,0 UV-I 12 W/m 7,7 C 7,2 C 12,9 km/h (3 Bft) 97,87 %
09.05.2019 06:42 8,8 C 13,3 C 8,3 C 93 % 1003,5 hPa 0,0 l/m 9,2 km/h (2 Bft) S-SW 205 0 min 0,000 mm 0,0 UV-I 14 W/m 7,7 C 6,8 C 12,9 km/h (3 Bft) 95,74 %
09.05.2019 06:44 8,7 C 13,3 C 8,3 C 93 % 1003,6 hPa 0,0 l/m 14,6 km/h (3 Bft) SW 227 0 min 0,000 mm 0,0 UV-I 14 W/m 7,6 C 3,7 C 20,9 km/h (4 Bft) 97,78 %
09.05.2019 06:46 8,7 C 13,3 C 8,3 C 93 % 1003,6 hPa 0,0 l/m 14,2 km/h (3 Bft) SW 217 0 min 0,000 mm 0,0 UV-I 15 W/m 7,6 C 3,9 C 22,5 km/h (4 Bft) 96,36 %
09.05.2019 06:48 8,7 C 13,3 C 8,3 C 93 % 1003,6 hPa 0,0 l/m 12,5 km/h (3 Bft) SW 233 0 min 0,000 mm 0,0 UV-I 16 W/m 7,6 C 4,8 C 22,5 km/h (4 Bft) 94,87 %
09.05.2019 06:50 8,7 C 13,3 C 8,3 C 93 % 1003,6 hPa 0,0 l/m 12,6 km/h (3 Bft) SW 215 0 min 0,000 mm 0,0 UV-I 16 W/m 7,6 C 4,7 C 19,3 km/h (3 Bft) 92,45 %
09.05.2019 06:52 8,7 C 13,3 C 8,3 C 93 % 1003,6 hPa 0,2 l/m 14,2 km/h (3 Bft) SW 217 0 min 0,000 mm 0,0 UV-I 17 W/m 7,6 C 3,9 C 19,3 km/h (3 Bft) 92,11 %
09.05.2019 06:54 8,7 C 13,3 C 8,3 C 93 % 1003,6 hPa 0,0 l/m 13,1 km/h (3 Bft) W-SW 251 0 min 0,000 mm 0,0 UV-I 19 W/m 7,6 C 4,5 C 22,5 km/h (4 Bft) 94,34 %
09.05.2019 06:56 8,6 C 13,3 C 8,3 C 93 % 1003,6 hPa 0,0 l/m 13,2 km/h (3 Bft) SW 223 0 min 0,000 mm 0,0 UV-I 20 W/m 7,5 C 4,3 C 20,9 km/h (4 Bft) 94,34 %
09.05.2019 06:58 8,6 C 13,3 C 8,3 C 93 % 1003,7 hPa 0,0 l/m 12,7 km/h (3 Bft) W-SW 239 0 min 0,000 mm 0,0 UV-I 21 W/m 7,5 C 4,5 C 17,7 km/h (3 Bft) 91,43 %
09.05.2019 07:00 8,6 C 13,3 C 8,3 C 93 % 1003,7 hPa 0,2 l/m 13,1 km/h (3 Bft) W-SW 241 0 min 0,026 mm 0,0 UV-I 20 W/m 7,5 C 4,3 C 17,7 km/h (3 Bft) 92,45 %
09.05.2019 07:02 8,6 C 13,3 C 8,3 C 93 % 1003,6 hPa 0,0 l/m 13,3 km/h (3 Bft) W-SW 257 0 min 0,000 mm 0,0 UV-I 19 W/m 7,5 C 4,2 C 20,9 km/h (4 Bft) 94,00 %
09.05.2019 07:04 8,6 C 13,3 C 8,3 C 93 % 1003,7 hPa 0,0 l/m 12,9 km/h (3 Bft) W-SW 240 0 min 0,000 mm 0,0 UV-I 21 W/m 7,5 C 4,4 C 19,3 km/h (3 Bft) 91,49 %
09.05.2019 07:06 8,6 C 13,3 C 8,3 C 93 % 1003,8 hPa 0,0 l/m 13,8 km/h (3 Bft) W-SW 258 0 min 0,000 mm 0,0 UV-I 26 W/m 7,5 C 4,0 C 19,3 km/h (3 Bft) 97,56 %
09.05.2019 07:08 8,6 C 13,3 C 8,3 C 93 % 1003,7 hPa 0,0 l/m 10,6 km/h (2 Bft) W-SW 248 0 min 0,000 mm 0,0 UV-I 31 W/m 7,5 C 5,7 C 16,1 km/h (3 Bft) 94,00 %
09.05.2019 07:10 8,6 C 13,3 C 8,3 C 93 % 1003,8 hPa 0,0 l/m 14,4 km/h (3 Bft) SW 229 0 min 0,000 mm 0,0 UV-I 35 W/m 7,5 C 3,7 C 20,9 km/h (4 Bft) 95,74 %
09.05.2019 07:12 8,6 C 13,3 C 8,3 C 93 % 1003,8 hPa 0,0 l/m 12,3 km/h (3 Bft) SW 221 0 min 0,000 mm 0,0 UV-I 35 W/m 7,5 C 4,7 C 19,3 km/h (3 Bft) 96,00 %
09.05.2019 07:14 8,6 C 13,3 C 8,3 C 93 % 1003,8 hPa 0,0 l/m 9,5 km/h (2 Bft) W-SW 244 0 min 0,000 mm 0,0 UV-I 34 W/m 7,5 C 6,4 C 14,5 km/h (3 Bft) 94,74 %
09.05.2019 07:16 8,6 C 13,3 C 8,3 C 93 % 1003,8 hPa 0,2 l/m 9,6 km/h (2 Bft) S-SW 211 0 min 0,000 mm 0,0 UV-I 32 W/m 7,5 C 6,3 C 12,9 km/h (3 Bft) 93,62 %
09.05.2019 07:18 8,6 C 13,3 C 8,3 C 93 % 1003,8 hPa 0,0 l/m 9,9 km/h (2 Bft) W-SW 240 0 min 0,000 mm 0,0 UV-I 32 W/m 7,5 C 6,1 C 17,7 km/h (3 Bft) 96,00 %
09.05.2019 07:20 8,6 C 13,3 C 8,3 C 93 % 1003,8 hPa 0,0 l/m 12,0 km/h (2 Bft) W-SW 254 0 min 0,000 mm 0,0 UV-I 33 W/m 7,5 C 4,9 C 17,7 km/h (3 Bft) 95,24 %
09.05.2019 07:22 8,6 C 13,3 C 8,3 C 93 % 1003,8 hPa 0,0 l/m 9,8 km/h (2 Bft) SW 235 0 min 0,000 mm 0,0 UV-I 36 W/m 7,5 C 6,2 C 16,1 km/h (3 Bft) 96,15 %
09.05.2019 07:24 8,6 C 13,3 C 8,3 C 93 % 1003,8 hPa 0,0 l/m 11,6 km/h (2 Bft) W 260 0 min 0,000 mm 0,0 UV-I 38 W/m 7,5 C 5,1 C 17,7 km/h (3 Bft) 95,83 %
09.05.2019 07:26 8,5 C 13,3 C 8,3 C 93 % 1003,8 hPa 0,0 l/m 10,5 km/h (2 Bft) S-SW 211 0 min 0,000 mm 0,0 UV-I 39 W/m 7,4 C 5,6 C 14,5 km/h (3 Bft) 97,56 %
09.05.2019 07:28 8,5 C 13,3 C 8,3 C 93 % 1003,8 hPa 0,0 l/m 12,2 km/h (2 Bft) W-SW 248 0 min 0,000 mm 0,0 UV-I 37 W/m 7,4 C 4,7 C 19,3 km/h (3 Bft) 96,00 %
09.05.2019 07:30 8,4 C 13,3 C 8,3 C 93 % 1003,7 hPa 0,2 l/m 9,9 km/h (2 Bft) SW 236 0 min 0,000 mm 0,0 UV-I 34 W/m 7,3 C 5,9 C 17,7 km/h (3 Bft) 95,12 %
09.05.2019 07:32 8,4 C 13,3 C 8,3 C 93 % 1003,8 hPa 0,0 l/m 9,7 km/h (2 Bft) SW 228 0 min 0,000 mm 0,0 UV-I 33 W/m 7,3 C 6,0 C 16,1 km/h (3 Bft) 98,21 %
09.05.2019 07:34 8,4 C 13,3 C 8,3 C 92 % 1003,7 hPa 0,0 l/m 8,9 km/h (2 Bft) SW 233 0 min 0,000 mm 0,0 UV-I 33 W/m 7,2 C 6,5 C 11,3 km/h (2 Bft) 95,12 %
09.05.2019 07:36 8,4 C 13,3 C 8,3 C 92 % 1003,7 hPa 0,0 l/m 5,8 km/h (2 Bft) W-SW 240 0 min 0,000 mm 0,0 UV-I 34 W/m 7,2 C 8,4 C 12,9 km/h (3 Bft) 97,87 %
09.05.2019 07:38 8,4 C 13,3 C 8,3 C 92 % 1003,7 hPa 0,0 l/m 11,6 km/h (2 Bft) SW 230 0 min 0,000 mm 0,0 UV-I 37 W/m 7,2 C 4,9 C 19,3 km/h (3 Bft) 94,00 %
09.05.2019 07:40 8,4 C 13,3 C 8,3 C 92 % 1003,7 hPa 0,0 l/m 9,5 km/h (2 Bft) SW 232 0 min 0,000 mm 0,0 UV-I 38 W/m 7,2 C 6,1 C 16,1 km/h (3 Bft) 97,87 %
09.05.2019 07:42 8,4 C 13,3 C 8,3 C 92 % 1003,7 hPa 0,0 l/m 9,7 km/h (2 Bft) SW 219 0 min 0,000 mm 0,0 UV-I 40 W/m 7,2 C 6,0 C 14,5 km/h (3 Bft) 98,00 %
09.05.2019 07:44 8,4 C 13,3 C 8,3 C 92 % 1003,7 hPa 0,0 l/m 8,7 km/h (2 Bft) SW 231 0 min 0,000 mm 0,0 UV-I 40 W/m 7,2 C 6,7 C 12,9 km/h (3 Bft) 96,00 %
09.05.2019 07:46 8,4 C 13,3 C 8,3 C 92 % 1003,7 hPa 0,2 l/m 6,2 km/h (2 Bft) S-SW 212 0 min 0,000 mm 0,0 UV-I 42 W/m 7,2 C 8,4 C 9,7 km/h (2 Bft) 100,00 %
09.05.2019 07:48 8,3 C 13,3 C 8,3 C 92 % 1003,7 hPa 0,0 l/m 9,7 km/h (2 Bft) SW 221 0 min 0,000 mm 0,0 UV-I 42 W/m 7,1 C 5,9 C 12,9 km/h (3 Bft) 96,00 %
09.05.2019 07:50 8,3 C 13,3 C 8,3 C 92 % 1003,7 hPa 0,0 l/m 9,2 km/h (2 Bft) S-SW 209 0 min 0,000 mm 0,0 UV-I 41 W/m 7,1 C 6,2 C 14,5 km/h (3 Bft) 97,37 %
09.05.2019 07:52 8,3 C 13,3 C 8,3 C 93 % 1003,7 hPa 0,0 l/m 8,5 km/h (2 Bft) W-SW 237 0 min 0,000 mm 0,0 UV-I 38 W/m 7,2 C 6,7 C 12,9 km/h (3 Bft) 98,18 %
09.05.2019 07:54 8,3 C 13,3 C 8,3 C 93 % 1003,7 hPa 0,0 l/m 6,9 km/h (2 Bft) SW 222 0 min 0,000 mm 0,0 UV-I 40 W/m 7,2 C 7,9 C 12,9 km/h (3 Bft) 98,00 %
09.05.2019 07:56 8,3 C 13,3 C 8,3 C 93 % 1003,7 hPa 0,0 l/m 6,9 km/h (2 Bft) SW 236 0 min 0,000 mm 0,0 UV-I 44 W/m 7,2 C 7,9 C 9,7 km/h (2 Bft) 98,00 %
09.05.2019 07:58 8,3 C 13,3 C 8,9 C 93 % 1003,7 hPa 0,2 l/m 10,4 km/h (2 Bft) W-SW 238 0 min 0,000 mm 0,0 UV-I 47 W/m 7,2 C 5,5 C 19,3 km/h (3 Bft) 100,00 %
09.05.2019 08:00 8,3 C 13,3 C 8,9 C 93 % 1003,7 hPa 0,0 l/m 7,5 km/h (2 Bft) SW 217 0 min 0,025 mm 0,0 UV-I 58 W/m 7,2 C 7,4 C 12,9 km/h (3 Bft) 98,08 %
09.05.2019 08:02 8,3 C 13,3 C 8,9 C 93 % 1003,8 hPa 0,0 l/m 7,7 km/h (2 Bft) SW 228 0 min 0,000 mm 0,0 UV-I 62 W/m 7,2 C 7,3 C 11,3 km/h (2 Bft) 97,62 %
09.05.2019 08:04 8,3 C 13,3 C 8,9 C 93 % 1003,8 hPa 0,0 l/m 7,6 km/h (2 Bft) SW 226 0 min 0,000 mm 0,0 UV-I 62 W/m 7,2 C 7,4 C 9,7 km/h (2 Bft) 98,00 %
09.05.2019 08:06 8,3 C 13,3 C 8,9 C 93 % 1003,8 hPa 0,0 l/m 8,5 km/h (2 Bft) SW 214 0 min 0,000 mm 0,0 UV-I 60 W/m 7,2 C 6,7 C 11,3 km/h (2 Bft) 97,87 %
09.05.2019 08:08 8,3 C 13,3 C 8,9 C 93 % 1003,8 hPa 0,0 l/m 6,3 km/h (2 Bft) S-SW 209 0 min 0,000 mm 0,0 UV-I 62 W/m 7,2 C 8,3 C 11,3 km/h (2 Bft) 100,00 %
09.05.2019 08:10 8,3 C 13,3 C 8,9 C 93 % 1003,8 hPa 0,2 l/m 6,8 km/h (2 Bft) SW 216 0 min 0,000 mm 0,0 UV-I 59 W/m 7,2 C 8,0 C 9,7 km/h (2 Bft) 92,00 %
09.05.2019 08:12 8,3 C 13,3 C 8,9 C 93 % 1003,7 hPa 0,0 l/m 4,0 km/h (1 Bft) SW 227 0 min 0,000 mm 0,0 UV-I 55 W/m 7,2 C 8,3 C 6,4 km/h (2 Bft) 98,00 %
09.05.2019 08:14 8,3 C 13,3 C 8,9 C 93 % 1003,7 hPa 0,2 l/m 5,8 km/h (2 Bft) S-SW 213 0 min 0,000 mm 0,0 UV-I 58 W/m 7,2 C 8,3 C 11,3 km/h (2 Bft) 97,56 %
09.05.2019 08:16 8,2 C 13,3 C 8,9 C 93 % 1003,7 hPa 0,0 l/m 6,3 km/h (2 Bft) SW 214 0 min 0,000 mm 0,0 UV-I 62 W/m 7,1 C 8,2 C 9,7 km/h (2 Bft) 97,87 %
09.05.2019 08:18 8,2 C 13,3 C 8,9 C 93 % 1003,7 hPa 0,0 l/m 5,4 km/h (1 Bft) S-SW 196 0 min 0,000 mm 0,0 UV-I 64 W/m 7,1 C 8,2 C 8,0 km/h (2 Bft) 98,11 %
09.05.2019 08:20 8,2 C 13,3 C 8,9 C 93 % 1003,7 hPa 0,0 l/m 5,5 km/h (1 Bft) S-SW 211 0 min 0,000 mm 0,0 UV-I 69 W/m 7,1 C 8,2 C 8,0 km/h (2 Bft) 97,37 %
09.05.2019 08:22 8,2 C 13,3 C 8,9 C 93 % 1003,8 hPa 0,2 l/m 5,1 km/h (1 Bft) S 188 0 min 0,000 mm 0,0 UV-I 70 W/m 7,1 C 8,2 C 8,0 km/h (2 Bft) 94,00 %
09.05.2019 08:24 8,2 C 13,3 C 9,4 C 93 % 1003,8 hPa 0,0 l/m 8,0 km/h (2 Bft) S 175 0 min 0,000 mm 0,0 UV-I 67 W/m 7,1 C 7,0 C 12,9 km/h (3 Bft) 100,00 %
09.05.2019 08:26 8,2 C 13,3 C 8,9 C 93 % 1003,8 hPa 0,0 l/m 7,2 km/h (2 Bft) SW 219 0 min 0,000 mm 0,0 UV-I 64 W/m 7,1 C 7,6 C 11,3 km/h (2 Bft) 100,00 %
09.05.2019 08:28 8,2 C 13,3 C 8,9 C 93 % 1003,8 hPa 0,0 l/m 7,6 km/h (2 Bft) S 183 0 min 0,000 mm 0,0 UV-I 68 W/m 7,1 C 7,3 C 12,9 km/h (3 Bft) 100,00 %
09.05.2019 08:30 8,2 C 13,3 C 8,9 C 93 % 1003,8 hPa 0,2 l/m 8,3 km/h (2 Bft) S 187 0 min 0,000 mm 0,0 UV-I 68 W/m 7,1 C 6,7 C 11,3 km/h (2 Bft) 97,37 %
09.05.2019 08:32 8,3 C 13,3 C 8,9 C 93 % 1003,8 hPa 0,0 l/m 8,6 km/h (2 Bft) S-SO 165 0 min 0,000 mm 0,0 UV-I 63 W/m 7,2 C 6,6 C 17,7 km/h (3 Bft) 98,31 %
09.05.2019 08:34 8,3 C 13,3 C 8,9 C 93 % 1003,7 hPa 0,0 l/m 8,0 km/h (2 Bft) S 178 0 min 0,000 mm 0,0 UV-I 67 W/m 7,2 C 7,1 C 16,1 km/h (3 Bft) 100,00 %
09.05.2019 08:36 8,3 C 13,3 C 8,9 C 94 % 1003,7 hPa 0,0 l/m 8,1 km/h (2 Bft) S 173 0 min 0,000 mm 0,0 UV-I 70 W/m 7,4 C 7,0 C 14,5 km/h (3 Bft) 100,00 %
09.05.2019 08:38 8,3 C 13,3 C 8,9 C 94 % 1003,8 hPa 0,0 l/m 10,6 km/h (2 Bft) S 176 0 min 0,000 mm 0,0 UV-I 71 W/m 7,4 C 5,4 C 16,1 km/h (3 Bft) 100,00 %
09.05.2019 08:40 8,3 C 13,3 C 8,9 C 94 % 1003,9 hPa 0,0 l/m 9,0 km/h (2 Bft) S-SO 165 0 min 0,000 mm 0,0 UV-I 64 W/m 7,4 C 6,4 C 14,5 km/h (3 Bft) 98,18 %
09.05.2019 08:42 8,3 C 13,3 C 8,9 C 94 % 1003,8 hPa 0,0 l/m 10,9 km/h (2 Bft) S-SO 164 0 min 0,000 mm 0,0 UV-I 58 W/m 7,4 C 5,2 C 20,9 km/h (4 Bft) 100,00 %
09.05.2019 08:44 8,3 C 13,3 C 8,9 C 94 % 1003,8 hPa 0,0 l/m 9,5 km/h (2 Bft) S 178 0 min 0,000 mm 0,0 UV-I 61 W/m 7,4 C 6,0 C 16,1 km/h (3 Bft) 100,00 %
09.05.2019 08:46 8,3 C 13,3 C 8,9 C 94 % 1003,8 hPa 0,0 l/m 11,3 km/h (2 Bft) S-SO 167 0 min 0,000 mm 0,0 UV-I 64 W/m 7,4 C 4,9 C 22,5 km/h (4 Bft) 100,00 %
09.05.2019 08:48 8,2 C 13,3 C 8,9 C 94 % 1003,8 hPa 0,0 l/m 9,5 km/h (2 Bft) S 187 0 min 0,000 mm 0,0 UV-I 69 W/m 7,3 C 5,9 C 20,9 km/h (4 Bft) 100,00 %
09.05.2019 08:50 8,3 C 13,3 C 8,9 C 94 % 1003,9 hPa 0,0 l/m 15,4 km/h (3 Bft) S-SW 207 0 min 0,000 mm 0,0 UV-I 72 W/m 7,4 C 2,9 C 19,3 km/h (3 Bft) 95,12 %
09.05.2019 08:52 8,2 C 13,3 C 8,9 C 94 % 1003,8 hPa 0,0 l/m 11,3 km/h (2 Bft) S-SW 196 0 min 0,000 mm 0,0 UV-I 77 W/m 7,3 C 4,8 C 19,3 km/h (3 Bft) 98,11 %
09.05.2019 08:54 8,2 C 13,3 C 9,4 C 94 % 1003,7 hPa 0,0 l/m 11,1 km/h (2 Bft) S-SW 194 0 min 0,000 mm 0,0 UV-I 86 W/m 7,3 C 4,9 C 17,7 km/h (3 Bft) 97,56 %
09.05.2019 08:56 8,3 C 13,3 C 9,4 C 94 % 1003,6 hPa 0,0 l/m 8,9 km/h (2 Bft) S-SO 165 0 min 0,000 mm 0,0 UV-I 103 W/m 7,4 C 6,4 C 16,1 km/h (3 Bft) 97,87 %
09.05.2019 08:58 8,3 C 13,3 C 9,4 C 94 % 1003,5 hPa 0,0 l/m 9,4 km/h (2 Bft) S-SO 167 0 min 0,000 mm 0,0 UV-I 120 W/m 7,4 C 6,1 C 16,1 km/h (3 Bft) 97,87 %
09.05.2019 09:00 8,3 C 13,3 C 10,0 C 94 % 1003,5 hPa 0,0 l/m 12,5 km/h (3 Bft) S 181 0 min 0,026 mm 0,1 UV-I 139 W/m 7,4 C 4,3 C 17,7 km/h (3 Bft) 98,11 %
09.05.2019 09:02 8,3 C 13,3 C 10,0 C 94 % 1003,6 hPa 0,0 l/m 8,9 km/h (2 Bft) S-SO 167 0 min 0,000 mm 0,5 UV-I 155 W/m 7,4 C 6,4 C 14,5 km/h (3 Bft) 97,14 %
09.05.2019 09:04 8,3 C 13,3 C 10,6 C 94 % 1003,6 hPa 0,0 l/m 10,6 km/h (2 Bft) S 182 0 min 0,000 mm 0,6 UV-I 173 W/m 7,4 C 5,4 C 16,1 km/h (3 Bft) 98,21 %
09.05.2019 09:06 8,4 C 13,3 C 10,6 C 94 % 1003,6 hPa 0,0 l/m 12,4 km/h (3 Bft) S 175 0 min 0,000 mm 0,6 UV-I 180 W/m 7,5 C 4,5 C 16,1 km/h (3 Bft) 95,12 %
09.05.2019 09:08 8,4 C 13,3 C 10,6 C 94 % 1003,6 hPa 0,0 l/m 8,4 km/h (2 Bft) S 184 0 min 0,000 mm 0,6 UV-I 184 W/m 7,5 C 6,9 C 11,3 km/h (2 Bft) 94,64 %
09.05.2019 09:10 8,5 C 13,3 C 10,6 C 94 % 1003,7 hPa 0,0 l/m 12,4 km/h (3 Bft) S-SW 199 0 min 0,000 mm 0,6 UV-I 184 W/m 7,6 C 4,6 C 20,9 km/h (4 Bft) 97,14 %
09.05.2019 09:12 8,5 C 13,3 C 10,6 C 93 % 1003,7 hPa 0,0 l/m 12,9 km/h (3 Bft) S-SO 161 0 min 0,000 mm 0,6 UV-I 182 W/m 7,4 C 4,3 C 22,5 km/h (4 Bft) 96,00 %
09.05.2019 09:14 8,5 C 13,3 C 10,6 C 93 % 1003,7 hPa 0,0 l/m 11,6 km/h (2 Bft) S 186 0 min 0,000 mm 0,6 UV-I 188 W/m 7,4 C 5,0 C 16,1 km/h (3 Bft) 97,87 %
09.05.2019 09:16 8,6 C 13,3 C 11,1 C 93 % 1003,8 hPa 0,0 l/m 10,7 km/h (2 Bft) S 174 0 min 0,000 mm 0,7 UV-I 193 W/m 7,5 C 5,6 C 19,3 km/h (3 Bft) 98,11 %
09.05.2019 09:18 8,6 C 13,3 C 11,1 C 93 % 1003,8 hPa 0,0 l/m 13,4 km/h (3 Bft) S-SO 161 0 min 0,000 mm 0,7 UV-I 188 W/m 7,5 C 4,2 C 17,7 km/h (3 Bft) 100,00 %
09.05.2019 09:20 8,6 C 13,3 C 11,1 C 93 % 1003,7 hPa 0,0 l/m 9,6 km/h (2 Bft) S 185 0 min 0,000 mm 0,7 UV-I 189 W/m 7,5 C 6,3 C 16,1 km/h (3 Bft) 97,56 %
09.05.2019 09:22 8,6 C 13,3 C 11,1 C 93 % 1003,7 hPa 0,0 l/m 11,6 km/h (2 Bft) S 182 0 min 0,000 mm 0,7 UV-I 196 W/m 7,5 C 5,1 C 20,9 km/h (4 Bft) 98,21 %
09.05.2019 09:24 8,6 C 13,3 C 11,7 C 93 % 1003,6 hPa 0,0 l/m 8,9 km/h (2 Bft) S 180 0 min 0,000 mm 0,8 UV-I 208 W/m 7,5 C 6,8 C 12,9 km/h (3 Bft) 94,74 %
09.05.2019 09:26 8,7 C 13,3 C 11,7 C 93 % 1003,5 hPa 0,0 l/m 8,4 km/h (2 Bft) S-SO 166 0 min 0,000 mm 0,8 UV-I 224 W/m 7,6 C 7,2 C 16,1 km/h (3 Bft) 96,00 %
09.05.2019 09:28 8,8 C 13,3 C 11,7 C 93 % 1003,4 hPa 0,0 l/m 7,3 km/h (2 Bft) S-SW 192 0 min 0,000 mm 0,9 UV-I 243 W/m 7,7 C 8,1 C 12,9 km/h (3 Bft) 95,74 %
09.05.2019 09:30 8,8 C 13,3 C 12,2 C 93 % 1003,3 hPa 0,0 l/m 9,3 km/h (2 Bft) SO 139 0 min 0,000 mm 0,9 UV-I 255 W/m 7,7 C 6,7 C 16,1 km/h (3 Bft) 97,56 %
09.05.2019 09:32 9,0 C 13,3 C 12,8 C 93 % 1003,1 hPa 0,0 l/m 9,1 km/h (2 Bft) S 178 0 min 0,000 mm 1,0 UV-I 260 W/m 7,9 C 7,1 C 12,9 km/h (3 Bft) 98,11 %
09.05.2019 09:34 9,1 C 13,3 C 12,8 C 92 % 1003,1 hPa 0,0 l/m 9,4 km/h (2 Bft) S-SO 153 0 min 0,000 mm 1,0 UV-I 258 W/m 7,9 C 7,0 C 16,1 km/h (3 Bft) 94,00 %
09.05.2019 09:36 9,1 C 13,3 C 12,8 C 92 % 1003,1 hPa 0,0 l/m 11,6 km/h (2 Bft) S-SO 159 0 min 0,000 mm 1,0 UV-I 257 W/m 7,9 C 5,7 C 20,9 km/h (4 Bft) 98,11 %
09.05.2019 09:38 9,1 C 13,3 C 12,2 C 92 % 1003,1 hPa 0,0 l/m 10,4 km/h (2 Bft) S-SO 154 0 min 0,000 mm 1,0 UV-I 259 W/m 7,9 C 6,4 C 17,7 km/h (3 Bft) 97,56 %
09.05.2019 09:40 9,0 C 13,3 C 12,2 C 91 % 1003,1 hPa 0,0 l/m 14,3 km/h (3 Bft) S-SO 159 0 min 0,000 mm 1,1 UV-I 279 W/m 7,6 C 4,2 C 17,7 km/h (3 Bft) 97,87 %
09.05.2019 09:42 9,1 C 13,3 C 12,8 C 92 % 1003,1 hPa 0,0 l/m 8,6 km/h (2 Bft) SO 138 0 min 0,000 mm 1,2 UV-I 284 W/m 7,9 C 7,5 C 12,9 km/h (3 Bft) 97,73 %
09.05.2019 09:44 9,2 C 13,3 C 13,9 C 92 % 1003,3 hPa 0,0 l/m 12,0 km/h (2 Bft) S 181 0 min 0,000 mm 1,3 UV-I 336 W/m 8,0 C 5,6 C 17,7 km/h (3 Bft) 98,21 %
09.05.2019 09:46 9,3 C 13,3 C 14,4 C 92 % 1003,4 hPa 0,0 l/m 9,0 km/h (2 Bft) S-SW 201 0 min 0,000 mm 1,3 UV-I 348 W/m 8,1 C 7,4 C 16,1 km/h (3 Bft) 97,37 %
09.05.2019 09:48 9,3 C 13,3 C 14,4 C 92 % 1003,5 hPa 0,0 l/m 10,6 km/h (2 Bft) S 170 0 min 0,000 mm 1,2 UV-I 307 W/m 8,1 C 6,5 C 17,7 km/h (3 Bft) 100,00 %
09.05.2019 09:50 9,3 C 13,3 C 14,4 C 91 % 1003,5 hPa 0,0 l/m 12,3 km/h (3 Bft) S 171 0 min 0,000 mm 1,3 UV-I 338 W/m 7,9 C 5,6 C 17,7 km/h (3 Bft) 100,00 %
09.05.2019 09:52 9,4 C 13,3 C 14,4 C 91 % 1003,5 hPa 0,0 l/m 8,5 km/h (2 Bft) S 183 0 min 0,000 mm 1,3 UV-I 355 W/m 8,0 C 7,9 C 12,9 km/h (3 Bft) 98,11 %
09.05.2019 09:54 9,6 C 13,3 C 15,0 C 91 % 1003,5 hPa 0,0 l/m 10,5 km/h (2 Bft) S 178 2 min 0,000 mm 1,3 UV-I 362 W/m 8,2 C 6,9 C 16,1 km/h (3 Bft) 100,00 %
09.05.2019 09:56 9,6 C 13,3 C 15,0 C 91 % 1003,6 hPa 0,0 l/m 12,3 km/h (3 Bft) SW 214 2 min 0,000 mm 1,3 UV-I 372 W/m 8,2 C 5,9 C 17,7 km/h (3 Bft) 100,00 %
09.05.2019 09:58 9,7 C 13,3 C 15,0 C 91 % 1003,6 hPa 0,0 l/m 11,2 km/h (2 Bft) S-SW 193 2 min 0,000 mm 1,3 UV-I 383 W/m 8,3 C 6,6 C 16,1 km/h (3 Bft) 100,00 %
09.05.2019 10:00 9,7 C 13,3 C 14,4 C 90 % 1003,6 hPa 0,0 l/m 9,9 km/h (2 Bft) S-SW 199 0 min 0,000 mm 1,2 UV-I 352 W/m 8,1 C 7,3 C 16,1 km/h (3 Bft) 100,00 %
09.05.2019 10:02 9,8 C 13,3 C 14,4 C 90 % 1003,5 hPa 0,0 l/m 7,5 km/h (2 Bft) S-SW 196 0 min 0,127 mm 1,2 UV-I 316 W/m 8,2 C 9,0 C 14,5 km/h (3 Bft) 100,00 %
09.05.2019 10:04 9,8 C 13,3 C 14,4 C 89 % 1003,5 hPa 0,0 l/m 9,7 km/h (2 Bft) S-SW 197 0 min 0,000 mm 1,2 UV-I 319 W/m 8,1 C 7,6 C 17,7 km/h (3 Bft) 100,00 %
09.05.2019 10:06 9,8 C 13,3 C 14,4 C 87 % 1003,4 hPa 0,0 l/m 8,5 km/h (2 Bft) S 174 0 min 0,000 mm 1,2 UV-I 316 W/m 7,7 C 8,3 C 14,5 km/h (3 Bft) 100,00 %
09.05.2019 10:08 9,9 C 13,3 C 14,4 C 88 % 1003,4 hPa 0,0 l/m 8,7 km/h (2 Bft) SW 216 0 min 0,000 mm 1,2 UV-I 315 W/m 8,0 C 8,3 C 14,5 km/h (3 Bft) 100,00 %
09.05.2019 10:10 9,9 C 13,3 C 14,4 C 87 % 1003,5 hPa 0,0 l/m 9,1 km/h (2 Bft) S 184 0 min 0,000 mm 1,3 UV-I 316 W/m 7,8 C 8,0 C 14,5 km/h (3 Bft) 100,00 %
09.05.2019 10:12 9,9 C 13,3 C 14,4 C 87 % 1003,4 hPa 0,0 l/m 9,8 km/h (2 Bft) S-SO 163 0 min 0,000 mm 1,4 UV-I 351 W/m 7,8 C 7,6 C 16,1 km/h (3 Bft) 100,00 %
09.05.2019 10:14 10,1 C 13,3 C 15,0 C 88 % 1003,4 hPa 0,0 l/m 8,1 km/h (2 Bft) SW 228 2 min 0,000 mm 1,5 UV-I 398 W/m 8,2 C 8,9 C 12,9 km/h (3 Bft) 100,00 %
09.05.2019 10:16 10,2 C 13,3 C 15,6 C 87 % 1003,4 hPa 0,0 l/m 9,3 km/h (2 Bft) W-SW 246 2 min 0,000 mm 1,7 UV-I 448 W/m 8,1 C 8,2 C 14,5 km/h (3 Bft) 100,00 %
09.05.2019 10:18 10,3 C 13,3 C 16,1 C 87 % 1003,3 hPa 0,0 l/m 8,6 km/h (2 Bft) S-SW 209 2 min 0,000 mm 1,8 UV-I 475 W/m 8,2 C 8,8 C 14,5 km/h (3 Bft) 100,00 %
09.05.2019 10:20 10,6 C 13,3 C 17,2 C 87 % 1003,4 hPa 0,0 l/m 9,5 km/h (2 Bft) S-SW 209 2 min 0,000 mm 1,9 UV-I 528 W/m 8,5 C 8,5 C 11,3 km/h (2 Bft) 100,00 %
09.05.2019 10:22 10,7 C 13,3 C 17,8 C 85 % 1003,4 hPa 0,0 l/m 9,2 km/h (2 Bft) S 181 2 min 0,000 mm 2,0 UV-I 547 W/m 8,3 C 8,8 C 14,5 km/h (3 Bft) 100,00 %
09.05.2019 10:24 10,8 C 13,3 C 17,8 C 84 % 1003,5 hPa 0,0 l/m 8,3 km/h (2 Bft) S-SW 198 2 min 0,000 mm 2,0 UV-I 541 W/m 8,2 C 9,5 C 12,9 km/h (3 Bft) 100,00 %
09.05.2019 10:26 10,8 C 13,3 C 17,8 C 84 % 1003,5 hPa 0,0 l/m 10,3 km/h (2 Bft) S-SW 211 2 min 0,000 mm 1,9 UV-I 496 W/m 8,2 C 8,3 C 16,1 km/h (3 Bft) 100,00 %
09.05.2019 10:28 10,8 C 13,3 C 17,8 C 84 % 1003,5 hPa 0,0 l/m 9,5 km/h (2 Bft) S-SW 208 2 min 0,000 mm 1,9 UV-I 476 W/m 8,2 C 8,8 C 14,5 km/h (3 Bft) 100,00 %
09.05.2019 10:30 10,8 C 13,3 C 17,2 C 83 % 1003,5 hPa 0,0 l/m 12,0 km/h (2 Bft) SW 214 2 min 0,000 mm 1,9 UV-I 497 W/m 8,0 C 7,4 C 17,7 km/h (3 Bft) 100,00 %
09.05.2019 10:32 10,9 C 13,3 C 17,8 C 82 % 1003,5 hPa 0,0 l/m 8,4 km/h (2 Bft) W-SW 244 2 min 0,000 mm 2,0 UV-I 539 W/m 7,9 C 9,5 C 14,5 km/h (3 Bft) 100,00 %
09.05.2019 10:34 11,1 C 13,3 C 18,3 C 84 % 1003,6 hPa 0,0 l/m 7,5 km/h (2 Bft) S-SW 205 2 min 0,000 mm 1,9 UV-I 493 W/m 8,5 C 10,3 C 12,9 km/h (3 Bft) 97,87 %
09.05.2019 10:36 11,2 C 13,3 C 17,8 C 83 % 1003,6 hPa 0,0 l/m 8,7 km/h (2 Bft) S-SW 210 2 min 0,000 mm 1,8 UV-I 442 W/m 8,4 C 9,7 C 14,5 km/h (3 Bft) 100,00 %
09.05.2019 10:38 11,1 C 13,3 C 17,8 C 82 % 1003,5 hPa 0,0 l/m 7,1 km/h (2 Bft) SW 219 2 min 0,000 mm 1,8 UV-I 446 W/m 8,1 C 10,6 C 11,3 km/h (2 Bft) 100,00 %
09.05.2019 10:40 11,3 C 13,3 C 17,8 C 84 % 1003,5 hPa 0,0 l/m 5,8 km/h (2 Bft) W-SW 242 2 min 0,000 mm 1,9 UV-I 471 W/m 8,7 C 11,3 C 12,9 km/h (3 Bft) 100,00 %
09.05.2019 10:42 11,4 C 13,3 C 18,3 C 84 % 1003,4 hPa 0,0 l/m 7,9 km/h (2 Bft) S-SW 196 2 min 0,000 mm 1,9 UV-I 475 W/m 8,8 C 10,4 C 14,5 km/h (3 Bft) 100,00 %
09.05.2019 10:44 11,6 C 13,3 C 17,8 C 83 % 1003,4 hPa 0,0 l/m 8,6 km/h (2 Bft) W-SW 245 2 min 0,000 mm 1,9 UV-I 455 W/m 8,8 C 10,2 C 11,3 km/h (2 Bft) 100,00 %
09.05.2019 10:46 11,6 C 13,3 C 17,8 C 81 % 1003,3 hPa 0,0 l/m 5,9 km/h (2 Bft) S 188 2 min 0,000 mm 1,8 UV-I 450 W/m 8,5 C 11,6 C 9,7 km/h (2 Bft) 98,00 %
09.05.2019 10:48 11,5 C 13,3 C 17,2 C 79 % 1003,1 hPa 0,0 l/m 8,5 km/h (2 Bft) S-SW 209 2 min 0,000 mm 1,8 UV-I 450 W/m 8,0 C 10,1 C 11,3 km/h (2 Bft) 100,00 %
09.05.2019 10:50 11,6 C 13,3 C 17,8 C 82 % 1003,1 hPa 0,0 l/m 7,0 km/h (2 Bft) S-SW 213 2 min 0,000 mm 1,9 UV-I 457 W/m 8,6 C 11,2 C 9,7 km/h (2 Bft) 100,00 %
09.05.2019 10:52 11,6 C 13,3 C 17,2 C 79 % 1003,1 hPa 0,0 l/m 7,9 km/h (2 Bft) SW 235 2 min 0,000 mm 1,9 UV-I 452 W/m 8,1 C 10,6 C 12,9 km/h (3 Bft) 96,00 %
09.05.2019 10:54 11,7 C 13,3 C 16,7 C 79 % 1003,3 hPa 0,0 l/m 9,3 km/h (2 Bft) W 267 2 min 0,000 mm 1,9 UV-I 463 W/m 8,2 C 9,9 C 12,9 km/h (3 Bft) 100,00 %
09.05.2019 10:56 11,7 C 13,3 C 17,8 C 79 % 1003,3 hPa 0,0 l/m 4,5 km/h (1 Bft) S-SW 194 2 min 0,000 mm 2,0 UV-I 477 W/m 8,2 C 11,7 C 12,9 km/h (3 Bft) 93,62 %
09.05.2019 10:58 11,8 C 13,3 C 18,3 C 80 % 1003,3 hPa 0,0 l/m 4,2 km/h (1 Bft) S-SO 152 2 min 0,000 mm 2,0 UV-I 470 W/m 8,5 C 11,8 C 6,4 km/h (2 Bft) 93,18 %
09.05.2019 11:00 11,8 C 13,3 C 18,3 C 80 % 1003,3 hPa 0,0 l/m 5,4 km/h (1 Bft) S-SW 212 2 min 0,228 mm 2,0 UV-I 478 W/m 8,5 C 11,8 C 9,7 km/h (2 Bft) 94,34 %
09.05.2019 11:02 11,9 C 13,3 C 18,9 C 82 % 1003,3 hPa 0,0 l/m 3,4 km/h (1 Bft) SW 234 2 min 0,000 mm 2,1 UV-I 507 W/m 8,9 C 11,9 C 4,8 km/h (1 Bft) 92,45 %
09.05.2019 11:04 11,9 C 13,3 C 18,9 C 80 % 1003,3 hPa 0,0 l/m 7,1 km/h (2 Bft) W-SW 250 2 min 0,000 mm 2,1 UV-I 526 W/m 8,6 C 11,4 C 16,1 km/h (3 Bft) 95,12 %
09.05.2019 11:06 12,2 C 13,3 C 18,3 C 79 % 1003,2 hPa 0,0 l/m 10,4 km/h (2 Bft) SW 234 2 min 0,000 mm 2,1 UV-I 524 W/m 8,7 C 9,8 C 16,1 km/h (3 Bft) 96,30 %
09.05.2019 11:08 12,2 C 13,3 C 18,3 C 77 % 1003,1 hPa 0,0 l/m 11,6 km/h (2 Bft) S-SW 205 2 min 0,000 mm 2,0 UV-I 489 W/m 8,3 C 9,2 C 19,3 km/h (3 Bft) 92,54 %
09.05.2019 11:10 12,2 C 13,3 C 18,3 C 77 % 1003,2 hPa 0,0 l/m 7,4 km/h (2 Bft) SW 232 2 min 0,000 mm 2,0 UV-I 482 W/m 8,3 C 11,5 C 11,3 km/h (2 Bft) 92,00 %
09.05.2019 11:12 12,2 C 13,3 C 18,3 C 78 % 1003,1 hPa 0,0 l/m 5,7 km/h (1 Bft) S-SW 199 2 min 0,000 mm 2,0 UV-I 490 W/m 8,5 C 12,2 C 14,5 km/h (3 Bft) 92,68 %
09.05.2019 11:14 12,2 C 13,3 C 18,3 C 77 % 1003,0 hPa 0,0 l/m 7,1 km/h (2 Bft) S-SW 202 2 min 0,000 mm 1,9 UV-I 470 W/m 8,3 C 11,7 C 16,1 km/h (3 Bft) 94,34 %
09.05.2019 11:16 12,1 C 13,3 C 17,8 C 76 % 1003,0 hPa 0,0 l/m 11,4 km/h (2 Bft) SW 226 2 min 0,000 mm 1,9 UV-I 435 W/m 8,0 C 9,2 C 20,9 km/h (4 Bft) 94,87 %
09.05.2019 11:18 12,2 C 13,3 C 17,2 C 76 % 1003,0 hPa 0,0 l/m 10,9 km/h (2 Bft) S-SW 210 2 min 0,000 mm 1,9 UV-I 441 W/m 8,1 C 9,6 C 19,3 km/h (3 Bft) 94,34 %
09.05.2019 11:20 12,3 C 13,3 C 17,2 C 76 % 1003,0 hPa 0,0 l/m 7,4 km/h (2 Bft) S-SW 203 2 min 0,000 mm 2,0 UV-I 469 W/m 8,2 C 11,6 C 14,5 km/h (3 Bft) 96,00 %
09.05.2019 11:22 12,3 C 13,3 C 17,8 C 77 % 1003,1 hPa 0,0 l/m 11,6 km/h (2 Bft) SW 234 2 min 0,000 mm 2,0 UV-I 473 W/m 8,4 C 9,3 C 17,7 km/h (3 Bft) 94,74 %
09.05.2019 11:24 12,3 C 13,3 C 17,2 C 74 % 1002,9 hPa 0,0 l/m 6,9 km/h (2 Bft) W-SW 242 2 min 0,000 mm 2,0 UV-I 469 W/m 7,8 C 12,0 C 14,5 km/h (3 Bft) 96,00 %
09.05.2019 11:26 12,4 C 13,3 C 17,8 C 75 % 1002,9 hPa 0,0 l/m 8,1 km/h (2 Bft) S-SW 211 2 min 0,000 mm 2,0 UV-I 466 W/m 8,1 C 11,3 C 12,9 km/h (3 Bft) 94,00 %
09.05.2019 11:28 12,4 C 13,3 C 18,3 C 75 % 1003,0 hPa 0,0 l/m 6,8 km/h (2 Bft) W-SW 256 2 min 0,000 mm 2,0 UV-I 469 W/m 8,1 C 12,1 C 14,5 km/h (3 Bft) 94,00 %
09.05.2019 11:30 12,6 C 13,3 C 18,9 C 77 % 1003,0 hPa 0,0 l/m 6,5 km/h (2 Bft) W-SW 252 2 min 0,000 mm 2,1 UV-I 497 W/m 8,7 C 12,6 C 12,9 km/h (3 Bft) 95,12 %
09.05.2019 11:32 12,8 C 13,3 C 18,9 C 74 % 1003,0 hPa 0,0 l/m 8,5 km/h (2 Bft) SW 222 2 min 0,000 mm 2,2 UV-I 522 W/m 8,3 C 11,5 C 12,9 km/h (3 Bft) 97,73 %
09.05.2019 11:34 12,8 C 13,3 C 18,9 C 74 % 1003,0 hPa 0,0 l/m 9,8 km/h (2 Bft) SW 222 2 min 0,000 mm 2,2 UV-I 518 W/m 8,3 C 10,8 C 14,5 km/h (3 Bft) 96,23 %
09.05.2019 11:36 12,8 C 13,3 C 18,9 C 74 % 1002,9 hPa 0,0 l/m 7,6 km/h (2 Bft) SW 232 2 min 0,000 mm 2,1 UV-I 503 W/m 8,3 C 12,0 C 12,9 km/h (3 Bft) 94,74 %
09.05.2019 11:38 12,8 C 13,3 C 18,3 C 73 % 1002,9 hPa 0,0 l/m 10,7 km/h (2 Bft) S-SW 211 2 min 0,000 mm 2,0 UV-I 484 W/m 8,1 C 10,3 C 14,5 km/h (3 Bft) 95,74 %
09.05.2019 11:40 12,8 C 13,3 C 18,3 C 73 % 1002,9 hPa 0,0 l/m 9,2 km/h (2 Bft) S-SW 209 2 min 0,000 mm 2,0 UV-I 477 W/m 8,1 C 11,1 C 14,5 km/h (3 Bft) 95,74 %
09.05.2019 11:42 12,9 C 13,3 C 18,3 C 74 % 1003,0 hPa 0,0 l/m 11,7 km/h (2 Bft) SW 231 2 min 0,000 mm 2,0 UV-I 468 W/m 8,4 C 10,0 C 20,9 km/h (4 Bft) 96,23 %
09.05.2019 11:44 12,8 C 13,3 C 17,8 C 72 % 1002,9 hPa 0,0 l/m 12,5 km/h (3 Bft) W-SW 255 0 min 0,000 mm 1,8 UV-I 421 W/m 7,9 C 9,5 C 19,3 km/h (3 Bft) 98,00 %
09.05.2019 11:46 12,8 C 13,3 C 17,2 C 73 % 1002,9 hPa 0,0 l/m 9,3 km/h (2 Bft) SW 220 0 min 0,000 mm 1,7 UV-I 397 W/m 8,1 C 11,1 C 14,5 km/h (3 Bft) 97,37 %
09.05.2019 11:48 12,7 C 13,3 C 17,8 C 73 % 1002,9 hPa 0,0 l/m 6,2 km/h (2 Bft) SW 225 0 min 0,000 mm 1,8 UV-I 414 W/m 8,0 C 12,7 C 9,7 km/h (2 Bft) 98,11 %
09.05.2019 11:50 12,7 C 13,3 C 18,3 C 75 % 1002,9 hPa 0,0 l/m 6,6 km/h (2 Bft) SW 232 0 min 0,000 mm 1,9 UV-I 443 W/m 8,4 C 12,6 C 11,3 km/h (2 Bft) 96,00 %
09.05.2019 11:52 12,8 C 13,3 C 18,9 C 73 % 1002,8 hPa 0,0 l/m 7,8 km/h (2 Bft) S-SW 209 2 min 0,000 mm 2,1 UV-I 475 W/m 8,1 C 11,9 C 16,1 km/h (3 Bft) 97,87 %
09.05.2019 11:54 12,9 C 13,3 C 18,9 C 73 % 1002,8 hPa 0,0 l/m 10,9 km/h (2 Bft) SW 222 2 min 0,000 mm 2,1 UV-I 486 W/m 8,2 C 10,4 C 17,7 km/h (3 Bft) 94,87 %
09.05.2019 11:56 12,9 C 13,3 C 18,9 C 72 % 1002,8 hPa 0,0 l/m 9,9 km/h (2 Bft) W 281 2 min 0,000 mm 2,2 UV-I 504 W/m 8,0 C 10,8 C 16,1 km/h (3 Bft) 98,21 %
09.05.2019 11:58 13,1 C 13,3 C 18,9 C 72 % 1002,8 hPa 0,0 l/m 9,6 km/h (2 Bft) SW 224 2 min 0,000 mm 2,3 UV-I 506 W/m 8,2 C 11,2 C 16,1 km/h (3 Bft) 95,12 %
09.05.2019 12:00 13,2 C 13,3 C 18,9 C 71 % 1002,8 hPa 0,0 l/m 9,8 km/h (2 Bft) W 262 2 min 0,254 mm 2,3 UV-I 510 W/m 8,1 C 11,2 C 16,1 km/h (3 Bft) 96,23 %
09.05.2019 12:02 13,3 C 13,3 C 20,0 C 71 % 1002,8 hPa 0,0 l/m 8,3 km/h (2 Bft) S 190 2 min 0,000 mm 2,5 UV-I 594 W/m 8,2 C 12,1 C 12,9 km/h (3 Bft) 100,00 %
09.05.2019 12:04 13,3 C 13,9 C 20,6 C 70 % 1002,9 hPa 0,0 l/m 11,1 km/h (2 Bft) S-SW 207 2 min 0,000 mm 2,6 UV-I 620 W/m 7,9 C 10,7 C 16,1 km/h (3 Bft) 96,00 %
09.05.2019 12:06 13,3 C 13,3 C 20,6 C 69 % 1002,8 hPa 0,0 l/m 10,4 km/h (2 Bft) S-SW 202 2 min 0,000 mm 2,8 UV-I 633 W/m 7,7 C 11,0 C 14,5 km/h (3 Bft) 97,37 %
09.05.2019 12:08 13,4 C 13,9 C 21,1 C 69 % 1002,8 hPa 0,0 l/m 10,5 km/h (2 Bft) W 267 2 min 0,000 mm 2,9 UV-I 644 W/m 7,8 C 11,1 C 17,7 km/h (3 Bft) 97,87 %
09.05.2019 12:10 13,6 C 13,9 C 22,2 C 71 % 1002,9 hPa 0,0 l/m 10,8 km/h (2 Bft) W-SW 244 2 min 0,000 mm 3,1 UV-I 722 W/m 8,4 C 11,2 C 17,7 km/h (3 Bft) 96,00 %
09.05.2019 12:12 13,6 C 13,9 C 21,7 C 65 % 1002,8 hPa 0,0 l/m 13,6 km/h (3 Bft) W-SW 250 2 min 0,000 mm 3,0 UV-I 689 W/m 7,1 C 10,0 C 17,7 km/h (3 Bft) 96,23 %
09.05.2019 12:14 13,7 C 13,9 C 22,2 C 67 % 1002,8 hPa 0,0 l/m 12,5 km/h (3 Bft) W 272 2 min 0,000 mm 3,1 UV-I 706 W/m 7,7 C 10,6 C 17,7 km/h (3 Bft) 97,37 %
09.05.2019 12:16 13,8 C 13,9 C 22,2 C 66 % 1002,8 hPa 0,0 l/m 11,8 km/h (2 Bft) SW 214 2 min 0,000 mm 3,1 UV-I 688 W/m 7,6 C 11,0 C 16,1 km/h (3 Bft) 98,11 %
09.05.2019 12:18 13,8 C 13,9 C 22,2 C 66 % 1002,8 hPa 0,0 l/m 13,5 km/h (3 Bft) W 269 2 min 0,000 mm 3,1 UV-I 720 W/m 7,6 C 10,3 C 20,9 km/h (4 Bft) 97,56 %
09.05.2019 12:20 13,8 C 13,9 C 23,3 C 66 % 1002,9 hPa 0,0 l/m 16,2 km/h (3 Bft) W-SW 253 2 min 0,000 mm 3,3 UV-I 770 W/m 7,6 C 9,3 C 20,9 km/h (4 Bft) 94,00 %
09.05.2019 12:22 13,8 C 13,9 C 23,9 C 65 % 1002,9 hPa 0,0 l/m 11,5 km/h (2 Bft) SW 225 2 min 0,000 mm 3,3 UV-I 793 W/m 7,3 C 11,1 C 16,1 km/h (3 Bft) 96,23 %
09.05.2019 12:24 13,8 C 13,9 C 24,4 C 65 % 1002,9 hPa 0,0 l/m 12,0 km/h (2 Bft) W-SW 244 2 min 0,000 mm 3,2 UV-I 729 W/m 7,3 C 10,9 C 17,7 km/h (3 Bft) 95,45 %
09.05.2019 12:26 13,9 C 13,9 C 25,0 C 67 % 1002,9 hPa 0,0 l/m 13,5 km/h (3 Bft) SW 230 2 min 0,000 mm 3,2 UV-I 712 W/m 7,9 C 10,4 C 22,5 km/h (4 Bft) 93,18 %
09.05.2019 12:28 14,0 C 13,9 C 25,0 C 64 % 1002,9 hPa 0,0 l/m 8,7 km/h (2 Bft) SW 221 2 min 0,000 mm 3,1 UV-I 703 W/m 7,3 C 12,7 C 16,1 km/h (3 Bft) 94,00 %
09.05.2019 12:30 14,1 C 13,9 C 25,0 C 65 % 1002,9 hPa 0,0 l/m 10,9 km/h (2 Bft) W-SW 256 2 min 0,000 mm 3,1 UV-I 648 W/m 7,6 C 11,7 C 19,3 km/h (3 Bft) 97,62 %
09.05.2019 12:32 14,0 C 13,9 C 24,4 C 66 % 1002,9 hPa 0,0 l/m 7,0 km/h (2 Bft) W-SW 253 2 min 0,000 mm 2,7 UV-I 545 W/m 7,7 C 13,6 C 12,9 km/h (3 Bft) 97,73 %
09.05.2019 12:34 13,9 C 13,9 C 22,8 C 66 % 1002,8 hPa 0,0 l/m 11,3 km/h (2 Bft) W-SW 258 2 min 0,000 mm 2,5 UV-I 509 W/m 7,7 C 11,3 C 19,3 km/h (3 Bft) 97,87 %
09.05.2019 12:36 13,8 C 13,9 C 21,7 C 65 % 1002,8 hPa 0,0 l/m 14,1 km/h (3 Bft) W-NW 286 2 min 0,000 mm 2,6 UV-I 576 W/m 7,3 C 10,1 C 22,5 km/h (4 Bft) 98,00 %
09.05.2019 12:38 13,8 C 13,9 C 21,7 C 66 % 1002,9 hPa 0,0 l/m 12,4 km/h (3 Bft) SW 223 2 min 0,000 mm 2,7 UV-I 561 W/m 7,6 C 10,7 C 16,1 km/h (3 Bft) 98,11 %
09.05.2019 12:40 13,7 C 13,9 C 22,2 C 63 % 1002,8 hPa 0,0 l/m 7,8 km/h (2 Bft) SW 233 2 min 0,000 mm 2,7 UV-I 574 W/m 6,8 C 12,9 C 14,5 km/h (3 Bft) 95,74 %
09.05.2019 12:42 13,7 C 13,9 C 23,3 C 64 % 1002,7 hPa 0,0 l/m 7,0 km/h (2 Bft) NW 304 2 min 0,000 mm 2,9 UV-I 637 W/m 7,0 C 13,3 C 11,3 km/h (2 Bft) 97,56 %
09.05.2019 12:44 13,8 C 13,9 C 23,3 C 65 % 1002,8 hPa 0,0 l/m 10,1 km/h (2 Bft) S-SW 204 2 min 0,000 mm 2,9 UV-I 677 W/m 7,3 C 11,7 C 16,1 km/h (3 Bft) 100,00 %
09.05.2019 12:46 13,9 C 13,9 C 23,9 C 64 % 1002,7 hPa 0,0 l/m 10,3 km/h (2 Bft) SW 217 2 min 0,000 mm 3,2 UV-I 739 W/m 7,2 C 11,8 C 16,1 km/h (3 Bft) 100,00 %
09.05.2019 12:48 14,1 C 13,9 C 25,0 C 64 % 1002,8 hPa 0,0 l/m 11,9 km/h (2 Bft) W 276 2 min 0,000 mm 3,1 UV-I 713 W/m 7,4 C 11,3 C 17,7 km/h (3 Bft) 95,74 %
09.05.2019 12:50 14,1 C 13,9 C 25,0 C 65 % 1002,8 hPa 0,0 l/m 13,5 km/h (3 Bft) W 264 2 min 0,000 mm 3,0 UV-I 695 W/m 7,6 C 10,6 C 17,7 km/h (3 Bft) 100,00 %
09.05.2019 12:52 14,2 C 13,9 C 24,4 C 65 % 1002,8 hPa 0,0 l/m 11,7 km/h (2 Bft) W-NW 287 2 min 0,000 mm 2,9 UV-I 661 W/m 7,7 C 11,5 C 16,1 km/h (3 Bft) 100,00 %
09.05.2019 12:54 14,2 C 13,9 C 24,4 C 61 % 1002,8 hPa 0,0 l/m 9,0 km/h (2 Bft) W-SW 241 2 min 0,000 mm 3,0 UV-I 675 W/m 6,8 C 12,7 C 16,1 km/h (3 Bft) 96,00 %
09.05.2019 12:56 14,1 C 13,9 C 24,4 C 62 % 1002,8 hPa 0,0 l/m 13,1 km/h (3 Bft) S-SW 207 2 min 0,000 mm 3,0 UV-I 697 W/m 6,9 C 10,8 C 19,3 km/h (3 Bft) 98,00 %
09.05.2019 12:58 14,1 C 13,9 C 23,9 C 62 % 1002,8 hPa 0,0 l/m 10,1 km/h (2 Bft) W-SW 249 2 min 0,000 mm 3,0 UV-I 700 W/m 6,9 C 12,1 C 16,1 km/h (3 Bft) 97,87 %
09.05.2019 13:00 14,1 C 13,9 C 24,4 C 63 % 1002,8 hPa 0,0 l/m 10,0 km/h (2 Bft) SW 232 2 min 0,381 mm 3,1 UV-I 698 W/m 7,2 C 12,1 C 14,5 km/h (3 Bft) 97,73 %
09.05.2019 13:02 14,2 C 13,9 C 25,0 C 62 % 1002,8 hPa 0,0 l/m 7,0 km/h (2 Bft) W-SW 238 2 min 0,000 mm 3,2 UV-I 731 W/m 7,0 C 13,8 C 11,3 km/h (2 Bft) 97,87 %
09.05.2019 13:04 14,4 C 13,9 C 25,0 C 64 % 1002,8 hPa 0,0 l/m 8,2 km/h (2 Bft) SW 225 2 min 0,000 mm 3,2 UV-I 734 W/m 7,7 C 13,4 C 12,9 km/h (3 Bft) 98,00 %
09.05.2019 13:06 14,5 C 13,9 C 24,4 C 63 % 1002,7 hPa 0,0 l/m 11,9 km/h (2 Bft) S-SW 194 2 min 0,000 mm 2,7 UV-I 648 W/m 7,5 C 11,7 C 22,5 km/h (4 Bft) 97,44 %
09.05.2019 13:08 14,4 C 13,9 C 23,9 C 62 % 1002,7 hPa 0,0 l/m 10,4 km/h (2 Bft) SW 219 2 min 0,000 mm 2,5 UV-I 471 W/m 7,2 C 12,3 C 20,9 km/h (4 Bft) 100,00 %
09.05.2019 13:10 14,4 C 13,9 C 24,4 C 63 % 1002,7 hPa 0,0 l/m 11,6 km/h (2 Bft) S-SW 202 2 min 0,000 mm 2,7 UV-I 611 W/m 7,4 C 11,7 C 22,5 km/h (4 Bft) 96,00 %
09.05.2019 13:12 14,5 C 13,9 C 23,9 C 63 % 1002,7 hPa 0,0 l/m 9,1 km/h (2 Bft) SW 235 2 min 0,000 mm 2,6 UV-I 563 W/m 7,5 C 13,0 C 14,5 km/h (3 Bft) 98,11 %
09.05.2019 13:14 14,5 C 13,9 C 24,4 C 62 % 1002,7 hPa 0,0 l/m 8,1 km/h (2 Bft) S-SW 209 2 min 0,000 mm 2,7 UV-I 568 W/m 7,3 C 13,5 C 19,3 km/h (3 Bft) 97,37 %
09.05.2019 13:16 14,4 C 13,9 C 23,9 C 60 % 1002,6 hPa 0,0 l/m 12,1 km/h (2 Bft) W-SW 248 2 min 0,000 mm 2,6 UV-I 552 W/m 6,7 C 11,5 C 20,9 km/h (4 Bft) 96,00 %
09.05.2019 13:18 14,5 C 13,9 C 23,9 C 59 % 1002,7 hPa 0,0 l/m 13,5 km/h (3 Bft) SW 217 2 min 0,000 mm 2,8 UV-I 623 W/m 6,6 C 11,1 C 17,7 km/h (3 Bft) 98,00 %
09.05.2019 13:20 14,4 C 13,9 C 25,0 C 59 % 1002,6 hPa 0,0 l/m 11,5 km/h (2 Bft) S-SW 205 2 min 0,000 mm 3,0 UV-I 713 W/m 6,5 C 11,8 C 17,7 km/h (3 Bft) 98,00 %
09.05.2019 13:22 14,5 C 13,9 C 26,1 C 60 % 1002,6 hPa 0,0 l/m 6,7 km/h (2 Bft) SW 216 2 min 0,000 mm 3,3 UV-I 775 W/m 6,8 C 14,3 C 11,3 km/h (2 Bft) 100,00 %
09.05.2019 13:24 14,7 C 13,9 C 27,2 C 61 % 1002,6 hPa 0,0 l/m 13,2 km/h (3 Bft) S-SW 212 2 min 0,000 mm 3,7 UV-I 895 W/m 7,3 C 11,5 C 17,7 km/h (3 Bft) 98,00 %
09.05.2019 13:26 14,9 C 13,9 C 28,3 C 61 % 1002,6 hPa 0,0 l/m 10,5 km/h (2 Bft) S-SW 207 2 min 0,000 mm 3,6 UV-I 864 W/m 7,4 C 12,8 C 14,5 km/h (3 Bft) 96,00 %
09.05.2019 13:28 15,1 C 13,9 C 28,9 C 62 % 1002,6 hPa 0,0 l/m 11,1 km/h (2 Bft) SW 225 2 min 0,000 mm 3,4 UV-I 805 W/m 7,9 C 12,8 C 16,1 km/h (3 Bft) 97,56 %
09.05.2019 13:30 15,1 C 13,9 C 29,4 C 61 % 1002,6 hPa 0,0 l/m 11,0 km/h (2 Bft) S 176 2 min 0,000 mm 3,5 UV-I 820 W/m 7,6 C 12,8 C 14,5 km/h (3 Bft) 100,00 %
09.05.2019 13:32 15,2 C 13,9 C 29,4 C 59 % 1002,5 hPa 0,0 l/m 12,4 km/h (3 Bft) S 190 2 min 0,000 mm 3,6 UV-I 836 W/m 7,2 C 12,3 C 19,3 km/h (3 Bft) 100,00 %
09.05.2019 13:34 15,1 C 13,9 C 30,0 C 59 % 1002,5 hPa 0,0 l/m 11,4 km/h (2 Bft) S-SW 209 2 min 0,000 mm 3,6 UV-I 848 W/m 7,1 C 12,6 C 17,7 km/h (3 Bft) 100,00 %
09.05.2019 13:36 15,1 C 13,9 C 28,9 C 58 % 1002,5 hPa 0,0 l/m 13,2 km/h (3 Bft) SW 223 2 min 0,000 mm 3,6 UV-I 861 W/m 6,9 C 11,9 C 20,9 km/h (4 Bft) 100,00 %
09.05.2019 13:38 15,2 C 13,9 C 28,3 C 56 % 1002,5 hPa 0,0 l/m 9,6 km/h (2 Bft) W-SW 238 2 min 0,000 mm 3,4 UV-I 825 W/m 6,5 C 13,5 C 14,5 km/h (3 Bft) 98,11 %
09.05.2019 13:40 15,1 C 13,9 C 27,8 C 56 % 1002,5 hPa 0,0 l/m 5,1 km/h (1 Bft) S 185 2 min 0,000 mm 3,2 UV-I 773 W/m 6,4 C 15,1 C 8,0 km/h (2 Bft) 100,00 %
09.05.2019 13:42 14,9 C 13,9 C 28,3 C 56 % 1002,5 hPa 0,0 l/m 2,8 km/h (1 Bft) W-SW 242 2 min 0,000 mm 2,9 UV-I 781 W/m 6,2 C 14,9 C 8,0 km/h (2 Bft) 97,96 %
09.05.2019 13:44 14,7 C 13,9 C 26,7 C 59 % 1002,5 hPa 0,0 l/m 3,9 km/h (1 Bft) W 272 2 min 0,000 mm 2,0 UV-I 576 W/m 6,8 C 14,7 C 8,0 km/h (2 Bft) 96,43 %
09.05.2019 13:46 14,5 C 13,9 C 25,6 C 58 % 1002,4 hPa 0,0 l/m 4,6 km/h (1 Bft) SW 227 0 min 0,000 mm 2,1 UV-I 390 W/m 6,3 C 14,5 C 8,0 km/h (2 Bft) 100,00 %
09.05.2019 13:48 14,5 C 13,9 C 25,6 C 60 % 1002,4 hPa 0,0 l/m 8,0 km/h (2 Bft) SW 235 0 min 0,000 mm 2,6 UV-I 401 W/m 6,8 C 13,6 C 17,7 km/h (3 Bft) 96,92 %
09.05.2019 13:50 14,8 C 13,9 C 26,7 C 59 % 1002,4 hPa 0,0 l/m 11,6 km/h (2 Bft) W 262 2 min 0,000 mm 3,4 UV-I 617 W/m 6,9 C 12,2 C 17,7 km/h (3 Bft) 97,37 %
09.05.2019 13:52 15,1 C 13,9 C 27,2 C 60 % 1002,4 hPa 0,0 l/m 10,0 km/h (2 Bft) W-SW 251 2 min 0,000 mm 3,2 UV-I 749 W/m 7,4 C 13,2 C 19,3 km/h (3 Bft) 96,08 %
09.05.2019 13:54 15,3 C 13,9 C 27,2 C 58 % 1002,4 hPa 0,0 l/m 12,1 km/h (2 Bft) SW 225 2 min 0,000 mm 3,3 UV-I 800 W/m 7,1 C 12,6 C 19,3 km/h (3 Bft) 98,00 %
09.05.2019 13:56 15,4 C 13,9 C 27,8 C 58 % 1002,3 hPa 0,0 l/m 12,1 km/h (2 Bft) W-SW 257 2 min 0,000 mm 3,4 UV-I 825 W/m 7,2 C 12,7 C 19,3 km/h (3 Bft) 98,00 %
09.05.2019 13:58 15,6 C 13,9 C 28,9 C 61 % 1002,3 hPa 0,0 l/m 10,0 km/h (2 Bft) W-SW 237 2 min 0,000 mm 3,5 UV-I 892 W/m 8,1 C 13,8 C 16,1 km/h (3 Bft) 97,56 %
09.05.2019 14:00 15,7 C 13,9 C 28,9 C 57 % 1002,3 hPa 0,0 l/m 11,8 km/h (2 Bft) SW 232 2 min 0,407 mm 3,5 UV-I 902 W/m 7,2 C 13,2 C 17,7 km/h (3 Bft) 96,23 %
09.05.2019 14:02 15,7 C 13,9 C 30,0 C 58 % 1002,3 hPa 0,0 l/m 7,3 km/h (2 Bft) SW 217 2 min 0,000 mm 3,3 UV-I 841 W/m 7,5 C 15,2 C 11,3 km/h (2 Bft) 95,12 %
09.05.2019 14:04 15,6 C 13,9 C 28,3 C 56 % 1002,3 hPa 0,0 l/m 7,1 km/h (2 Bft) S-SW 213 2 min 0,000 mm 2,4 UV-I 569 W/m 6,9 C 15,2 C 12,9 km/h (3 Bft) 97,56 %
09.05.2019 14:06 15,4 C 14,4 C 28,9 C 58 % 1002,3 hPa 0,0 l/m 5,0 km/h (1 Bft) W-NW 299 2 min 0,000 mm 3,0 UV-I 712 W/m 7,2 C 15,4 C 9,7 km/h (2 Bft) 96,00 %
09.05.2019 14:08 15,4 C 14,4 C 30,0 C 57 % 1002,3 hPa 0,0 l/m 4,3 km/h (1 Bft) W 267 2 min 0,000 mm 3,3 UV-I 878 W/m 6,9 C 15,4 C 6,4 km/h (2 Bft) 100,00 %
09.05.2019 14:10 15,4 C 14,4 C 31,1 C 59 % 1002,3 hPa 0,0 l/m 6,9 km/h (2 Bft) W-SW 255 2 min 0,000 mm 3,4 UV-I 905 W/m 7,4 C 15,1 C 17,7 km/h (3 Bft) 97,87 %
09.05.2019 14:12 15,7 C 14,4 C 30,0 C 58 % 1002,3 hPa 0,0 l/m 9,5 km/h (2 Bft) S-SW 205 2 min 0,000 mm 3,1 UV-I 788 W/m 7,5 C 14,1 C 14,5 km/h (3 Bft) 100,00 %
09.05.2019 14:14 15,7 C 14,4 C 27,8 C 57 % 1002,3 hPa 0,0 l/m 9,5 km/h (2 Bft) S 185 2 min 0,000 mm 2,4 UV-I 737 W/m 7,2 C 14,1 C 16,1 km/h (3 Bft) 97,56 %
09.05.2019 14:16 15,6 C 14,4 C 27,8 C 59 % 1002,3 hPa 0,0 l/m 5,1 km/h (1 Bft) W-NW 298 2 min 0,000 mm 2,6 UV-I 506 W/m 7,6 C 15,6 C 8,0 km/h (2 Bft) 98,00 %
09.05.2019 14:18 15,4 C 14,4 C 27,8 C 57 % 1002,3 hPa 0,0 l/m 2,4 km/h (1 Bft) NW 323 2 min 0,000 mm 2,1 UV-I 560 W/m 6,9 C 15,4 C 4,8 km/h (1 Bft) 100,00 %
09.05.2019 14:20 15,4 C 14,4 C 26,7 C 59 % 1002,3 hPa 0,0 l/m 3,5 km/h (1 Bft) W-SW 255 2 min 0,000 mm 1,9 UV-I 485 W/m 7,4 C 15,4 C 12,9 km/h (3 Bft) 100,00 %
09.05.2019 14:22 15,3 C 14,4 C 25,0 C 58 % 1002,2 hPa 0,0 l/m 9,6 km/h (2 Bft) W 262 0 min 0,000 mm 2,2 UV-I 404 W/m 7,1 C 13,6 C 12,9 km/h (3 Bft) 100,00 %
09.05.2019 14:24 15,4 C 14,4 C 25,6 C 60 % 1002,3 hPa 0,0 l/m 6,1 km/h (2 Bft) W-SW 252 2 min 0,000 mm 2,8 UV-I 519 W/m 7,7 C 15,4 C 9,7 km/h (2 Bft) 100,00 %
09.05.2019 14:26 15,5 C 14,4 C 24,4 C 57 % 1002,3 hPa 0,0 l/m 7,9 km/h (2 Bft) W-SW 242 2 min 0,000 mm 2,2 UV-I 518 W/m 7,0 C 14,7 C 14,5 km/h (3 Bft) 100,00 %
09.05.2019 14:28 15,5 C 14,4 C 23,9 C 59 % 1002,3 hPa 0,0 l/m 8,0 km/h (2 Bft) SW 221 2 min 0,000 mm 2,1 UV-I 486 W/m 7,5 C 14,6 C 12,9 km/h (3 Bft) 100,00 %
09.05.2019 14:30 15,4 C 14,4 C 25,0 C 58 % 1002,3 hPa 0,0 l/m 6,2 km/h (2 Bft) W 270 2 min 0,000 mm 2,6 UV-I 626 W/m 7,2 C 15,4 C 12,9 km/h (3 Bft) 100,00 %
09.05.2019 14:32 15,5 C 14,4 C 26,7 C 58 % 1002,2 hPa 0,0 l/m 6,6 km/h (2 Bft) W 261 2 min 0,000 mm 2,8 UV-I 895 W/m 7,3 C 15,4 C 12,9 km/h (3 Bft) 100,00 %
09.05.2019 14:34 15,4 C 14,4 C 27,2 C 60 % 1002,2 hPa 0,0 l/m 2,2 km/h (1 Bft) SW 216 2 min 0,000 mm 2,7 UV-I 895 W/m 7,7 C 15,4 C 3,2 km/h (1 Bft) 100,00 %
09.05.2019 14:36 15,5 C 14,4 C 26,7 C 59 % 1002,3 hPa 0,0 l/m 8,2 km/h (2 Bft) W-SW 249 2 min 0,000 mm 2,5 UV-I 740 W/m 7,5 C 14,5 C 16,1 km/h (3 Bft) 100,00 %
09.05.2019 14:38 15,6 C 14,4 C 25,0 C 59 % 1002,3 hPa 0,0 l/m 7,1 km/h (2 Bft) W-SW 246 0 min 0,000 mm 1,7 UV-I 366 W/m 7,6 C 15,2 C 14,5 km/h (3 Bft) 100,00 %
09.05.2019 14:40 15,7 C 14,4 C 23,9 C 58 % 1002,3 hPa 0,0 l/m 5,5 km/h (1 Bft) W-SW 240 0 min 0,000 mm 1,4 UV-I 296 W/m 7,5 C 15,7 C 9,7 km/h (2 Bft) 97,87 %
09.05.2019 14:42 15,6 C 14,4 C 22,8 C 58 % 1002,3 hPa 0,0 l/m 8,8 km/h (2 Bft) SW 232 0 min 0,000 mm 1,3 UV-I 283 W/m 7,4 C 14,3 C 16,1 km/h (3 Bft) 100,00 %
09.05.2019 14:44 15,5 C 14,4 C 21,7 C 58 % 1002,3 hPa 0,0 l/m 8,9 km/h (2 Bft) W 262 0 min 0,000 mm 1,4 UV-I 301 W/m 7,3 C 14,2 C 12,9 km/h (3 Bft) 95,74 %
09.05.2019 14:46 15,3 C 14,4 C 20,6 C 57 % 1002,3 hPa 0,0 l/m 7,8 km/h (2 Bft) NW 314 0 min 0,000 mm 1,5 UV-I 326 W/m 6,8 C 14,5 C 11,3 km/h (2 Bft) 97,87 %
09.05.2019 14:48 15,2 C 14,4 C 20,6 C 57 % 1002,3 hPa 0,0 l/m 5,0 km/h (1 Bft) NW 325 0 min 0,000 mm 1,6 UV-I 337 W/m 6,7 C 15,2 C 11,3 km/h (2 Bft) 97,87 %
09.05.2019 14:50 15,1 C 14,4 C 21,1 C 62 % 1002,2 hPa 0,0 l/m 2,6 km/h (1 Bft) NO 56 0 min 0,000 mm 1,9 UV-I 356 W/m 7,9 C 15,1 C 4,8 km/h (1 Bft) 95,74 %
09.05.2019 14:52 15,2 C 14,4 C 23,3 C 61 % 1002,2 hPa 0,0 l/m 4,3 km/h (1 Bft) W-SW 245 2 min 0,000 mm 2,7 UV-I 613 W/m 7,7 C 15,2 C 6,4 km/h (2 Bft) 95,74 %
09.05.2019 14:54 15,4 C 14,4 C 26,1 C 56 % 1002,2 hPa 0,0 l/m 2,1 km/h (1 Bft) W-SW 258 2 min 0,000 mm 2,9 UV-I 754 W/m 6,7 C 15,4 C 6,4 km/h (2 Bft) 93,62 %
09.05.2019 14:56 15,7 C 14,4 C 28,9 C 59 % 1002,1 hPa 0,0 l/m 4,9 km/h (1 Bft) S-SW 209 2 min 0,000 mm 3,3 UV-I 892 W/m 7,7 C 15,7 C 11,3 km/h (2 Bft) 98,11 %
09.05.2019 14:58 15,8 C 14,4 C 29,4 C 55 % 1002,1 hPa 0,0 l/m 5,7 km/h (1 Bft) S 188 2 min 0,000 mm 3,1 UV-I 828 W/m 6,8 C 15,8 C 9,7 km/h (2 Bft) 97,56 %
09.05.2019 15:00 15,9 C 14,4 C 29,4 C 56 % 1002,2 hPa 0,0 l/m 6,6 km/h (2 Bft) SW 232 2 min 0,000 mm 2,9 UV-I 729 W/m 7,1 C 15,8 C 9,7 km/h (2 Bft) 100,00 %
09.05.2019 15:02 15,8 C 14,4 C 30,0 C 57 % 1002,1 hPa 0,0 l/m 3,5 km/h (1 Bft) SW 232 2 min 0,355 mm 2,9 UV-I 768 W/m 7,3 C 15,8 C 6,4 km/h (2 Bft) 96,92 %
09.05.2019 15:04 16,0 C 14,4 C 30,6 C 57 % 1002,0 hPa 0,0 l/m 6,3 km/h (2 Bft) S 184 2 min 0,000 mm 2,8 UV-I 692 W/m 7,5 C 16,0 C 11,3 km/h (2 Bft) 97,87 %
09.05.2019 15:06 15,9 C 14,4 C 30,6 C 56 % 1002,0 hPa 0,0 l/m 6,1 km/h (2 Bft) S-SO 153 2 min 0,000 mm 2,8 UV-I 677 W/m 7,1 C 15,9 C 11,3 km/h (2 Bft) 98,00 %
09.05.2019 15:08 15,8 C 14,4 C 30,6 C 54 % 1002,1 hPa 0,0 l/m 3,4 km/h (1 Bft) S-SO 150 2 min 0,000 mm 2,9 UV-I 744 W/m 6,5 C 15,8 C 6,4 km/h (2 Bft) 97,56 %
09.05.2019 15:10 15,9 C 14,4 C 31,1 C 58 % 1002,1 hPa 0,0 l/m 3,1 km/h (1 Bft) NO 46 2 min 0,000 mm 2,9 UV-I 772 W/m 7,6 C 15,9 C 4,8 km/h (1 Bft) 94,34 %
09.05.2019 15:12 16,1 C 14,4 C 32,2 C 56 % 1002,0 hPa 0,0 l/m 3,3 km/h (1 Bft) S 177 2 min 0,000 mm 3,0 UV-I 848 W/m 7,3 C 16,1 C 4,8 km/h (1 Bft) 95,12 %
09.05.2019 15:14 16,0 C 14,4 C 32,2 C 55 % 1002,0 hPa 0,0 l/m 6,1 km/h (2 Bft) S-SW 197 2 min 0,000 mm 2,8 UV-I 810 W/m 7,0 C 16,0 C 8,0 km/h (2 Bft) 94,00 %
09.05.2019 15:16 16,1 C 14,4 C 30,6 C 56 % 1001,9 hPa 0,0 l/m 10,0 km/h (2 Bft) W 261 2 min 0,000 mm 2,7 UV-I 659 W/m 7,3 C 14,3 C 16,1 km/h (3 Bft) 98,00 %
09.05.2019 15:18 16,1 C 14,4 C 28,9 C 55 % 1001,9 hPa 0,0 l/m 8,8 km/h (2 Bft) W-SW 254 2 min 0,000 mm 2,6 UV-I 668 W/m 7,1 C 14,9 C 14,5 km/h (3 Bft) 98,00 %
09.05.2019 15:20 16,0 C 14,4 C 29,4 C 55 % 1001,9 hPa 0,0 l/m 4,4 km/h (1 Bft) S 177 2 min 0,000 mm 2,6 UV-I 722 W/m 7,0 C 16,0 C 8,0 km/h (2 Bft) 97,87 %
09.05.2019 15:22 16,1 C 14,4 C 30,6 C 54 % 1001,9 hPa 0,0 l/m 3,6 km/h (1 Bft) SW 217 2 min 0,000 mm 2,7 UV-I 726 W/m 6,8 C 16,1 C 6,4 km/h (2 Bft) 97,87 %
09.05.2019 15:24 16,2 C 14,4 C 30,6 C 54 % 1001,9 hPa 0,0 l/m 6,0 km/h (2 Bft) SW 236 2 min 0,000 mm 2,7 UV-I 766 W/m 6,9 C 16,2 C 9,7 km/h (2 Bft) 92,11 %
09.05.2019 15:26 16,2 C 14,4 C 31,1 C 56 % 1001,8 hPa 0,0 l/m 5,9 km/h (2 Bft) S 187 2 min 0,000 mm 2,5 UV-I 806 W/m 7,4 C 16,2 C 11,3 km/h (2 Bft) 97,87 %
09.05.2019 15:28 16,3 C 14,4 C 31,7 C 54 % 1001,8 hPa 0,0 l/m 4,2 km/h (1 Bft) S 182 2 min 0,000 mm 2,5 UV-I 820 W/m 7,0 C 16,3 C 9,7 km/h (2 Bft) 97,87 %
09.05.2019 15:30 16,3 C 14,4 C 31,1 C 54 % 1001,8 hPa 0,0 l/m 4,6 km/h (1 Bft) S-SO 153 2 min 0,000 mm 2,4 UV-I 748 W/m 7,0 C 16,3 C 8,0 km/h (2 Bft) 95,74 %
09.05.2019 15:32 16,3 C 14,4 C 31,7 C 53 % 1001,8 hPa 0,0 l/m 2,7 km/h (1 Bft) SO 128 2 min 0,000 mm 2,4 UV-I 713 W/m 6,7 C 16,3 C 4,8 km/h (1 Bft) 97,87 %
09.05.2019 15:34 16,4 C 14,4 C 31,7 C 56 % 1001,8 hPa 0,0 l/m 2,6 km/h (1 Bft) S-SW 212 2 min 0,000 mm 2,3 UV-I 689 W/m 7,6 C 16,4 C 4,8 km/h (1 Bft) 95,83 %
09.05.2019 15:36 16,4 C 14,4 C 30,0 C 55 % 1001,7 hPa 0,0 l/m 8,1 km/h (2 Bft) SW 232 2 min 0,000 mm 2,2 UV-I 662 W/m 7,3 C 15,5 C 14,5 km/h (3 Bft) 100,00 %
09.05.2019 15:38 16,5 C 14,4 C 30,0 C 53 % 1001,8 hPa 0,0 l/m 9,3 km/h (2 Bft) W 261 2 min 0,000 mm 2,3 UV-I 708 W/m 6,9 C 15,1 C 16,1 km/h (3 Bft) 98,11 %
09.05.2019 15:40 16,4 C 14,4 C 30,0 C 52 % 1001,8 hPa 0,0 l/m 3,1 km/h (1 Bft) W 263 2 min 0,000 mm 2,3 UV-I 752 W/m 6,5 C 16,4 C 4,8 km/h (1 Bft) 98,00 %
09.05.2019 15:42 16,3 C 14,4 C 29,4 C 54 % 1001,7 hPa 0,0 l/m 4,2 km/h (1 Bft) W-SW 241 2 min 0,000 mm 2,1 UV-I 782 W/m 7,0 C 16,3 C 4,8 km/h (1 Bft) 100,00 %
09.05.2019 15:44 16,4 C 14,4 C 27,8 C 53 % 1001,7 hPa 0,0 l/m 7,2 km/h (2 Bft) SW 229 2 min 0,000 mm 1,5 UV-I 480 W/m 6,8 C 16,0 C 16,1 km/h (3 Bft) 100,00 %
09.05.2019 15:46 16,4 C 14,4 C 26,1 C 53 % 1001,7 hPa 0,0 l/m 7,4 km/h (2 Bft) SW 220 0 min 0,000 mm 1,4 UV-I 322 W/m 6,8 C 15,9 C 12,9 km/h (3 Bft) 100,00 %
09.05.2019 15:49 16,1 C 14,4 C 23,3 C 52 % 1001,7 hPa 0,0 l/m 6,9 km/h (2 Bft) W-SW 238 0 min 0,000 mm 1,2 UV-I 281 W/m 6,2 C 15,8 C 14,5 km/h (3 Bft) 98,51 %
09.05.2019 15:50 16,0 C 14,4 C 22,8 C 51 % 1001,7 hPa 0,0 l/m 2,7 km/h (1 Bft) W-SW 237 0 min 0,000 mm 1,2 UV-I 268 W/m 5,9 C 16,0 C 3,2 km/h (1 Bft) 100,00 %
09.05.2019 15:52 15,8 C 14,4 C 22,2 C 51 % 1001,7 hPa 0,0 l/m 2,1 km/h (1 Bft) SW 233 0 min 0,000 mm 1,1 UV-I 258 W/m 5,7 C 15,8 C 4,8 km/h (1 Bft) 100,00 %
09.05.2019 15:54 15,6 C 14,4 C 21,7 C 51 % 1001,7 hPa 0,0 l/m 1,3 km/h (1 Bft) SW 231 0 min 0,000 mm 1,2 UV-I 261 W/m 5,5 C 15,6 C 3,2 km/h (1 Bft) 100,00 %
09.05.2019 15:56 15,6 C 14,4 C 22,2 C 54 % 1001,7 hPa 0,0 l/m 1,8 km/h (1 Bft) SW 230 0 min 0,000 mm 1,3 UV-I 307 W/m 6,3 C 15,6 C 4,8 km/h (1 Bft) 100,00 %
09.05.2019 15:58 15,7 C 14,4 C 21,7 C 53 % 1001,7 hPa 0,0 l/m 6,0 km/h (2 Bft) S-SW 194 0 min 0,000 mm 1,2 UV-I 258 W/m 6,1 C 15,7 C 9,7 km/h (2 Bft) 100,00 %
09.05.2019 16:00 15,7 C 14,4 C 21,1 C 54 % 1001,7 hPa 0,0 l/m 4,4 km/h (1 Bft) S-SW 199 0 min 0,000 mm 1,0 UV-I 230 W/m 6,4 C 15,7 C 8,0 km/h (2 Bft) 100,00 %
09.05.2019 16:02 15,6 C 14,4 C 20,0 C 52 % 1001,7 hPa 0,0 l/m 3,7 km/h (1 Bft) S-SW 192 0 min 0,356 mm 0,9 UV-I 214 W/m 5,8 C 15,6 C 6,4 km/h (2 Bft) 100,00 %
09.05.2019 16:04 15,5 C 14,4 C 20,0 C 55 % 1001,7 hPa 0,0 l/m 2,1 km/h (1 Bft) S-SO 156 0 min 0,000 mm 0,8 UV-I 214 W/m 6,5 C 15,5 C 6,4 km/h (2 Bft) 97,56 %
09.05.2019 16:06 15,6 C 14,4 C 19,4 C 56 % 1001,7 hPa 0,0 l/m 1,5 km/h (1 Bft) S-SO 168 0 min 0,000 mm 0,8 UV-I 220 W/m 6,9 C 15,6 C 3,2 km/h (1 Bft) 96,00 %
09.05.2019 16:08 15,6 C 14,4 C 20,0 C 55 % 1001,7 hPa 0,0 l/m 3,3 km/h (1 Bft) W-SW 241 0 min 0,000 mm 0,8 UV-I 243 W/m 6,6 C 15,6 C 4,8 km/h (1 Bft) 100,00 %
09.05.2019 16:10 15,7 C 14,4 C 20,6 C 55 % 1001,7 hPa 0,0 l/m 3,0 km/h (1 Bft) W-SW 252 0 min 0,000 mm 1,0 UV-I 290 W/m 6,7 C 15,7 C 4,8 km/h (1 Bft) 100,00 %
09.05.2019 16:12 15,8 C 14,4 C 21,7 C 55 % 1001,6 hPa 0,0 l/m 1,8 km/h (1 Bft) W-SW 243 0 min 0,000 mm 1,2 UV-I 316 W/m 6,8 C 15,8 C 4,8 km/h (1 Bft) 100,00 %
09.05.2019 16:14 15,9 C 14,4 C 21,7 C 56 % 1001,6 hPa 0,0 l/m 4,1 km/h (1 Bft) W-SW 245 0 min 0,000 mm 1,1 UV-I 313 W/m 7,1 C 15,9 C 8,0 km/h (2 Bft) 100,00 %
09.05.2019 16:16 16,1 C 14,4 C 21,7 C 56 % 1001,7 hPa 0,0 l/m 5,8 km/h (2 Bft) S-SO 163 0 min 0,000 mm 0,9 UV-I 242 W/m 7,3 C 16,1 C 9,7 km/h (2 Bft) 97,73 %
09.05.2019 16:18 15,9 C 14,4 C 20,6 C 55 % 1001,7 hPa 0,0 l/m 6,9 km/h (2 Bft) S 176 0 min 0,000 mm 0,8 UV-I 203 W/m 6,9 C 15,6 C 12,9 km/h (3 Bft) 100,00 %
09.05.2019 16:20 15,8 C 14,4 C 20,6 C 55 % 1001,7 hPa 0,0 l/m 4,0 km/h (1 Bft) SO 134 0 min 0,000 mm 0,7 UV-I 190 W/m 6,8 C 15,8 C 6,4 km/h (2 Bft) 100,00 %
09.05.2019 16:22 15,7 C 14,4 C 20,0 C 57 % 1001,6 hPa 0,0 l/m 3,6 km/h (1 Bft) SO 129 0 min 0,000 mm 0,7 UV-I 196 W/m 7,2 C 15,7 C 6,4 km/h (2 Bft) 100,00 %
09.05.2019 16:24 15,6 C 14,4 C 20,0 C 56 % 1001,6 hPa 0,0 l/m 3,8 km/h (1 Bft) O-SO 113 0 min 0,000 mm 0,8 UV-I 230 W/m 6,9 C 15,6 C 6,4 km/h (2 Bft) 100,00 %
09.05.2019 16:26 15,6 C 14,4 C 20,6 C 60 % 1001,6 hPa 0,0 l/m 4,1 km/h (1 Bft) O-SO 116 0 min 0,000 mm 0,9 UV-I 253 W/m 7,9 C 15,6 C 6,4 km/h (2 Bft) 100,00 %
09.05.2019 16:28 15,7 C 14,4 C 21,1 C 60 % 1001,6 hPa 0,0 l/m 7,4 km/h (2 Bft) O-SO 119 0 min 0,000 mm 1,0 UV-I 262 W/m 8,0 C 15,2 C 12,9 km/h (3 Bft) 100,00 %
09.05.2019 16:30 15,8 C 14,4 C 21,1 C 60 % 1001,6 hPa 0,0 l/m 6,6 km/h (2 Bft) SO 124 0 min 0,000 mm 0,9 UV-I 265 W/m 8,1 C 15,7 C 11,3 km/h (2 Bft) 100,00 %
09.05.2019 16:32 15,8 C 14,4 C 21,1 C 56 % 1001,6 hPa 0,0 l/m 7,1 km/h (2 Bft) S-SO 150 0 min 0,000 mm 0,9 UV-I 246 W/m 7,0 C 15,4 C 12,9 km/h (3 Bft) 100,00 %
09.05.2019 16:34 15,7 C 14,4 C 21,1 C 57 % 1001,6 hPa 0,0 l/m 3,5 km/h (1 Bft) O-SO 114 0 min 0,000 mm 0,8 UV-I 207 W/m 7,2 C 15,7 C 6,4 km/h (2 Bft) 100,00 %
09.05.2019 16:36 15,6 C 14,4 C 20,6 C 58 % 1001,6 hPa 0,0 l/m 2,7 km/h (1 Bft) O-SO 114 0 min 0,000 mm 0,7 UV-I 186 W/m 7,4 C 15,6 C 6,4 km/h (2 Bft) 100,00 %
09.05.2019 16:38 15,6 C 14,4 C 20,0 C 57 % 1001,6 hPa 0,0 l/m 4,9 km/h (1 Bft) O-SO 117 0 min 0,000 mm 0,7 UV-I 160 W/m 7,1 C 15,6 C 9,7 km/h (2 Bft) 100,00 %
09.05.2019 16:40 15,4 C 14,4 C 19,4 C 58 % 1001,6 hPa 0,0 l/m 8,1 km/h (2 Bft) SO 141 0 min 0,000 mm 0,5 UV-I 127 W/m 7,2 C 14,5 C 14,5 km/h (3 Bft) 96,43 %
09.05.2019 16:42 15,4 C 14,4 C 18,3 C 57 % 1001,6 hPa 0,0 l/m 6,7 km/h (2 Bft) SW 228 0 min 0,000 mm 0,0 UV-I 96 W/m 6,9 C 15,2 C 9,7 km/h (2 Bft) 94,74 %
09.05.2019 16:44 15,3 C 14,4 C 17,8 C 56 % 1001,6 hPa 0,0 l/m 4,6 km/h (1 Bft) SW 219 0 min 0,000 mm 0,0 UV-I 81 W/m 6,6 C 15,3 C 8,0 km/h (2 Bft) 96,43 %
09.05.2019 16:46 15,3 C 14,4 C 17,2 C 56 % 1001,7 hPa 0,0 l/m 9,4 km/h (2 Bft) S-SW 209 0 min 0,000 mm 0,0 UV-I 68 W/m 6,6 C 13,7 C 14,5 km/h (3 Bft) 94,74 %
09.05.2019 16:48 15,3 C 14,4 C 16,7 C 56 % 1001,7 hPa 0,0 l/m 6,7 km/h (2 Bft) SW 220 0 min 0,000 mm 0,0 UV-I 60 W/m 6,6 C 15,1 C 9,7 km/h (2 Bft) 96,23 %
09.05.2019 16:50 15,2 C 14,4 C 16,1 C 55 % 1001,7 hPa 0,0 l/m 5,8 km/h (2 Bft) W 263 0 min 0,000 mm 0,0 UV-I 50 W/m 6,2 C 15,2 C 8,0 km/h (2 Bft) 95,74 %
09.05.2019 16:52 15,2 C 14,4 C 15,6 C 55 % 1001,7 hPa 0,0 l/m 4,2 km/h (1 Bft) W 268 0 min 0,000 mm 0,0 UV-I 49 W/m 6,2 C 15,2 C 6,4 km/h (2 Bft) 95,74 %
09.05.2019 16:54 15,1 C 14,4 C 15,6 C 57 % 1001,7 hPa 0,0 l/m 4,0 km/h (1 Bft) S 187 0 min 0,000 mm 0,0 UV-I 44 W/m 6,6 C 15,1 C 6,4 km/h (2 Bft) 94,87 %
09.05.2019 16:56 15,1 C 14,4 C 15,6 C 58 % 1001,7 hPa 0,0 l/m 4,5 km/h (1 Bft) S-SW 199 0 min 0,000 mm 0,0 UV-I 35 W/m 6,9 C 15,1 C 6,4 km/h (2 Bft) 92,45 %
09.05.2019 16:58 15,1 C 14,4 C 15,0 C 58 % 1001,8 hPa 0,0 l/m 5,6 km/h (1 Bft) S-SW 203 0 min 0,000 mm 0,0 UV-I 33 W/m 6,9 C 15,1 C 9,7 km/h (2 Bft) 95,12 %
09.05.2019 17:00 15,0 C 14,4 C 15,0 C 58 % 1001,8 hPa 0,0 l/m 6,8 km/h (2 Bft) S-SO 167 0 min 0,127 mm 0,0 UV-I 42 W/m 6,8 C 14,8 C 9,7 km/h (2 Bft) 96,23 %
09.05.2019 17:02 14,9 C 14,4 C 15,0 C 59 % 1001,8 hPa 0,0 l/m 6,1 km/h (2 Bft) S 180 0 min 0,000 mm 0,0 UV-I 58 W/m 7,0 C 14,9 C 8,0 km/h (2 Bft) 96,00 %
09.05.2019 17:04 14,9 C 14,4 C 15,6 C 58 % 1001,7 hPa 0,0 l/m 6,7 km/h (2 Bft) S 176 0 min 0,000 mm 0,0 UV-I 74 W/m 6,7 C 14,7 C 9,7 km/h (2 Bft) 93,18 %
09.05.2019 17:06 15,0 C 14,4 C 15,6 C 59 % 1001,7 hPa 0,0 l/m 6,4 km/h (2 Bft) S 173 0 min 0,000 mm 0,0 UV-I 76 W/m 7,1 C 15,0 C 11,3 km/h (2 Bft) 95,74 %
09.05.2019 17:08 15,0 C 14,4 C 15,6 C 62 % 1001,7 hPa 0,0 l/m 2,3 km/h (1 Bft) S 172 0 min 0,000 mm 0,0 UV-I 65 W/m 7,8 C 15,0 C 4,8 km/h (1 Bft) 98,00 %
09.05.2019 17:10 15,0 C 14,4 C 15,6 C 60 % 1001,7 hPa 0,0 l/m 4,3 km/h (1 Bft) S 175 0 min 0,000 mm 0,0 UV-I 48 W/m 7,3 C 15,0 C 8,0 km/h (2 Bft) 97,73 %
09.05.2019 17:12 15,1 C 14,4 C 15,6 C 60 % 1001,7 hPa 0,0 l/m 2,4 km/h (1 Bft) S 175 0 min 0,000 mm 0,0 UV-I 35 W/m 7,4 C 15,1 C 4,8 km/h (1 Bft) 95,12 %
09.05.2019 17:14 15,0 C 14,4 C 15,0 C 60 % 1001,8 hPa 0,0 l/m 3,1 km/h (1 Bft) S-SW 207 0 min 0,000 mm 0,0 UV-I 26 W/m 7,3 C 15,0 C 4,8 km/h (1 Bft) 94,00 %
09.05.2019 17:16 14,9 C 14,4 C 15,0 C 60 % 1002,0 hPa 0,0 l/m 4,4 km/h (1 Bft) W-SW 253 0 min 0,000 mm 0,0 UV-I 17 W/m 7,2 C 14,9 C 6,4 km/h (2 Bft) 96,00 %
09.05.2019 17:18 14,8 C 14,4 C 14,4 C 61 % 1002,1 hPa 0,0 l/m 6,7 km/h (2 Bft) W 273 0 min 0,000 mm 0,0 UV-I 14 W/m 7,4 C 14,6 C 9,7 km/h (2 Bft) 97,87 %
09.05.2019 17:20 14,7 C 14,4 C 14,4 C 64 % 1002,3 hPa 0,0 l/m 8,3 km/h (2 Bft) W 268 0 min 0,000 mm 0,0 UV-I 15 W/m 8,0 C 13,6 C 11,3 km/h (2 Bft) 94,74 %
09.05.2019 17:22 14,5 C 14,4 C 13,3 C 65 % 1002,3 hPa 0,0 l/m 13,5 km/h (3 Bft) NW 319 0 min 0,000 mm 0,0 UV-I 20 W/m 8,0 C 11,1 C 27,4 km/h (4 Bft) 97,87 %
09.05.2019 17:24 14,2 C 14,4 C 12,8 C 68 % 1002,4 hPa 0,0 l/m 8,2 km/h (2 Bft) W-NW 287 0 min 0,000 mm 0,0 UV-I 31 W/m 8,4 C 13,2 C 14,5 km/h (3 Bft) 98,11 %
09.05.2019 17:26 13,8 C 14,4 C 12,2 C 72 % 1002,4 hPa 0,2 l/m 8,0 km/h (2 Bft) W 263 0 min 0,000 mm 0,0 UV-I 49 W/m 8,8 C 12,8 C 19,3 km/h (3 Bft) 97,62 %
09.05.2019 17:28 13,2 C 14,4 C 11,7 C 76 % 1002,5 hPa 0,2 l/m 9,3 km/h (2 Bft) W-SW 257 0 min 0,000 mm 0,0 UV-I 59 W/m 9,1 C 11,5 C 17,7 km/h (3 Bft) 98,00 %
09.05.2019 17:30 12,7 C 14,4 C 11,7 C 79 % 1002,5 hPa 0,0 l/m 4,6 km/h (1 Bft) NW 316 0 min 0,000 mm 0,0 UV-I 66 W/m 9,2 C 12,7 C 14,5 km/h (3 Bft) 97,14 %
09.05.2019 17:32 12,3 C 14,4 C 11,7 C 81 % 1002,4 hPa 0,0 l/m 4,4 km/h (1 Bft) N 9 0 min 0,000 mm 0,0 UV-I 89 W/m 9,1 C 12,3 C 8,0 km/h (2 Bft) 98,11 %
09.05.2019 17:34 12,2 C 14,4 C 12,2 C 83 % 1002,4 hPa 0,0 l/m 9,1 km/h (2 Bft) N-NO 21 0 min 0,000 mm 0,0 UV-I 116 W/m 9,4 C 10,5 C 12,9 km/h (3 Bft) 96,00 %
09.05.2019 17:36 12,0 C 14,4 C 12,2 C 85 % 1002,4 hPa 0,0 l/m 11,3 km/h (2 Bft) N-NO 12 0 min 0,000 mm 0,0 UV-I 134 W/m 9,6 C 9,1 C 16,1 km/h (3 Bft) 98,11 %
09.05.2019 17:38 11,8 C 14,4 C 12,2 C 85 % 1002,4 hPa 0,0 l/m 8,4 km/h (2 Bft) W-NW 300 0 min 0,000 mm 0,0 UV-I 145 W/m 9,4 C 10,5 C 12,9 km/h (3 Bft) 100,00 %
09.05.2019 17:40 11,8 C 14,4 C 12,2 C 85 % 1002,4 hPa 0,0 l/m 10,6 km/h (2 Bft) NW 326 0 min 0,000 mm 0,0 UV-I 138 W/m 9,4 C 9,3 C 14,5 km/h (3 Bft) 96,43 %
09.05.2019 17:42 11,7 C 14,4 C 12,2 C 84 % 1002,4 hPa 0,0 l/m 8,4 km/h (2 Bft) N-NW 330 0 min 0,000 mm 0,0 UV-I 139 W/m 9,1 C 10,4 C 12,9 km/h (3 Bft) 96,72 %
09.05.2019 17:44 11,7 C 14,4 C 13,3 C 84 % 1002,4 hPa 0,0 l/m 5,8 km/h (2 Bft) N 5 0 min 0,000 mm 0,0 UV-I 173 W/m 9,1 C 11,7 C 8,0 km/h (2 Bft) 97,37 %
09.05.2019 17:46 11,8 C 14,4 C 13,9 C 85 % 1002,4 hPa 0,0 l/m 7,2 km/h (2 Bft) N 5 0 min 0,000 mm 0,1 UV-I 231 W/m 9,4 C 11,3 C 12,9 km/h (3 Bft) 97,87 %
09.05.2019 17:48 11,9 C 14,4 C 15,6 C 85 % 1002,4 hPa 0,0 l/m 4,9 km/h (1 Bft) N-NO 13 2 min 0,000 mm 0,5 UV-I 259 W/m 9,5 C 11,9 C 8,0 km/h (2 Bft) 97,14 %
09.05.2019 17:50 12,2 C 14,4 C 18,3 C 85 % 1002,3 hPa 0,0 l/m 6,8 km/h (2 Bft) N 10 2 min 0,000 mm 0,7 UV-I 476 W/m 9,8 C 11,9 C 11,3 km/h (2 Bft) 98,21 %
09.05.2019 17:52 12,6 C 14,4 C 20,0 C 85 % 1002,4 hPa 0,0 l/m 8,9 km/h (2 Bft) N 355 2 min 0,000 mm 0,7 UV-I 452 W/m 10,1 C 11,1 C 14,5 km/h (3 Bft) 98,00 %
09.05.2019 17:54 12,7 C 14,4 C 20,0 C 82 % 1002,4 hPa 0,0 l/m 5,4 km/h (1 Bft) NW 311 2 min 0,000 mm 0,7 UV-I 393 W/m 9,7 C 12,7 C 12,9 km/h (3 Bft) 96,23 %
09.05.2019 17:56 12,9 C 14,4 C 21,1 C 82 % 1002,4 hPa 0,0 l/m 4,2 km/h (1 Bft) N-NW 345 2 min 0,000 mm 0,7 UV-I 363 W/m 9,9 C 12,9 C 6,4 km/h (2 Bft) 97,37 %
09.05.2019 17:58 13,1 C 14,4 C 21,7 C 81 % 1002,3 hPa 0,0 l/m 5,5 km/h (1 Bft) N 10 2 min 0,000 mm 0,6 UV-I 340 W/m 9,9 C 13,1 C 9,7 km/h (2 Bft) 98,00 %
09.05.2019 18:00 13,2 C 14,4 C 21,7 C 79 % 1002,3 hPa 0,0 l/m 6,9 km/h (2 Bft) N 9 2 min 0,000 mm 0,6 UV-I 328 W/m 9,6 C 12,9 C 11,3 km/h (2 Bft) 98,00 %
09.05.2019 18:02 13,3 C 14,4 C 21,7 C 78 % 1002,2 hPa 0,0 l/m 6,7 km/h (2 Bft) N 5 2 min 0,101 mm 0,6 UV-I 319 W/m 9,5 C 13,1 C 8,0 km/h (2 Bft) 97,87 %
09.05.2019 18:04 13,4 C 14,4 C 21,7 C 79 % 1002,2 hPa 0,0 l/m 6,6 km/h (2 Bft) N-NO 29 2 min 0,000 mm 0,6 UV-I 313 W/m 9,8 C 13,3 C 11,3 km/h (2 Bft) 97,44 %
09.05.2019 18:06 13,4 C 14,4 C 22,2 C 77 % 1002,2 hPa 0,0 l/m 5,5 km/h (1 Bft) N-NW 332 2 min 0,000 mm 0,6 UV-I 309 W/m 9,5 C 13,4 C 8,0 km/h (2 Bft) 100,00 %
09.05.2019 18:08 13,5 C 14,4 C 22,2 C 76 % 1002,2 hPa 0,0 l/m 5,2 km/h (1 Bft) N 350 2 min 0,000 mm 0,6 UV-I 305 W/m 9,4 C 13,5 C 6,4 km/h (2 Bft) 96,00 %
09.05.2019 18:10 13,6 C 14,4 C 22,8 C 77 % 1002,1 hPa 0,0 l/m 3,8 km/h (1 Bft) N 5 2 min 0,000 mm 0,5 UV-I 299 W/m 9,6 C 13,6 C 4,8 km/h (1 Bft) 96,00 %
09.05.2019 18:12 13,7 C 14,4 C 23,3 C 78 % 1002,1 hPa 0,0 l/m 2,4 km/h (1 Bft) N 5 2 min 0,000 mm 0,5 UV-I 295 W/m 9,9 C 13,7 C 3,2 km/h (1 Bft) 92,00 %
09.05.2019 18:14 13,8 C 14,4 C 23,3 C 76 % 1002,2 hPa 0,0 l/m 2,5 km/h (1 Bft) N 5 2 min 0,000 mm 0,5 UV-I 291 W/m 9,6 C 13,8 C 3,2 km/h (1 Bft) 95,12 %
09.05.2019 18:16 13,9 C 14,4 C 23,3 C 78 % 1002,2 hPa 0,0 l/m 1,4 km/h (1 Bft) N 5 2 min 0,000 mm 0,5 UV-I 285 W/m 10,1 C 13,9 C 3,2 km/h (1 Bft) 96,00 %
09.05.2019 18:18 13,9 C 14,4 C 23,3 C 76 % 1002,2 hPa 0,0 l/m 0,7 km/h (0 Bft) N 5 2 min 0,000 mm 0,5 UV-I 280 W/m 9,7 C 13,9 C 1,6 km/h (1 Bft) 97,37 %
09.05.2019 18:20 14,0 C 14,4 C 23,3 C 75 % 1002,2 hPa 0,0 l/m 0,9 km/h (0 Bft) W-NW 302 2 min 0,000 mm 0,5 UV-I 275 W/m 9,6 C 14,0 C 3,2 km/h (1 Bft) 97,87 %
09.05.2019 18:22 14,1 C 14,4 C 23,3 C 75 % 1002,1 hPa 0,0 l/m 2,6 km/h (1 Bft) W-NW 302 2 min 0,000 mm 0,5 UV-I 271 W/m 9,7 C 14,1 C 4,8 km/h (1 Bft) 95,74 %
09.05.2019 18:24 14,1 C 14,4 C 23,9 C 74 % 1002,1 hPa 0,0 l/m 2,0 km/h (1 Bft) W-NW 301 2 min 0,000 mm 0,1 UV-I 265 W/m 9,5 C 14,1 C 4,8 km/h (1 Bft) 95,74 %
09.05.2019 18:26 14,1 C 14,4 C 23,3 C 72 % 1002,2 hPa 0,0 l/m 2,3 km/h (1 Bft) W-NW 286 2 min 0,000 mm 0,0 UV-I 260 W/m 9,1 C 14,1 C 4,8 km/h (1 Bft) 98,00 %
09.05.2019 18:28 14,1 C 14,4 C 23,3 C 72 % 1002,2 hPa 0,0 l/m 2,5 km/h (1 Bft) W-NW 286 2 min 0,000 mm 0,0 UV-I 254 W/m 9,1 C 14,1 C 4,8 km/h (1 Bft) 98,00 %
09.05.2019 18:30 14,1 C 14,4 C 23,3 C 72 % 1002,2 hPa 0,0 l/m 2,0 km/h (1 Bft) W-NW 285 2 min 0,000 mm 0,0 UV-I 249 W/m 9,1 C 14,1 C 4,8 km/h (1 Bft) 94,74 %
09.05.2019 18:32 13,9 C 14,4 C 23,9 C 74 % 1002,2 hPa 0,0 l/m 1,7 km/h (1 Bft) W-NW 286 2 min 0,000 mm 0,0 UV-I 244 W/m 9,3 C 13,9 C 4,8 km/h (1 Bft) 98,11 %
09.05.2019 18:34 14,2 C 14,4 C 23,9 C 74 % 1002,3 hPa 0,0 l/m 1,6 km/h (1 Bft) W-NW 286 2 min 0,000 mm 0,0 UV-I 238 W/m 9,6 C 14,2 C 3,2 km/h (1 Bft) 100,00 %
09.05.2019 18:36 14,2 C 14,4 C 23,3 C 72 % 1002,3 hPa 0,0 l/m 1,2 km/h (1 Bft) W-NW 286 2 min 0,000 mm 0,0 UV-I 233 W/m 9,2 C 14,2 C 3,2 km/h (1 Bft) 97,87 %
09.05.2019 18:38 14,2 C 14,4 C 23,3 C 72 % 1002,3 hPa 0,0 l/m 2,8 km/h (1 Bft) SW 230 2 min 0,000 mm 0,0 UV-I 226 W/m 9,2 C 14,2 C 4,8 km/h (1 Bft) 100,00 %
09.05.2019 18:40 14,1 C 14,4 C 23,3 C 72 % 1002,4 hPa 0,0 l/m 3,7 km/h (1 Bft) S-SW 207 2 min 0,000 mm 0,0 UV-I 220 W/m 9,1 C 14,1 C 6,4 km/h (2 Bft) 97,37 %
09.05.2019 18:42 14,1 C 14,4 C 23,3 C 72 % 1002,4 hPa 0,0 l/m 5,8 km/h (2 Bft) S-SW 210 2 min 0,000 mm 0,0 UV-I 215 W/m 9,1 C 14,1 C 8,0 km/h (2 Bft) 96,23 %
09.05.2019 18:44 14,1 C 14,4 C 23,3 C 71 % 1002,4 hPa 0,0 l/m 3,7 km/h (1 Bft) S-SW 210 2 min 0,000 mm 0,0 UV-I 209 W/m 8,9 C 14,1 C 4,8 km/h (1 Bft) 97,62 %
09.05.2019 18:46 14,1 C 14,4 C 22,8 C 71 % 1002,3 hPa 0,0 l/m 3,5 km/h (1 Bft) S-SW 202 2 min 0,000 mm 0,0 UV-I 205 W/m 8,9 C 14,1 C 6,4 km/h (2 Bft) 96,15 %
09.05.2019 18:48 13,9 C 14,4 C 22,8 C 71 % 1002,3 hPa 0,0 l/m 3,6 km/h (1 Bft) S 173 2 min 0,000 mm 0,0 UV-I 201 W/m 8,7 C 13,9 C 6,4 km/h (2 Bft) 100,00 %
09.05.2019 18:50 13,9 C 14,4 C 22,8 C 73 % 1002,2 hPa 0,0 l/m 4,1 km/h (1 Bft) S-SO 152 2 min 0,000 mm 0,0 UV-I 195 W/m 9,1 C 13,9 C 6,4 km/h (2 Bft) 97,37 %
09.05.2019 18:52 14,1 C 14,4 C 22,2 C 73 % 1002,1 hPa 0,0 l/m 5,3 km/h (1 Bft) S 182 2 min 0,000 mm 0,0 UV-I 190 W/m 9,3 C 14,1 C 8,0 km/h (2 Bft) 98,11 %
09.05.2019 18:54 14,1 C 14,4 C 22,2 C 73 % 1002,2 hPa 0,0 l/m 2,7 km/h (1 Bft) S 182 2 min 0,000 mm 0,0 UV-I 185 W/m 9,3 C 14,1 C 6,4 km/h (2 Bft) 97,87 %
09.05.2019 18:56 14,1 C 14,4 C 21,7 C 72 % 1002,2 hPa 0,0 l/m 4,2 km/h (1 Bft) S-SW 198 2 min 0,000 mm 0,0 UV-I 179 W/m 9,1 C 14,1 C 8,0 km/h (2 Bft) 94,00 %
09.05.2019 18:58 14,1 C 14,4 C 21,7 C 71 % 1002,2 hPa 0,0 l/m 6,7 km/h (2 Bft) S 178 2 min 0,000 mm 0,0 UV-I 174 W/m 8,9 C 13,9 C 9,7 km/h (2 Bft) 93,62 %
09.05.2019 19:00 14,1 C 14,4 C 21,1 C 71 % 1002,2 hPa 0,0 l/m 7,0 km/h (2 Bft) S 171 2 min 0,127 mm 0,0 UV-I 168 W/m 8,9 C 13,7 C 11,3 km/h (2 Bft) 97,56 %
09.05.2019 19:02 14,0 C 14,4 C 21,1 C 71 % 1002,2 hPa 0,0 l/m 6,0 km/h (2 Bft) S 174 2 min 0,000 mm 0,0 UV-I 163 W/m 8,8 C 14,0 C 9,7 km/h (2 Bft) 97,87 %
09.05.2019 19:04 13,9 C 14,4 C 20,6 C 70 % 1002,3 hPa 0,0 l/m 5,9 km/h (2 Bft) S 178 2 min 0,000 mm 0,0 UV-I 158 W/m 8,5 C 13,9 C 9,7 km/h (2 Bft) 96,00 %
09.05.2019 19:06 13,9 C 14,4 C 20,6 C 68 % 1002,3 hPa 0,0 l/m 4,2 km/h (1 Bft) S 175 2 min 0,000 mm 0,0 UV-I 154 W/m 8,1 C 13,9 C 4,8 km/h (1 Bft) 98,00 %
09.05.2019 19:08 14,0 C 14,4 C 20,6 C 69 % 1002,3 hPa 0,0 l/m 4,1 km/h (1 Bft) S-SW 197 2 min 0,000 mm 0,0 UV-I 150 W/m 8,4 C 14,0 C 6,4 km/h (2 Bft) 94,74 %
09.05.2019 19:10 14,1 C 14,4 C 20,6 C 68 % 1002,3 hPa 0,0 l/m 6,3 km/h (2 Bft) S-SW 205 2 min 0,000 mm 0,0 UV-I 144 W/m 8,3 C 14,1 C 9,7 km/h (2 Bft) 95,45 %
09.05.2019 19:12 14,0 C 14,4 C 20,0 C 69 % 1002,3 hPa 0,0 l/m 5,5 km/h (1 Bft) S 186 2 min 0,000 mm 0,0 UV-I 140 W/m 8,4 C 14,0 C 9,7 km/h (2 Bft) 98,11 %
09.05.2019 19:14 14,0 C 14,4 C 19,4 C 71 % 1002,3 hPa 0,0 l/m 3,9 km/h (1 Bft) S 186 2 min 0,000 mm 0,0 UV-I 134 W/m 8,8 C 14,0 C 8,0 km/h (2 Bft) 97,56 %
09.05.2019 19:16 14,0 C 14,4 C 19,4 C 70 % 1002,4 hPa 0,0 l/m 6,1 km/h (2 Bft) S-SW 198 2 min 0,000 mm 0,0 UV-I 130 W/m 8,6 C 14,0 C 9,7 km/h (2 Bft) 93,62 %
09.05.2019 19:18 13,9 C 14,4 C 18,9 C 70 % 1002,4 hPa 0,0 l/m 7,1 km/h (2 Bft) S 173 2 min 0,000 mm 0,0 UV-I 124 W/m 8,5 C 13,5 C 11,3 km/h (2 Bft) 97,87 %
09.05.2019 19:20 13,8 C 14,4 C 18,9 C 70 % 1002,4 hPa 0,0 l/m 7,4 km/h (2 Bft) S 185 2 min 0,000 mm 0,0 UV-I 120 W/m 8,4 C 13,2 C 9,7 km/h (2 Bft) 100,00 %
09.05.2019 19:22 13,8 C 14,4 C 18,3 C 70 % 1002,4 hPa 0,0 l/m 6,7 km/h (2 Bft) S 191 2 min 0,000 mm 0,0 UV-I 114 W/m 8,4 C 13,6 C 9,7 km/h (2 Bft) 98,59 %
09.05.2019 19:24 13,7 C 14,4 C 17,8 C 71 % 1002,4 hPa 0,0 l/m 7,5 km/h (2 Bft) S 184 2 min 0,000 mm 0,0 UV-I 110 W/m 8,5 C 13,0 C 9,7 km/h (2 Bft) 100,00 %
09.05.2019 19:26 13,7 C 14,4 C 17,2 C 72 % 1002,4 hPa 0,0 l/m 6,1 km/h (2 Bft) S 184 0 min 0,000 mm 0,0 UV-I 67 W/m 8,7 C 13,7 C 9,7 km/h (2 Bft) 97,44 %
09.05.2019 19:28 13,6 C 14,4 C 15,6 C 72 % 1002,4 hPa 0,0 l/m 7,0 km/h (2 Bft) S-SW 204 0 min 0,000 mm 0,0 UV-I 26 W/m 8,6 C 13,2 C 11,3 km/h (2 Bft) 100,00 %
09.05.2019 19:30 13,4 C 14,4 C 15,0 C 73 % 1002,5 hPa 0,0 l/m 7,5 km/h (2 Bft) S-SW 202 0 min 0,000 mm 0,0 UV-I 25 W/m 8,7 C 12,7 C 11,3 km/h (2 Bft) 100,00 %
09.05.2019 19:32 13,3 C 14,4 C 13,9 C 74 % 1002,5 hPa 0,0 l/m 8,8 km/h (2 Bft) S-SW 200 0 min 0,000 mm 0,0 UV-I 25 W/m 8,8 C 11,9 C 14,5 km/h (3 Bft) 100,00 %
09.05.2019 19:34 13,2 C 14,4 C 13,3 C 74 % 1002,5 hPa 0,0 l/m 8,0 km/h (2 Bft) S-SW 198 0 min 0,000 mm 0,0 UV-I 23 W/m 8,7 C 12,2 C 11,3 km/h (2 Bft) 100,00 %
09.05.2019 19:36 13,1 C 14,4 C 12,8 C 75 % 1002,6 hPa 0,0 l/m 6,8 km/h (2 Bft) S 184 0 min 0,000 mm 0,0 UV-I 23 W/m 8,8 C 12,9 C 9,7 km/h (2 Bft) 100,00 %
09.05.2019 19:38 13,0 C 14,4 C 12,8 C 74 % 1002,6 hPa 0,0 l/m 5,6 km/h (1 Bft) SW 218 0 min 0,000 mm 0,0 UV-I 24 W/m 8,5 C 13,0 C 8,0 km/h (2 Bft) 94,29 %
09.05.2019 19:40 12,9 C 14,4 C 12,2 C 75 % 1002,6 hPa 0,0 l/m 6,2 km/h (2 Bft) S-SW 198 0 min 0,000 mm 0,0 UV-I 25 W/m 8,6 C 12,9 C 8,0 km/h (2 Bft) 98,00 %
09.05.2019 19:42 12,8 C 14,4 C 12,2 C 76 % 1002,7 hPa 0,0 l/m 6,5 km/h (2 Bft) SW 219 0 min 0,000 mm 0,0 UV-I 25 W/m 8,7 C 12,8 C 9,7 km/h (2 Bft) 98,00 %
09.05.2019 19:44 12,8 C 14,4 C 12,2 C 77 % 1002,7 hPa 0,0 l/m 4,6 km/h (1 Bft) SW 214 0 min 0,000 mm 0,0 UV-I 21 W/m 8,9 C 12,8 C 8,0 km/h (2 Bft) 100,00 %
09.05.2019 19:46 12,7 C 14,4 C 11,7 C 77 % 1002,8 hPa 0,0 l/m 5,1 km/h (1 Bft) S-SW 212 0 min 0,000 mm 0,0 UV-I 15 W/m 8,8 C 12,7 C 8,0 km/h (2 Bft) 96,43 %
09.05.2019 19:48 12,7 C 14,4 C 11,7 C 78 % 1002,8 hPa 0,0 l/m 5,1 km/h (1 Bft) S-SW 200 0 min 0,000 mm 0,0 UV-I 12 W/m 9,0 C 12,7 C 8,0 km/h (2 Bft) 96,00 %
09.05.2019 19:50 12,7 C 14,4 C 11,7 C 77 % 1002,9 hPa 0,0 l/m 5,8 km/h (2 Bft) SW 215 0 min 0,000 mm 0,0 UV-I 10 W/m 8,8 C 12,7 C 9,7 km/h (2 Bft) 95,74 %
09.05.2019 19:52 12,7 C 14,4 C 12,2 C 77 % 1003,0 hPa 0,0 l/m 5,2 km/h (1 Bft) SW 234 0 min 0,000 mm 0,0 UV-I 7 W/m 8,8 C 12,7 C 8,0 km/h (2 Bft) 97,37 %
09.05.2019 19:54 12,7 C 14,4 C 12,2 C 78 % 1003,0 hPa 0,0 l/m 6,9 km/h (2 Bft) S-SW 213 0 min 0,000 mm 0,0 UV-I 6 W/m 9,0 C 12,4 C 9,7 km/h (2 Bft) 94,34 %
09.05.2019 19:56 12,7 C 14,4 C 12,2 C 78 % 1003,2 hPa 0,0 l/m 6,7 km/h (2 Bft) W-SW 241 0 min 0,000 mm 0,0 UV-I 5 W/m 9,0 C 12,5 C 9,7 km/h (2 Bft) 98,00 %
09.05.2019 19:59 12,7 C 14,4 C 12,2 C 78 % 1003,4 hPa 0,0 l/m 13,1 km/h (3 Bft) W 268 0 min 0,000 mm 0,0 UV-I 2 W/m 9,0 C 9,2 C 41,8 km/h (6 Bft) 96,92 %
09.05.2019 20:00 12,8 C 14,4 C 12,2 C 76 % 1003,4 hPa 0,0 l/m 31,2 km/h (5 Bft) W-SW 242 0 min 0,000 mm 0,0 UV-I 0 W/m 8,7 C 4,4 C 41,8 km/h (6 Bft) 100,00 %
09.05.2019 20:02 12,8 C 14,4 C 12,2 C 72 % 1003,6 hPa 0,0 l/m 27,0 km/h (4 Bft) W-SW 257 0 min 0,051 mm 0,0 UV-I 0 W/m 7,9 C 5,2 C 40,2 km/h (6 Bft) 95,24 %
09.05.2019 20:04 12,8 C 14,4 C 12,2 C 71 % 1003,8 hPa 0,0 l/m 22,6 km/h (4 Bft) SW 231 0 min 0,000 mm 0,0 UV-I 0 W/m 7,7 C 6,2 C 33,8 km/h (5 Bft) 98,00 %
09.05.2019 20:06 12,6 C 14,4 C 11,7 C 71 % 1003,8 hPa 0,0 l/m 20,9 km/h (4 Bft) SW 216 0 min 0,000 mm 0,0 UV-I 0 W/m 7,5 C 6,4 C 33,8 km/h (5 Bft) 98,00 %
09.05.2019 20:08 12,3 C 14,4 C 11,7 C 73 % 1003,8 hPa 0,0 l/m 27,1 km/h (4 Bft) W-SW 248 0 min 0,000 mm 0,0 UV-I 0 W/m 7,6 C 4,5 C 43,5 km/h (6 Bft) 97,37 %
09.05.2019 20:10 12,1 C 14,4 C 11,7 C 73 % 1003,7 hPa 0,0 l/m 24,8 km/h (4 Bft) SW 221 0 min 0,000 mm 0,0 UV-I 0 W/m 7,4 C 4,7 C 38,6 km/h (5 Bft) 100,00 %
09.05.2019 20:12 11,8 C 14,4 C 11,1 C 75 % 1003,7 hPa 0,0 l/m 27,8 km/h (4 Bft) W-SW 252 0 min 0,000 mm 0,0 UV-I 0 W/m 7,5 C 3,6 C 41,8 km/h (6 Bft) 100,00 %
09.05.2019 20:14 11,5 C 14,4 C 10,6 C 77 % 1003,8 hPa 0,0 l/m 21,4 km/h (4 Bft) SW 229 0 min 0,000 mm 0,0 UV-I 0 W/m 7,6 C 4,8 C 30,6 km/h (5 Bft) 100,00 %
09.05.2019 20:16 11,3 C 14,4 C 10,6 C 79 % 1003,9 hPa 0,0 l/m 21,4 km/h (4 Bft) SW 236 0 min 0,000 mm 0,0 UV-I 0 W/m 7,8 C 4,6 C 33,8 km/h (5 Bft) 100,00 %
09.05.2019 20:18 11,1 C 14,4 C 10,0 C 80 % 1004,0 hPa 0,0 l/m 23,2 km/h (4 Bft) W-SW 245 0 min 0,000 mm 0,0 UV-I 0 W/m 7,8 C 3,8 C 32,2 km/h (5 Bft) 100,00 %
09.05.2019 20:20 10,9 C 14,4 C 10,0 C 81 % 1004,1 hPa 0,0 l/m 23,1 km/h (4 Bft) W-SW 248 0 min 0,000 mm 0,0 UV-I 0 W/m 7,8 C 3,5 C 32,2 km/h (5 Bft) 100,00 %
09.05.2019 20:22 10,8 C 14,4 C 10,0 C 82 % 1004,1 hPa 0,0 l/m 21,1 km/h (4 Bft) W-SW 246 0 min 0,000 mm 0,0 UV-I 0 W/m 7,9 C 4,0 C 29,0 km/h (5 Bft) 100,00 %
09.05.2019 20:24 10,7 C 14,4 C 10,0 C 82 % 1004,1 hPa 0,0 l/m 21,8 km/h (4 Bft) SW 227 0 min 0,000 mm 0,0 UV-I 0 W/m 7,8 C 3,6 C 35,4 km/h (5 Bft) 100,00 %
09.05.2019 20:26 10,7 C 14,4 C 9,4 C 83 % 1004,1 hPa 0,0 l/m 19,9 km/h (4 Bft) W-SW 238 0 min 0,000 mm 0,0 UV-I 0 W/m 7,9 C 4,2 C 29,0 km/h (5 Bft) 100,00 %
09.05.2019 20:28 10,6 C 14,4 C 9,4 C 83 % 1004,1 hPa 0,2 l/m 18,0 km/h (3 Bft) SW 229 0 min 0,000 mm 0,0 UV-I 0 W/m 7,8 C 4,7 C 27,4 km/h (4 Bft) 100,00 %
09.05.2019 20:30 10,5 C 14,4 C 9,4 C 84 % 1004,1 hPa 0,0 l/m 15,0 km/h (3 Bft) SW 230 0 min 0,000 mm 0,0 UV-I 0 W/m 7,9 C 5,7 C 20,9 km/h (4 Bft) 100,00 %
09.05.2019 20:32 10,4 C 14,4 C 9,4 C 85 % 1004,1 hPa 0,0 l/m 17,1 km/h (3 Bft) SW 221 0 min 0,000 mm 0,0 UV-I 0 W/m 8,0 C 4,8 C 27,4 km/h (4 Bft) 100,00 %
09.05.2019 20:34 10,3 C 14,4 C 9,4 C 85 % 1004,1 hPa 0,2 l/m 15,0 km/h (3 Bft) W-SW 240 0 min 0,000 mm 0,0 UV-I 0 W/m 7,9 C 5,5 C 25,7 km/h (4 Bft) 100,00 %
09.05.2019 20:36 10,2 C 14,4 C 9,4 C 85 % 1004,1 hPa 0,0 l/m 14,8 km/h (3 Bft) SW 227 0 min 0,000 mm 0,0 UV-I 0 W/m 7,8 C 5,5 C 24,1 km/h (4 Bft) 100,00 %
09.05.2019 20:39 10,2 C 14,4 C 9,4 C 87 % 1004,1 hPa 0,0 l/m 16,6 km/h (3 Bft) W-SW 257 0 min 0,000 mm 0,0 UV-I 0 W/m 8,1 C 4,7 C 25,7 km/h (4 Bft) 100,00 %
09.05.2019 20:40 10,2 C 14,4 C 9,4 C 87 % 1004,1 hPa 0,0 l/m 13,7 km/h (3 Bft) W-SW 248 0 min 0,000 mm 0,0 UV-I 0 W/m 8,1 C 5,9 C 19,3 km/h (3 Bft) 100,00 %
09.05.2019 20:42 10,2 C 14,4 C 9,4 C 86 % 1004,1 hPa 0,0 l/m 14,0 km/h (3 Bft) SW 217 0 min 0,000 mm 0,0 UV-I 0 W/m 8,0 C 5,8 C 22,5 km/h (4 Bft) 98,08 %
09.05.2019 20:44 10,2 C 14,4 C 9,4 C 86 % 1004,0 hPa 0,2 l/m 11,7 km/h (2 Bft) W-SW 242 0 min 0,000 mm 0,0 UV-I 0 W/m 8,0 C 6,9 C 20,9 km/h (4 Bft) 100,00 %
09.05.2019 20:46 10,2 C 14,4 C 9,4 C 86 % 1004,0 hPa 0,0 l/m 9,3 km/h (2 Bft) SW 220 0 min 0,000 mm 0,0 UV-I 0 W/m 8,0 C 8,2 C 12,9 km/h (3 Bft) 100,00 %
09.05.2019 20:48 10,2 C 14,4 C 9,4 C 86 % 1003,9 hPa 0,0 l/m 6,9 km/h (2 Bft) W-SW 237 0 min 0,000 mm 0,0 UV-I 0 W/m 8,0 C 9,8 C 11,3 km/h (2 Bft) 100,00 %
09.05.2019 20:50 10,2 C 14,4 C 9,4 C 87 % 1003,8 hPa 0,2 l/m 3,3 km/h (1 Bft) W-SW 238 0 min 0,000 mm 0,0 UV-I 0 W/m 8,1 C 10,2 C 4,8 km/h (1 Bft) 100,00 %
09.05.2019 20:52 10,1 C 14,4 C 9,4 C 87 % 1003,7 hPa 0,0 l/m 3,4 km/h (1 Bft) S 171 0 min 0,000 mm 0,0 UV-I 0 W/m 8,0 C 10,1 C 8,0 km/h (2 Bft) 98,00 %
09.05.2019 20:54 10,1 C 14,4 C 9,4 C 87 % 1003,7 hPa 0,0 l/m 6,6 km/h (2 Bft) S 178 0 min 0,000 mm 0,0 UV-I 0 W/m 8,0 C 10,0 C 9,7 km/h (2 Bft) 95,12 %
09.05.2019 20:56 10,1 C 14,4 C 10,0 C 88 % 1003,8 hPa 0,0 l/m 7,7 km/h (2 Bft) S-SW 209 0 min 0,000 mm 0,0 UV-I 0 W/m 8,2 C 9,2 C 12,9 km/h (3 Bft) 98,00 %
09.05.2019 20:58 10,1 C 14,4 C 9,4 C 88 % 1003,9 hPa 0,0 l/m 8,4 km/h (2 Bft) S-SW 202 0 min 0,000 mm 0,0 UV-I 0 W/m 8,2 C 8,7 C 11,3 km/h (2 Bft) 95,74 %
09.05.2019 21:00 9,9 C 14,4 C 9,4 C 88 % 1003,9 hPa 0,0 l/m 10,2 km/h (2 Bft) S-SW 212 0 min 0,000 mm 0,0 UV-I 0 W/m 8,0 C 7,4 C 16,1 km/h (3 Bft) 97,73 %
09.05.2019 21:02 9,9 C 14,4 C 9,4 C 88 % 1004,1 hPa 0,0 l/m 10,0 km/h (2 Bft) S-SW 203 0 min 0,026 mm 0,0 UV-I 0 W/m 8,0 C 7,5 C 16,1 km/h (3 Bft) 97,87 %
09.05.2019 21:04 9,9 C 14,4 C 9,4 C 89 % 1004,1 hPa 0,0 l/m 9,1 km/h (2 Bft) SW 215 0 min 0,000 mm 0,0 UV-I 0 W/m 8,2 C 8,0 C 14,5 km/h (3 Bft) 97,87 %
09.05.2019 21:06 9,9 C 14,4 C 9,4 C 89 % 1004,2 hPa 0,0 l/m 9,0 km/h (2 Bft) SW 230 0 min 0,000 mm 0,0 UV-I 0 W/m 8,2 C 8,1 C 14,5 km/h (3 Bft) 97,73 %
09.05.2019 21:08 9,9 C 14,4 C 9,4 C 89 % 1004,3 hPa 0,0 l/m 9,6 km/h (2 Bft) S 191 0 min 0,000 mm 0,0 UV-I 0 W/m 8,2 C 7,7 C 16,1 km/h (3 Bft) 97,87 %
09.05.2019 21:10 9,9 C 14,4 C 9,4 C 89 % 1004,3 hPa 0,0 l/m 11,3 km/h (2 Bft) SW 217 0 min 0,000 mm 0,0 UV-I 0 W/m 8,2 C 6,8 C 17,7 km/h (3 Bft) 92,00 %
09.05.2019 21:12 10,0 C 14,4 C 9,4 C 89 % 1004,4 hPa 0,0 l/m 11,1 km/h (2 Bft) SW 232 0 min 0,000 mm 0,0 UV-I 0 W/m 8,3 C 7,0 C 16,1 km/h (3 Bft) 96,23 %
09.05.2019 21:14 10,0 C 14,4 C 9,4 C 89 % 1004,5 hPa 0,0 l/m 11,0 km/h (2 Bft) SW 223 0 min 0,000 mm 0,0 UV-I 0 W/m 8,3 C 7,0 C 14,5 km/h (3 Bft) 92,31 %
09.05.2019 21:16 10,1 C 14,4 C 9,4 C 88 % 1004,6 hPa 0,0 l/m 12,5 km/h (3 Bft) SW 235 0 min 0,000 mm 0,0 UV-I 0 W/m 8,2 C 6,4 C 17,7 km/h (3 Bft) 95,74 %
09.05.2019 21:18 10,1 C 14,4 C 9,4 C 88 % 1004,7 hPa 0,0 l/m 13,1 km/h (3 Bft) W-SW 252 0 min 0,000 mm 0,0 UV-I 0 W/m 8,2 C 6,1 C 19,3 km/h (3 Bft) 95,12 %
09.05.2019 21:20 10,2 C 14,4 C 9,4 C 88 % 1004,6 hPa 0,0 l/m 12,6 km/h (3 Bft) SW 225 0 min 0,000 mm 0,0 UV-I 0 W/m 8,3 C 6,5 C 19,3 km/h (3 Bft) 93,22 %
09.05.2019 21:22 10,2 C 14,4 C 9,4 C 88 % 1004,7 hPa 0,0 l/m 12,8 km/h (3 Bft) SW 236 0 min 0,000 mm 0,0 UV-I 0 W/m 8,3 C 6,4 C 19,3 km/h (3 Bft) 95,45 %
09.05.2019 21:24 10,2 C 14,4 C 9,4 C 87 % 1004,7 hPa 0,0 l/m 13,0 km/h (3 Bft) W 261 0 min 0,000 mm 0,0 UV-I 0 W/m 8,1 C 6,3 C 16,1 km/h (3 Bft) 93,62 %
09.05.2019 21:26 10,2 C 14,4 C 9,4 C 87 % 1004,7 hPa 0,0 l/m 15,3 km/h (3 Bft) SW 231 0 min 0,000 mm 0,0 UV-I 0 W/m 8,1 C 5,3 C 24,1 km/h (4 Bft) 92,00 %
09.05.2019 21:28 10,2 C 14,4 C 9,4 C 87 % 1004,8 hPa 0,0 l/m 11,9 km/h (2 Bft) SW 225 0 min 0,000 mm 0,0 UV-I 0 W/m 8,1 C 6,8 C 16,1 km/h (3 Bft) 95,74 %
09.05.2019 21:30 10,1 C 14,4 C 9,4 C 87 % 1004,8 hPa 0,0 l/m 8,5 km/h (2 Bft) SW 236 0 min 0,000 mm 0,0 UV-I 0 W/m 8,0 C 8,6 C 14,5 km/h (3 Bft) 95,74 %
09.05.2019 21:32 10,1 C 14,4 C 9,4 C 88 % 1004,7 hPa 0,2 l/m 10,5 km/h (2 Bft) W-SW 241 0 min 0,000 mm 0,0 UV-I 0 W/m 8,2 C 7,4 C 19,3 km/h (3 Bft) 93,62 %
09.05.2019 21:34 10,1 C 14,4 C 9,4 C 88 % 1004,8 hPa 0,0 l/m 14,9 km/h (3 Bft) S-SW 211 0 min 0,000 mm 0,0 UV-I 0 W/m 8,2 C 5,3 C 24,1 km/h (4 Bft) 97,56 %
09.05.2019 21:36 10,1 C 14,4 C 9,4 C 88 % 1004,8 hPa 0,2 l/m 10,4 km/h (2 Bft) W-SW 257 0 min 0,000 mm 0,0 UV-I 0 W/m 8,2 C 7,5 C 14,5 km/h (3 Bft) 96,23 %
09.05.2019 21:38 10,1 C 14,4 C 9,4 C 88 % 1004,8 hPa 0,0 l/m 12,5 km/h (3 Bft) SW 233 0 min 0,000 mm 0,0 UV-I 0 W/m 8,2 C 6,4 C 24,1 km/h (4 Bft) 95,12 %
09.05.2019 21:40 10,1 C 14,4 C 8,9 C 87 % 1004,8 hPa 0,2 l/m 12,2 km/h (2 Bft) W-SW 258 0 min 0,000 mm 0,0 UV-I 0 W/m 8,0 C 6,5 C 19,3 km/h (3 Bft) 96,00 %
09.05.2019 21:42 10,1 C 14,4 C 8,9 C 88 % 1004,7 hPa 0,2 l/m 9,7 km/h (2 Bft) W-SW 254 0 min 0,000 mm 0,0 UV-I 0 W/m 8,2 C 7,9 C 16,1 km/h (3 Bft) 96,00 %
09.05.2019 21:44 10,0 C 14,4 C 8,9 C 87 % 1004,7 hPa 0,0 l/m 8,3 km/h (2 Bft) SW 228 0 min 0,000 mm 0,0 UV-I 0 W/m 7,9 C 8,7 C 12,9 km/h (3 Bft) 97,37 %
09.05.2019 21:46 10,0 C 14,4 C 8,9 C 88 % 1004,9 hPa 0,0 l/m 9,0 km/h (2 Bft) SW 235 0 min 0,000 mm 0,0 UV-I 0 W/m 8,1 C 8,2 C 14,5 km/h (3 Bft) 97,87 %
09.05.2019 21:49 9,9 C 14,4 C 9,4 C 88 % 1005,0 hPa 0,2 l/m 12,8 km/h (3 Bft) SW 218 0 min 0,000 mm 0,0 UV-I 0 W/m 8,0 C 6,0 C 22,5 km/h (4 Bft) 97,59 %
09.05.2019 21:50 9,9 C 14,4 C 9,4 C 89 % 1005,0 hPa 0,0 l/m 10,4 km/h (2 Bft) SW 219 0 min 0,000 mm 0,0 UV-I 0 W/m 8,2 C 7,3 C 14,5 km/h (3 Bft) 90,91 %
09.05.2019 21:52 9,9 C 14,4 C 9,4 C 89 % 1005,2 hPa 0,2 l/m 14,7 km/h (3 Bft) W-SW 239 0 min 0,000 mm 0,0 UV-I 0 W/m 8,2 C 5,1 C 20,9 km/h (4 Bft) 97,62 %
09.05.2019 21:54 9,9 C 14,4 C 8,9 C 89 % 1005,3 hPa 0,0 l/m 12,1 km/h (2 Bft) W 262 0 min 0,000 mm 0,0 UV-I 0 W/m 8,2 C 6,3 C 17,7 km/h (3 Bft) 96,36 %
09.05.2019 21:56 9,9 C 14,4 C 9,4 C 89 % 1005,4 hPa 0,0 l/m 12,2 km/h (2 Bft) W 259 0 min 0,000 mm 0,0 UV-I 0 W/m 8,2 C 6,3 C 17,7 km/h (3 Bft) 97,22 %
09.05.2019 21:58 9,8 C 14,4 C 9,4 C 89 % 1005,4 hPa 0,2 l/m 10,6 km/h (2 Bft) W-SW 245 0 min 0,000 mm 0,0 UV-I 0 W/m 8,1 C 7,0 C 16,1 km/h (3 Bft) 98,31 %
09.05.2019 22:00 9,8 C 14,4 C 8,9 C 89 % 1005,3 hPa 0,2 l/m 6,4 km/h (2 Bft) W 263 0 min 0,025 mm 0,0 UV-I 0 W/m 8,1 C 9,8 C 9,7 km/h (2 Bft) 95,74 %
09.05.2019 22:02 9,8 C 14,4 C 8,9 C 89 % 1005,2 hPa 0,0 l/m 6,4 km/h (2 Bft) SW 232 0 min 0,000 mm 0,0 UV-I 0 W/m 8,1 C 9,8 C 12,9 km/h (3 Bft) 97,56 %
09.05.2019 22:04 9,8 C 14,4 C 9,4 C 90 % 1005,1 hPa 0,0 l/m 8,1 km/h (2 Bft) S-SW 209 0 min 0,000 mm 0,0 UV-I 0 W/m 8,2 C 8,6 C 12,9 km/h (3 Bft) 98,11 %
09.05.2019 22:06 9,8 C 14,4 C 9,4 C 90 % 1005,0 hPa 0,0 l/m 8,3 km/h (2 Bft) S-SW 208 0 min 0,000 mm 0,0 UV-I 0 W/m 8,2 C 8,4 C 14,5 km/h (3 Bft) 97,56 %
09.05.2019 22:08 9,7 C 14,4 C 9,4 C 90 % 1004,9 hPa 0,0 l/m 9,8 km/h (2 Bft) S-SW 205 0 min 0,000 mm 0,0 UV-I 0 W/m 8,1 C 7,4 C 14,5 km/h (3 Bft) 96,00 %
09.05.2019 22:10 9,7 C 14,4 C 9,4 C 90 % 1005,0 hPa 0,0 l/m 7,7 km/h (2 Bft) SW 217 0 min 0,000 mm 0,0 UV-I 0 W/m 8,1 C 8,7 C 11,3 km/h (2 Bft) 96,00 %
09.05.2019 22:12 9,7 C 14,4 C 9,4 C 91 % 1005,0 hPa 0,0 l/m 8,0 km/h (2 Bft) SW 218 0 min 0,000 mm 0,0 UV-I 0 W/m 8,3 C 8,5 C 12,9 km/h (3 Bft) 97,73 %
09.05.2019 22:14 9,7 C 14,4 C 9,4 C 91 % 1005,0 hPa 0,2 l/m 6,8 km/h (2 Bft) S-SW 210 0 min 0,000 mm 0,0 UV-I 0 W/m 8,3 C 9,4 C 11,3 km/h (2 Bft) 95,12 %
09.05.2019 22:16 9,7 C 14,4 C 9,4 C 91 % 1005,0 hPa 0,0 l/m 7,2 km/h (2 Bft) SW 214 0 min 0,000 mm 0,0 UV-I 0 W/m 8,3 C 9,1 C 11,3 km/h (2 Bft) 96,43 %
09.05.2019 22:19 9,6 C 14,4 C 9,4 C 91 % 1005,2 hPa 0,0 l/m 6,1 km/h (2 Bft) SW 227 0 min 0,000 mm 0,0 UV-I 0 W/m 8,2 C 9,6 C 11,3 km/h (2 Bft) 97,37 %
09.05.2019 22:20 9,6 C 14,4 C 9,4 C 91 % 1005,2 hPa 0,0 l/m 6,9 km/h (2 Bft) S-SW 213 0 min 0,000 mm 0,0 UV-I 0 W/m 8,2 C 9,2 C 9,7 km/h (2 Bft) 100,00 %
09.05.2019 22:22 9,6 C 14,4 C 9,4 C 91 % 1005,2 hPa 0,0 l/m 7,9 km/h (2 Bft) SW 214 0 min 0,000 mm 0,0 UV-I 0 W/m 8,2 C 8,5 C 11,3 km/h (2 Bft) 94,74 %
09.05.2019 22:24 9,6 C 14,4 C 9,4 C 91 % 1005,1 hPa 0,0 l/m 6,8 km/h (2 Bft) S 190 0 min 0,000 mm 0,0 UV-I 0 W/m 8,2 C 9,3 C 11,3 km/h (2 Bft) 95,24 %
09.05.2019 22:26 9,6 C 14,4 C 9,4 C 91 % 1005,2 hPa 0,0 l/m 5,2 km/h (1 Bft) S-SW 205 0 min 0,000 mm 0,0 UV-I 0 W/m 8,2 C 9,6 C 8,0 km/h (2 Bft) 98,44 %
09.05.2019 22:28 9,6 C 14,4 C 9,4 C 91 % 1005,2 hPa 0,0 l/m 6,4 km/h (2 Bft) SW 223 0 min 0,000 mm 0,0 UV-I 0 W/m 8,2 C 9,6 C 9,7 km/h (2 Bft) 100,00 %
09.05.2019 22:30 9,5 C 14,4 C 9,4 C 92 % 1005,1 hPa 0,0 l/m 5,6 km/h (1 Bft) S-SW 209 0 min 0,000 mm 0,0 UV-I 0 W/m 8,3 C 9,5 C 8,0 km/h (2 Bft) 100,00 %
09.05.2019 22:32 9,5 C 14,4 C 9,4 C 92 % 1005,2 hPa 0,0 l/m 6,3 km/h (2 Bft) SW 222 0 min 0,000 mm 0,0 UV-I 0 W/m 8,3 C 9,5 C 11,3 km/h (2 Bft) 97,62 %
09.05.2019 22:34 9,5 C 14,4 C 9,4 C 92 % 1005,2 hPa 0,0 l/m 5,9 km/h (2 Bft) S-SW 207 0 min 0,000 mm 0,0 UV-I 0 W/m 8,3 C 9,5 C 11,3 km/h (2 Bft) 97,87 %
09.05.2019 22:36 9,5 C 14,4 C 9,4 C 92 % 1005,2 hPa 0,0 l/m 7,4 km/h (2 Bft) SW 215 0 min 0,000 mm 0,0 UV-I 0 W/m 8,3 C 8,8 C 11,3 km/h (2 Bft) 96,23 %
09.05.2019 22:38 9,5 C 14,4 C 9,4 C 92 % 1005,2 hPa 0,0 l/m 6,1 km/h (2 Bft) SW 227 0 min 0,000 mm 0,0 UV-I 0 W/m 8,3 C 9,5 C 9,7 km/h (2 Bft) 98,00 %
09.05.2019 22:40 9,6 C 14,4 C 9,4 C 92 % 1005,3 hPa 0,0 l/m 8,3 km/h (2 Bft) S-SW 204 0 min 0,000 mm 0,0 UV-I 0 W/m 8,4 C 8,2 C 11,3 km/h (2 Bft) 95,12 %
09.05.2019 22:42 9,5 C 14,4 C 9,4 C 92 % 1005,4 hPa 0,0 l/m 9,7 km/h (2 Bft) SW 219 0 min 0,000 mm 0,0 UV-I 0 W/m 8,3 C 7,2 C 12,9 km/h (3 Bft) 97,56 %
09.05.2019 22:44 9,5 C 14,4 C 9,4 C 92 % 1005,4 hPa 0,2 l/m 8,1 km/h (2 Bft) S-SW 213 0 min 0,000 mm 0,0 UV-I 0 W/m 8,3 C 8,3 C 11,3 km/h (2 Bft) 100,00 %
09.05.2019 22:46 9,6 C 14,4 C 9,4 C 92 % 1005,4 hPa 0,0 l/m 10,6 km/h (2 Bft) S-SW 193 0 min 0,000 mm 0,0 UV-I 0 W/m 8,4 C 6,8 C 14,5 km/h (3 Bft) 96,34 %
09.05.2019 22:49 9,6 C 14,4 C 9,4 C 92 % 1005,3 hPa 0,0 l/m 11,0 km/h (2 Bft) S-SW 207 0 min 0,000 mm 0,0 UV-I 0 W/m 8,4 C 6,6 C 20,9 km/h (4 Bft) 96,05 %
09.05.2019 22:50 9,6 C 14,4 C 9,4 C 92 % 1005,3 hPa 0,2 l/m 13,3 km/h (3 Bft) S-SW 196 0 min 0,000 mm 0,0 UV-I 0 W/m 8,4 C 5,4 C 16,1 km/h (3 Bft) 100,00 %
09.05.2019 22:52 9,6 C 14,4 C 9,4 C 91 % 1005,2 hPa 0,0 l/m 9,3 km/h (2 Bft) SW 217 0 min 0,000 mm 0,0 UV-I 0 W/m 8,2 C 7,6 C 14,5 km/h (3 Bft) 97,87 %
09.05.2019 22:54 9,7 C 14,4 C 9,4 C 91 % 1005,3 hPa 0,0 l/m 10,3 km/h (2 Bft) W-SW 242 0 min 0,000 mm 0,0 UV-I 0 W/m 8,3 C 7,1 C 14,5 km/h (3 Bft) 96,43 %
09.05.2019 22:56 9,8 C 14,4 C 9,4 C 91 % 1005,4 hPa 0,0 l/m 11,8 km/h (2 Bft) SW 224 0 min 0,000 mm 0,0 UV-I 0 W/m 8,4 C 6,4 C 17,7 km/h (3 Bft) 100,00 %
09.05.2019 22:58 9,8 C 14,4 C 9,4 C 91 % 1005,4 hPa 0,0 l/m 7,6 km/h (2 Bft) SW 221 0 min 0,000 mm 0,0 UV-I 0 W/m 8,4 C 8,9 C 12,9 km/h (3 Bft) 95,74 %
09.05.2019 23:00 9,7 C 14,4 C 9,4 C 91 % 1005,4 hPa 0,0 l/m 7,9 km/h (2 Bft) S-SW 213 0 min 0,000 mm 0,0 UV-I 0 W/m 8,3 C 8,6 C 11,3 km/h (2 Bft) 96,00 %
09.05.2019 23:02 9,7 C 14,4 C 9,4 C 91 % 1005,4 hPa 0,0 l/m 8,5 km/h (2 Bft) S-SW 206 0 min 0,000 mm 0,0 UV-I 0 W/m 8,3 C 8,2 C 12,9 km/h (3 Bft) 98,00 %
09.05.2019 23:04 9,7 C 14,4 C 9,4 C 91 % 1005,5 hPa 0,0 l/m 7,2 km/h (2 Bft) S-SW 211 0 min 0,000 mm 0,0 UV-I 0 W/m 8,3 C 9,1 C 11,3 km/h (2 Bft) 97,56 %
09.05.2019 23:06 9,6 C 14,4 C 9,4 C 91 % 1005,5 hPa 0,0 l/m 5,9 km/h (2 Bft) S-SW 213 0 min 0,000 mm 0,0 UV-I 0 W/m 8,2 C 9,6 C 9,7 km/h (2 Bft) 97,73 %
09.05.2019 23:08 9,7 C 14,4 C 9,4 C 92 % 1005,6 hPa 0,0 l/m 5,6 km/h (1 Bft) SW 216 0 min 0,000 mm 0,0 UV-I 0 W/m 8,5 C 9,7 C 9,7 km/h (2 Bft) 98,11 %
09.05.2019 23:10 9,7 C 14,4 C 9,4 C 91 % 1005,6 hPa 0,0 l/m 5,3 km/h (1 Bft) W-SW 242 0 min 0,000 mm 0,0 UV-I 0 W/m 8,3 C 9,7 C 6,4 km/h (2 Bft) 97,44 %
09.05.2019 23:12 9,7 C 14,4 C 9,4 C 91 % 1005,7 hPa 0,2 l/m 3,4 km/h (1 Bft) W-SW 254 0 min 0,000 mm 0,0 UV-I 0 W/m 8,3 C 9,7 C 6,4 km/h (2 Bft) 96,00 %
09.05.2019 23:14 9,7 C 14,4 C 9,4 C 92 % 1005,8 hPa 0,0 l/m 4,1 km/h (1 Bft) W 259 0 min 0,000 mm 0,0 UV-I 0 W/m 8,5 C 9,7 C 4,8 km/h (1 Bft) 98,11 %
09.05.2019 23:16 9,7 C 14,4 C 9,4 C 92 % 1005,9 hPa 0,0 l/m 4,7 km/h (1 Bft) W 260 0 min 0,000 mm 0,0 UV-I 0 W/m 8,5 C 9,7 C 6,4 km/h (2 Bft) 95,45 %
09.05.2019 23:19 9,6 C 14,4 C 9,4 C 92 % 1005,7 hPa 0,2 l/m 2,5 km/h (1 Bft) S-SW 213 0 min 0,000 mm 0,0 UV-I 0 W/m 8,4 C 9,6 C 4,8 km/h (1 Bft) 98,63 %
09.05.2019 23:20 9,6 C 14,4 C 9,4 C 92 % 1005,7 hPa 0,0 l/m 4,1 km/h (1 Bft) S-SW 205 0 min 0,000 mm 0,0 UV-I 0 W/m 8,4 C 9,6 C 4,8 km/h (1 Bft) 95,83 %
09.05.2019 23:22 9,6 C 14,4 C 9,4 C 93 % 1005,6 hPa 0,0 l/m 4,7 km/h (1 Bft) S 182 0 min 0,000 mm 0,0 UV-I 0 W/m 8,5 C 9,6 C 6,4 km/h (2 Bft) 94,74 %
09.05.2019 23:24 9,5 C 14,4 C 9,4 C 93 % 1005,7 hPa 0,0 l/m 5,7 km/h (1 Bft) S-SW 196 0 min 0,000 mm 0,0 UV-I 0 W/m 8,4 C 9,5 C 8,0 km/h (2 Bft) 97,87 %
09.05.2019 23:26 9,5 C 14,4 C 9,4 C 93 % 1005,7 hPa 0,2 l/m 7,4 km/h (2 Bft) S-SW 196 0 min 0,000 mm 0,0 UV-I 0 W/m 8,4 C 8,8 C 11,3 km/h (2 Bft) 98,11 %
09.05.2019 23:28 9,4 C 14,4 C 9,4 C 93 % 1005,7 hPa 0,0 l/m 7,8 km/h (2 Bft) S 184 0 min 0,000 mm 0,0 UV-I 0 W/m 8,3 C 8,4 C 12,9 km/h (3 Bft) 97,37 %
09.05.2019 23:30 9,4 C 14,4 C 9,4 C 93 % 1005,6 hPa 0,0 l/m 8,8 km/h (2 Bft) S 178 0 min 0,000 mm 0,0 UV-I 0 W/m 8,3 C 7,7 C 14,5 km/h (3 Bft) 94,00 %
09.05.2019 23:32 9,4 C 14,4 C 9,4 C 93 % 1005,7 hPa 0,0 l/m 8,4 km/h (2 Bft) S 174 0 min 0,000 mm 0,0 UV-I 0 W/m 8,3 C 7,9 C 12,9 km/h (3 Bft) 96,00 %
09.05.2019 23:34 9,4 C 14,4 C 9,4 C 93 % 1005,8 hPa 0,0 l/m 9,3 km/h (2 Bft) S 183 0 min 0,000 mm 0,0 UV-I 0 W/m 8,3 C 7,4 C 14,5 km/h (3 Bft) 100,00 %
09.05.2019 23:36 9,4 C 14,4 C 9,4 C 93 % 1005,7 hPa 0,0 l/m 11,6 km/h (2 Bft) S 190 0 min 0,000 mm 0,0 UV-I 0 W/m 8,3 C 6,0 C 16,1 km/h (3 Bft) 94,34 %
09.05.2019 23:39 9,4 C 14,4 C 9,4 C 93 % 1005,7 hPa 0,0 l/m 10,9 km/h (2 Bft) S 178 0 min 0,000 mm 0,0 UV-I 0 W/m 8,3 C 6,4 C 17,7 km/h (3 Bft) 100,00 %
09.05.2019 23:40 9,5 C 14,4 C 9,4 C 93 % 1005,7 hPa 0,0 l/m 10,5 km/h (2 Bft) S-SW 199 0 min 0,000 mm 0,0 UV-I 0 W/m 8,4 C 6,8 C 12,9 km/h (3 Bft) 100,00 %
09.05.2019 23:42 9,4 C 14,4 C 9,4 C 93 % 1005,7 hPa 0,0 l/m 8,1 km/h (2 Bft) S 178 0 min 0,000 mm 0,0 UV-I 0 W/m 8,3 C 8,2 C 14,5 km/h (3 Bft) 97,73 %
09.05.2019 23:44 9,5 C 14,4 C 9,4 C 93 % 1005,6 hPa 0,0 l/m 8,0 km/h (2 Bft) S 186 0 min 0,000 mm 0,0 UV-I 0 W/m 8,4 C 8,3 C 12,9 km/h (3 Bft) 97,62 %
09.05.2019 23:46 9,5 C 14,4 C 9,4 C 93 % 1005,6 hPa 0,0 l/m 8,7 km/h (2 Bft) S 175 0 min 0,000 mm 0,0 UV-I 0 W/m 8,4 C 7,9 C 14,5 km/h (3 Bft) 98,00 %
09.05.2019 23:48 9,5 C 14,4 C 9,4 C 93 % 1005,6 hPa 0,0 l/m 9,9 km/h (2 Bft) S-SW 200 0 min 0,000 mm 0,0 UV-I 0 W/m 8,4 C 7,1 C 14,5 km/h (3 Bft) 100,00 %
09.05.2019 23:50 9,5 C 14,4 C 9,4 C 93 % 1005,6 hPa 0,0 l/m 9,1 km/h (2 Bft) S-SW 201 0 min 0,000 mm 0,0 UV-I 0 W/m 8,4 C 7,6 C 14,5 km/h (3 Bft) 96,00 %
09.05.2019 23:52 9,6 C 14,4 C 9,4 C 93 % 1005,6 hPa 0,0 l/m 7,5 km/h (2 Bft) S 189 0 min 0,000 mm 0,0 UV-I 0 W/m 8,5 C 8,8 C 12,9 km/h (3 Bft) 100,00 %
09.05.2019 23:54 9,6 C 14,4 C 9,4 C 93 % 1005,7 hPa 0,0 l/m 5,9 km/h (2 Bft) S 186 0 min 0,000 mm 0,0 UV-I 0 W/m 8,5 C 9,6 C 11,3 km/h (2 Bft) 100,00 %
09.05.2019 23:56 9,6 C 14,4 C 9,4 C 92 % 1005,6 hPa 0,0 l/m 8,6 km/h (2 Bft) S 170 0 min 0,000 mm 0,0 UV-I 0 W/m 8,4 C 8,0 C 14,5 km/h (3 Bft) 100,00 %
09.05.2019 23:59 9,6 C 14,4 C 9,4 C 92 % 1005,6 hPa 0,0 l/m 7,3 km/h (2 Bft) SW 220 0 min 0,000 mm 0,0 UV-I 0 W/m 8,4 C 8,9 C 14,5 km/h (3 Bft) 98,68 %
_ Min-Zeit 08:16 02:00 06:24 15:50 00:22 - 00:56 - - - - - - 15:54 08:50 00:56 21:50
Minimum _ 8,2 C 13,3 C 8,3 C 51 % 1000,4 hPa - 0,0 km/h (0 Bft) - - - - - - 5,5 C 2,9 C 0,0 km/h (0 Bft) 90,91 %
_ Max-Zeit 15:38 14:06 15:12 05:32 23:16 03:46 20:00 - - 09:54 14:00 13:24 14:10 17:52 15:34 02:52 00:06
Maximum _ 16,5 C 14,4 C 32,2 C 94 % 1005,9 hPa 0,2 l/m 31,2 km/h
W-SW (5 Bft)
- - 2 min 0,407 mm 3,7 UV-I 905 W/m 10,1 C 16,4 C 48,3 km/h
W-SW (6 Bft)
100,00 %
Durchschnitt _ 11,8 C 13,9 C 14,7 C 78 % 1002,9 hPa #11,6 l/m 9,0 km/h (2 Bft) SW - #6:48 h #2,794 mm 1,9 UV-I 318 W/m 7,9 C 9,9 C 14,4 km/h (3 Bft) 97,56 %